     2              OBSERVATION DATA    GPS                 RINEX VERSION / TYPE
teqc 2000Jul20 Karen Wendt 20030425 19:01:46UTC             PGM / RUN BY / DATE
                                                            COMMENT
L2: 1 -> 1; 150 -> 5; 250 -> 9                              COMMENT
L2: 1 -> 1; 150 -> 5; 250 -> 9                              COMMENT
L2: 1 -> 1; 150 -> 5; 250 -> 9                              COMMENT
L2: 1 -> 1; 150 -> 5; 250 -> 9                              COMMENT
L2: 1 -> 1; 150 -> 5; 250 -> 9                              COMMENT
L2: 1 -> 1; 150 -> 5; 250 -> 9                              COMMENT
L2: 1 -> 1; 150 -> 5; 250 -> 9                              COMMENT
L2: 1 -> 1; 150 -> 5; 250 -> 9                              COMMENT
L2: 1 -> 1; 150 -> 5; 250 -> 9                              COMMENT
L2: 1 -> 1; 150 -> 5; 250 -> 9                              COMMENT
L2: 1 -> 1; 150 -> 5; 250 -> 9                              COMMENT
L2: 1 -> 1; 150 -> 5; 250 -> 9                              COMMENT
L2: 1 -> 1; 150 -> 5; 250 -> 9                              COMMENT
L2: 1 -> 1; 150 -> 5; 250 -> 9                              COMMENT
Original Marker Name: shr2 Shade_Rm2_CDWR                   COMMENT
Campaign Name: USGS 2003                                    COMMENT
4-Character Station Name: SHR2                              COMMENT
6-Character Antenna Code: DMRCHT                            COMMENT
Vertical Measurement Point: BCR                             COMMENT
Vertical Offset to Rinex Ref. Point: 0.0348                 COMMENT
Radial Measurement Point: ECF                               COMMENT
Radial Offset to Rinex Ref. Point: 0.1897                   COMMENT
Antenna Height from Field Measurement: 1.4050 m             COMMENT
Additional Antenna Identification Info.:                    COMMENT
Turborogue and Ashtech Choke Ring                           COMMENT
Original XYZ: -2635386.5479 -4441654.3555 3731280.4634      COMMENT
New XYZ position is based on association with SCEC monument COMMENT
E1F1N7F5+0011. Position of that monument is believed to be  COMMENT
valid to within 1 m horizontally; vertical accuracy         COMMENT
should be no worse than 3-times this value.                 COMMENT
                                                            COMMENT
Revised Rinex header created by UCSD GPS archive for        COMMENT
GSAC on 11-Jul-2003 (2003:192) 16:33:03 GMT                 COMMENT
For assistance contact dagnew@ucsd.edu                      COMMENT
or anderson@python.ucsd.edu                                 COMMENT
                                                            COMMENT
R2                                                          MARKER NAME
JMS US GEOLOGICAL SURVEY                                    OBSERVER / AGENCY
LP020000801 ASHTECH Z-XII3 CD00                             REC # / TYPE / VERS
CR620022601 DORNE-MARGOL. TYPE T                            ANT # / TYPE
 -2635402.5698 -4441632.2489  3731271.3605                  APPROX POSITION XYZ
        1.3573        0.0000        0.0000                  ANTENNA: DELTA H/E/N
     1     1     0                                          WAVELENGTH FACT L1/2
     5    C1    L1    L2    P1    P2                        # / TYPES OF OBSERV
    30                                                      INTERVAL
  2003     4    22    18    45    0.000000                  TIME OF FIRST OBS
  2003     4    22    23    59   30.000000                  TIME OF LAST OBS
                                                            END OF HEADER
 03  4 22 18 45  0.0000000  0  6G 5G30G21G 6G17G10
  23177241.217      300307.58649    218085.13846  23177240.630    23177250.844
  21202932.344      188216.99549    136194.27347  21202932.415    21202940.048
  22683665.605     -178508.69649   -129840.70947  22683664.985    22683672.486
  21024412.755     -109695.02349    -80914.76148  21024412.612    21024419.712
  22351464.954     -149430.25349   -108016.59547  22351464.603    22351473.650
  21648699.125      150852.81349    110495.39547  21648698.318    21648706.212
 03  4 22 18 45 29.9990000  0  7G 5G30G29G21G 6G17G10
  22897601.539      406208.48849    300605.13546  22897600.541    22897610.694
  20915922.357      255386.30149    188533.92547  20915921.898
  20915929.519     -204719.27749   -145865.32444  24311564.178    22372288.471
                   -239383.72049   -177275.74447  22372288.407    22372295.897
  20718000.663     -144479.01349   -108019.16748  20718000.946    20718008.072
  22042085.278     -199817.74749   -147279.55247  22042083.823    22042092.825
  21359366.443      205821.47349    153328.08847  21359366.039    21359373.996
 03  4 22 18 46  0.0000000  0  7G 5G30G29G21G 6G17G10
  22946620.753     -911612.06049   -726268.19146  22946619.976    22946630.334
  20957627.574    -1100870.38549   -868289.53447  20957627.346    20957634.905
  24328153.806    -1692907.09449  -1305492.09445  24328154.609    24328165.395
  22389579.117    -1723941.37549  -1334073.88047  22389578.967    22389586.452
  20740262.723    -1602912.73249  -1244461.02748  20740262.745    20740269.882
  22061372.952    -1673877.22549  -1295897.30747  22061372.050    22061381.146
  21398763.123    -1162569.42749   -912950.55547  21398762.435    21398770.417
 03  4 22 18 46 30.0000000  0  8G 5G30G29G24G21G 6G17G10
  22966083.525     -809334.67649   -646571.70746  22966082.732    22966093.246
  20969832.850    -1036730.96349   -818310.83447  20969832.747    20969840.281
  24315194.732    -1761012.19349  -1358560.95445  24315195.121
  24315204.718    -1204642.57349   -957668.86343
  22377322.893    -1788349.83749  -1384262.25947  22377322.442    22377329.956
  20732983.787    -1641164.23549  -1274267.38948  20732983.714    20732990.930
  22051116.146    -1727777.08249  -1337897.16647  22051115.310    22051124.304
  21408672.243    -1110497.25649   -872374.86047  21408671.465    21408679.494
 03  4 22 18 47  0.0000000  0  8G 5G30G29G24G21G 6G17G10
  22985579.909     -706880.97149   -566737.83946  22985579.164    22985589.697
  20982128.331     -972117.70549   -767962.90747  20982128.295    20982135.861
  24302265.395    -1828955.95149  -1411504.06845  24302265.322
  24302275.253    -1121335.61649   -892754.42944                  24793371.817
  22365109.239    -1852532.99849  -1434275.07847  22365108.748    22365116.398
  20725754.329    -1679155.30649  -1303870.81448  20725754.239    20725761.542
  22040904.147    -1781441.43149  -1379713.51747  22040903.310    22040912.303
  21418684.175    -1057884.37549   -831377.82947  21418683.364    21418691.439
 03  4 22 18 47 30.0000000  0  8G 5G30G29G24G21G 6G17G10
  23005109.316     -604253.78149   -486768.79546  23005108.654    23005119.164
  20994513.440     -907032.94349   -717247.57447  20994513.551    20994521.128
  24289367.484    -1896735.13349  -1464318.93845  24289367.400    24289377.174
  24809204.599    -1038079.46849   -827879.57045  24809203.836    24809215.166
  22352938.382    -1916490.88649  -1484112.35447  22352937.943    22352945.633
  20718574.806    -1716884.47249  -1333270.16148  20718574.659    20718581.939
  22030736.869    -1834870.38749  -1421346.44147  22030736.138    22030745.097
  21428798.536    -1004733.09249   -789961.27447  21428797.702    21428805.860
 03  4 22 18 48  0.0000000  0  7G 5G30G24G21G 6G17G10
  23024671.427     -501455.44949   -406666.38746  23024670.672    23024681.179
  21006988.024     -841478.63749   -666166.36647  21006988.135    21006995.717
  24825037.766     -954874.34049   -763044.45845  24825036.735    24825048.057
  22340810.682    -1980222.91549  -1533773.62747  22340810.159    22340817.854
  20711445.440    -1754349.89049  -1362463.98948  20711445.245    20711452.552
  22020614.629    -1888063.38549  -1462795.49247  22020613.876    22020622.816
  21439014.984     -951045.19849   -748126.57447  21439014.169    21439022.359
 03  4 22 18 48 30.0000000  0  8G 5G30G24G21G 6G17G29G10
  23044265.158     -398489.91149   -326433.68946  23044264.427    23044275.030
  21019551.343     -775458.23249   -614721.95647  21019551.457    21019559.020
  24840860.784     -871721.91349   -698250.42345  24840859.660    24840871.630
  22328725.533    -2043730.50449  -1583260.02447  22328724.996    22328732.718
  20704366.240    -1791551.35449  -1391452.13748  20704366.046    20704373.363
  22010536.783    -1941022.33649  -1504062.18447  22010536.043    22010545.116
                  -1522981.94449  -1177231.46743
  21449333.049     -896824.45549   -705876.66547  21449332.186    21449340.314
 03  4 22 18 49  0.0000000  0  8G 5G30G24G21G 6G17G29G10
  23063890.419     -295358.97149   -246072.11846  23063889.721    23063900.405
  21032203.023     -708973.47349   -562915.71947  21032203.198    21032210.718
  24856674.139     -788622.38549   -633497.59845  24856673.293    24856685.080
  22316683.186    -2107012.69149  -1632570.78447  22316682.752    22316690.491
  20697337.707    -1828486.64449  -1420232.88448  20697337.511    20697344.789
  22000503.638    -1993746.51849  -1545145.93347  22000502.989    22000512.125
                  -1590251.08849  -1229648.90945                  24250877.298
  21459752.184     -842072.09249   -663212.50447  21459751.263    21459759.316
 03  4 22 18 49 30.0000000  0  7G 5G30G24G21G 6G17G10
  23083546.499     -192066.60149   -165584.75546  23083545.773    23083556.542
  21044942.588     -642027.66849   -510750.22647  21044942.719    21044950.186
  24872477.075     -705577.60249   -568787.46945  24872476.372    24872487.675
  22304683.776    -2170070.87549  -1681706.98247  22304683.259    22304690.863
  20690359.906    -1865155.41949  -1448805.95148  20690359.712    20690366.937
  21990515.089    -2046236.85949  -1586047.46647  21990514.394    21990523.534
  21470271.764     -786791.63449   -620136.85147  21470270.831    21470278.877
 03  4 22 18 50  0.0000000  0  7G 5G30G24G21G 6G17G10
  23103232.590      -88616.06249    -84974.14446  23103231.855    23103242.774
  21057769.127     -574623.70949   -458227.72247  21057769.299    21057776.822
  24888269.275     -622588.42849   -504120.65645  24888268.561    24888279.677
  22292726.845    -2232905.34649  -1730668.86547  22292726.277    22292733.767
  20683433.084    -1901556.63949  -1477170.53748  20683432.877    20683440.035
  21980570.797    -2098494.44849  -1626767.63547  21980570.078    21980579.200
  21480891.373     -730985.58249   -576651.63447  21480890.459    21480898.413
 03  4 22 18 50 30.0000000  0  7G 5G30G21G 6G17G10G29
  23122948.963       14993.71549     -4239.47146  23122948.306    23122959.276
  21070683.207     -506760.15249   -405347.09547  21070683.399    21070690.923
  22280813.196    -2295512.21349  -1779453.40347  22280812.604    22280820.094
  20676558.154    -1937685.02249  -1505322.52848  20676557.907    20676565.059
  21970671.473    -2150515.73649  -1667303.67547  21970670.771    21970679.908
  21491611.291     -674652.94649   -532756.09747  21491610.308    21491618.230
                  -1525433.86949  -1174415.38843
 03  4 22 18 51  0.0000000  0  7G 5G30G21G 6G17G10G29
  23142695.014      118759.64449     76616.89146  23142694.426    23142705.465
  21083684.349     -438439.60549   -352110.37447  21083684.489    21083691.985
  22268942.745    -2357891.84149  -1828060.87247  22268942.172    22268949.598
  20669735.287    -1973539.39849  -1533260.99448  20669735.040    20669742.238
  21960816.978    -2202301.34849  -1707656.07547  21960816.303    21960825.421
  21502430.791     -617796.19049   -488452.14847  21502429.828    21502437.801
                  -1591980.86049  -1226269.75843
 03  4 22 18 51 30.0000000  0  7G 5G30G21G 6G17G10G29
  23162469.273      222672.38449    157587.64946  23162468.586    23162479.621
  21096770.545     -369671.35049   -298524.79347  21096770.709    21096778.229
  22257114.227    -2420051.12549  -1876496.63747  22257113.671    22257121.007
  20662963.546    -2009125.00949  -1560990.04248  20662963.308    20662970.584
  21951006.125    -2253858.19849  -1747830.21147  21951005.385    21951014.460
  21513348.311     -560424.39449   -443746.87547  21513347.330    21513355.373
                  -1658345.20249  -1277982.22044                  24187383.968
 03  4 22 18 52  0.0000000  0  7G 5G30G21G 6G17G10G29
  23182271.199      326730.06749    238671.33246  23182270.347    23182281.319
  21109941.613     -300456.79549   -244591.44047  21109941.811    21109949.400
  22245327.847    -2481989.01249  -1924759.88247  22245327.231    22245334.575
  20656243.467    -2044439.36149  -1588507.71648  20656243.220    20656250.505
  21941238.880    -2305185.19949  -1787825.25147  21941238.207    21941247.257
  21524363.507     -502538.99649   -398641.39147  21524362.554    21524370.644
  24174782.312    -1724522.97049  -1329549.21645  24174781.627    24174791.161
 03  4 22 18 52 30.0000000  0  7G 5G30G21G 6G17G10G29
  23202099.896      430929.79049    319865.69246  23202099.021    23202110.076
  21123197.274     -230798.53549   -190312.36047  21123197.444    21123204.965
  22233583.389    -2543706.05949  -1972851.03247  22233582.831    22233590.221
  20649575.254    -2079481.33549  -1615813.14148  20649574.987    20649582.281
  21931515.342    -2356282.86349  -1827641.57947  21931514.648    21931523.696
  21535476.041     -444142.33249   -353137.51847  21535475.100    21535483.167
  24162224.418    -1790511.66049  -1380968.86945  24162223.771    24162233.383
 03  4 22 18 53  0.0000000  0  7G 5G30G21G 6G17G10G29
  23221955.451      535272.03749    401171.13946  23221954.715    23221965.923
  21136537.539     -160695.82149   -135686.93547  21136537.639    21136545.164
  22221881.630    -2605198.65449  -2020767.31447  22221881.162    22221888.487
  20642959.759    -2114246.10149  -1642902.56948  20642959.496    20642966.776
  21921835.949    -2407148.48749  -1867277.09847  21921835.239    21921844.277
  21546685.924     -385233.72349   -307234.73447  21546685.010    21546693.078
  24149704.226    -1856305.04249  -1432236.32145  24149703.788    24149712.991
 03  4 22 18 53 30.0000000  0  7G 5G30G21G 6G17G10G29
  23241837.921      639754.37649    482585.71346  23241837.170    23241848.407
  21149961.901      -90150.56749    -80716.67247  21149962.006    21149969.557
  22210222.906    -2666466.40549  -2068508.36247  22210222.283    22210229.559
  20636397.423    -2148731.70249  -1669774.48248  20636397.159    20636404.398
  21912200.627    -2457781.73449  -1906731.54547  21912199.990    21912209.117
  21557992.817     -325815.23749   -260934.63947  21557991.982    21558000.042
  24137221.857    -1921899.81149  -1483349.05945  24137221.439    24137230.861
 03  4 22 18 54  0.0000000  0  7G 5G30G21G 6G17G10G29
  23261746.686      744374.26149    564107.48246  23261745.988    23261757.166
  21163470.020      -19165.33349    -25403.58747  21163470.114    21163477.623
  22198606.675    -2727509.31349  -2116074.23847  22198606.075    22198613.478
  20629888.459    -2182936.59949  -1696427.64148  20629888.196    20629895.420
  21902609.610    -2508182.83749  -1946005.09747  21902608.979    21902618.066
  21569396.342     -265889.30849   -214239.13247  21569395.498    21569403.569
  24124777.898    -1987293.06649  -1534304.72345  24124777.524    24124787.006
 03  4 22 18 54 30.0000000  0  7G 5G30G21G 6G17G10G29
  23281680.872      849128.77049    645734.15546  23281680.228    23281691.635
  21177061.281       52257.20149     30250.25947  21177061.415    21177068.948
  22187033.315    -2788327.46349  -2163464.96147  22187032.747    22187040.202
  20623433.122    -2216859.67149  -1722861.20248  20623432.835    20623440.103
  21893062.770    -2558351.84849  -1985097.80347  21893062.129    21893071.211
  21580896.018     -205458.33349   -167150.07847  21580895.147    21580903.170
  24112372.993    -2052482.26649  -1585101.39745  24112372.492    24112381.780
 03  4 22 18 55  0.0000000  0  7G 5G30G21G 6G17G10G29
  23301640.146      954014.83149    727463.31846  23301639.500    23301651.106
  21190735.180      124114.06249     86242.54947  21190735.319    21190742.901
  22175502.675    -2848921.64349  -2210681.16647  22175502.049    22175509.521
  20617031.543    -2250499.91149  -1749074.37448  20617031.296    20617038.563
  21883559.733    -2608290.08649  -2024010.68647  21883559.137    21883568.235
  21592491.162     -144525.43149   -119669.92147  21592490.310    21592498.356
  24100007.051    -2117464.85849  -1635737.09045  24100006.613    24100015.973
 03  4 22 18 55 30.0000000  0  6G 5G30G21G 6G17G10
  23321624.549     1059032.92649    809295.35846  23321623.925    23321635.646
  21204492.024      196406.17649    142573.99347  21204492.165    21204499.756
  22164015.216    -2909288.62949  -2257720.33047  22164014.622    22164022.122
  20610684.780    -2283852.38249  -1775063.31648  20610684.530    20610691.800
  21874101.297    -2657994.50649  -2062741.37647  21874100.705    21874109.819
  21604182.039      -83089.74749    -71797.97847  21604181.216    21604189.239
 03  4 22 18 56  0.0000000  0  7G 5G30G26G21G 6G17G10
  23341633.307     1164178.20749    891226.51946  23341632.654    23341644.445
  21218330.713      269128.82849    199240.93347  21218330.895    21218338.548
                  -1726740.59249  -1323786.08944                  24265750.779
  22152570.634    -2969430.60349  -2304584.15447  22152569.995    22152577.482
  20604392.673    -2316917.71549  -1800828.51148  20604392.436    20604399.692
  21864686.955    -2707467.12849  -2101291.44547  21864686.392    21864695.442
  21615967.803      -21155.97149    -23537.91347  21615966.917    21615974.907
 03  4 22 18 56 30.0000000  0  8G 5G30G26G21G 6G17G29G10
  23361665.092     1269444.74249    973252.13046  23361664.436    23361676.231
  21232250.279      342276.32849    256238.91447  21232250.489    21232258.204
  24248586.208    -1816883.07749  -1394026.85045  24248584.984    24248595.986
  22141168.131    -3029350.59049  -2351274.99747  22141167.539    22141175.006
  20598154.899    -2349697.67949  -1826371.33948  20598154.654    20598161.913
  21855316.235    -2756711.27249  -2139663.47947  21855315.600    21855324.561
                  -1603600.43549  -1237133.43743
  21627847.218       41270.14449     25105.79547  21627846.304    21627854.241
 03  4 22 18 57  0.0000000  0  8G 5G30G26G21G 6G17G29G10
  23381719.672     1374831.36649   1055371.33346  23381719.062    23381730.853
  21246250.498      415847.61649    313567.11647  21246250.697    21246258.472
  24231439.258    -1906989.16949  -1464239.23545  24231438.174    24231450.915
  22129808.189    -3089047.28949  -2397791.85247  22129807.643    22129815.034
  20591972.038    -2382189.16049  -1851689.37948  20591971.794    20591979.011
  21845988.983    -2805726.01549  -2177856.76347  21845988.397    21845997.360
                  -1667726.03149  -1287101.00344                  24050957.820
  21639820.128      104188.02249     74132.67947  21639819.205    21639827.130
 03  4 22 18 57 30.0000000  0  8G 5G30G26G21G 6G17G29G10
  23401796.033     1480331.22149   1137578.75446  23401795.314    23401806.967
  21260330.088      489835.89849    371220.25247  21260330.279    21260338.059
  24214300.081    -1997059.73849  -1534423.91445  24214299.149    24214311.612
  22118490.010    -3148524.92849  -2444138.02347  22118489.478    22118496.808
  20585843.544    -2414395.14749  -1876784.96148  20585843.267    20585850.393
  21836704.714    -2854515.66149  -2215874.64347  21836704.094    21836713.034
  24038787.450    -1731635.46249  -1336900.51945  24038786.295    24038797.632
  21651885.454      167590.87949    123537.47947  21651884.492    21651892.381
 03  4 22 18 58  0.0000000  0  8G 5G30G26G21G 6G17G29G10
  23421894.359     1585946.21849   1219875.88546  23421893.510    23421905.024
  21274489.412      564243.21249    429199.90347  21274489.587    21274497.339
  24197168.326    -2087086.91649  -1604574.80845  24197167.880    24197180.322
  22107214.433    -3207778.94449  -2490309.95047  22107213.825    22107221.093
  20579770.579    -2446309.36549  -1901653.18648  20579770.281    20579777.341
  21827463.950    -2903076.12649  -2253713.93547  21827463.322    21827472.241
  24026667.809    -1795321.07849  -1386525.58545  24026668.893    24026678.437
  21664043.375      231480.70949    173321.74047  21664042.356    21664050.208
 03  4 22 18 58 30.0000000  0  8G 5G30G26G21G 6G17G29G10
  23442014.644     1691678.14049   1302264.13646  23442013.831    23442025.292
  21288728.930      639071.80449    487507.82247  21288729.069    21288736.845
  24180045.625    -2177062.81249  -1674685.71145  24180045.224    24180058.308
  22095982.238    -3266804.70449  -2536304.00947  22095981.630    22095988.847
  20573754.145    -2477925.81049  -1926289.38248  20573753.857    20573760.926
  21818267.735    -2951402.66149  -2291370.95147  21818267.078    21818275.983
  24014592.811    -1858775.67649  -1435970.62745  24014593.403    24014603.145
  21676294.138      295859.49149    223487.00147  21676293.165    21676301.065
 03  4 22 18 59  0.0000000  0  8G 5G30G26G21G 6G17G29G10
  23462156.489     1797523.32049   1384740.63146  23462155.707    23462167.143
  21303047.821      714317.89049    546141.06847  21303048.027    21303055.809
  24162934.003    -2266985.19649  -1744754.92745  24162933.699    24162946.354
  22084793.155    -3325603.41949  -2582121.15647  22084792.616    22084799.831
  20567794.442    -2509244.05149  -1950693.20548  20567794.172    20567801.288
  21809115.671    -2999497.01349  -2328847.04147  21809114.994    21809123.931
  24002563.005    -1921997.34749  -1485234.17045  24002563.251    24002572.315
  21688637.222      360723.50949    274030.36847  21688636.300    21688644.277
 03  4 22 18 59 30.0000000  0  8G 5G30G26G21G 6G17G29G10
  23482319.144     1903477.96649   1467302.41446  23482318.388    23482329.796
  21317445.405      789977.74049    605096.72547  21317445.649    21317453.494
  24145832.911    -2356851.87549  -1814780.75945  24145832.679    24145845.161
  22073647.159    -3384176.51349  -2627762.48947  22073646.542    22073653.792
  20561891.640    -2540263.67949  -1974864.34348  20561891.359    20561898.540
  21800007.485    -3047360.46149  -2366143.20647  21800006.819    21800015.808
  23990576.865    -1984984.20349  -1534314.73845  23990576.800    23990586.243
  21701072.072      426069.28749    324949.13647  21701071.151    21701079.219
 03  4 22 19  0  0.0000000  0  8G 5G30G26G21G 6G17G29G10
  23502501.914     2009538.23849   1549946.52246  23502501.267    23502512.644
  21331921.178      866047.49849    664371.78447  21331921.358    21331929.209
  24128742.454    -2446660.85749  -1884761.61345  24128742.200    24128754.804
  22062543.844    -3442524.79049  -2673228.63447  22062543.289    22062550.405
  20556045.744    -2570984.36349  -1998802.54048  20556045.466    20556052.599
  21790943.088    -3094994.06549  -2403260.27747  21790942.474    21790951.487
  23978635.811    -2047734.78249  -1583211.20945  23978635.796    23978645.058
  21713597.937      491893.24149    376240.49147  21713597.060    21713605.233
 03  4 22 19  0 30.0000000  0  8G 5G30G26G21G 6G17G29G10
  23522704.028     2115701.27549   1632670.69246  23522703.491    23522715.235
  21346474.531      942524.75749    723964.37047  21346474.683    21346482.431
  24111663.738    -2536408.72849  -1954694.87845  24111663.643    24111675.897
  22051483.270    -3500648.51149  -2718519.80047  22051482.726    22051489.765
  20550257.028    -2601404.56849  -2022506.60248  20550256.763    20550263.848
  21781922.485    -3142398.38749  -2440198.68247  21781921.789    21781930.751
  23966740.474    -2110246.09549  -1631921.22445  23966740.391    23966749.457
  21726214.292      558192.47749    427902.19447  21726213.415    21726221.668
 03  4 22 19  1  0.0000000  0  8G 5G30G26G21G 6G17G29G10
  23542925.330     2221964.16949   1715472.67545  23542924.802    23542936.757
  21361104.751     1019406.42249    783872.08347  21361104.905    21361112.605
  24094597.226    -2626092.40549  -2024578.11345  24094597.258    24094609.351
  22040465.291    -3558548.03349  -2763636.27347  22040464.774    22040471.878
  20544525.748    -2631522.90349  -2045975.44448  20544525.461    20544532.531
  21772945.343    -3189573.88549  -2476958.78847  21772944.604    21772953.604
  23954890.961    -2172515.67649  -1680442.88845  23954890.844    23954900.114
  21738920.601      624964.10349    479931.99947  21738919.699    21738927.993
 03  4 22 19  1 30.0000000  0  8G 5G30G26G21G 6G17G29G10
  23563165.300     2328324.03749   1798350.20445  23563164.660    23563176.764
  21375811.394     1096689.90349    844092.89947  21375811.534    21375819.274
  24077543.497    -2715708.69249  -2094408.79445  24077543.624    24077555.872
  22029490.029    -3616223.58949  -2808578.23547  22029489.492    22029496.618
  20538852.038    -2661338.16149  -2069208.11048  20538851.769    20538858.932
  21764011.520    -3236521.27649  -2513541.14547  21764010.859    21764019.858
  23943088.243    -2234540.64949  -1728773.94545  23943087.925    23943097.260
  21751716.305      692205.49049    532327.85047  21751715.400    21751723.658
 03  4 22 19  2  0.0000000  0  8G 5G30G26G21G 6G17G29G10
  23583423.240     2434778.05849   1881301.12045  23583422.456    23583434.503
  21390593.935     1174372.25049    904624.51747  21390594.090    21390601.812
  24060503.137    -2805254.43649  -2164184.54745  24060503.271    24060515.981
  22018557.348    -3673675.31449  -2853345.78147  22018556.761    22018563.877
  20533236.328    -2690848.97649  -2092203.55248  20533236.066    20533243.325
  21755121.195    -3283240.95149  -2549946.05347  21755120.463    21755129.393
  23931332.280    -2296318.44749  -1776912.41045  23931331.914    23931341.197
  21764600.957      759913.89049    585087.60447  21764600.011    21764608.259
 03  4 22 19  2 30.0000000  0  8G 5G30G26G21G 6G17G29G10
  23603698.687     2541324.32149   1964323.87945  23603697.819    23603709.625
  21405452.237     1252451.74749    965465.59747  21405452.313    21405459.904
  24043476.992    -2894725.45149  -2233902.05945  24043477.128    24043489.987
  22007667.296    -3730902.50849  -2897938.37247  22007666.710    22007673.864
  20527679.069    -2720052.89549  -2114959.85248  20527678.793    20527686.068
  21746274.212    -3329731.94649  -2586172.78547  21746273.498    21746282.384
  23919624.118    -2357845.49649  -1824855.46345  23919623.759    23919633.007
  21777574.138      828087.52449    638209.88047  21777573.189    21777581.416
 03  4 22 19  3  0.0000000  0  9G 5G30G26G21G 6G17G29G18G10
  23623991.160     2647960.64349   2047416.82845  23623990.341    23624002.051
  21420385.497     1330926.25549   1026614.49047  21420385.576    21420393.207
  24026466.347    -2984117.92749  -2303558.32545  24026466.393    24026479.027
  21996820.051    -3787904.75749  -2942355.68247  21996819.469    21996826.752
  20522180.588    -2748948.06649  -2137475.57748  20522180.290    20522187.468
  21737470.781    -3375994.27949  -2622221.33347  21737470.103    21737478.930
  23907964.083    -2419118.23049  -1872600.37045  23907963.821    23907973.239
                   -137982.15749    -87090.74743
  21790635.514      896724.31049    691693.06247  21790634.517    21790642.628
 03  4 22 19  3 30.0000000  0  9G 5G30G26G21G 6G17G29G18G10
  23644299.897     2754683.54149   2130577.23745  23644299.172    23644311.036
  21435393.248     1409792.11349   1088068.31547  21435393.336    21435401.004
  24009470.854    -3073429.24149  -2373151.41945  24009470.929    24009483.558
  21986015.460    -3844682.94949  -2986598.39847  21986014.909    21986022.218
  20516740.921    -2777533.76249  -2159750.15448  20516740.636    20516747.742
  21728710.670    -3422029.37449  -2658092.82047  21728709.927    21728718.691
  23896352.981    -2480134.88349  -1920145.73145  23896352.749    23896362.194
                   -249245.06449   -173788.84445                  24586359.145
  21803784.293      965820.64549    745534.33347  21803783.215    21803791.287
 03  4 22 19  4  0.0000000  0  9G 5G30G26G21G 6G17G29G18G10
  23664624.649     2861489.10749   2213802.07245  23664623.902    23664635.772
  21450474.724     1489045.47249   1149824.09747  21450474.835    21450482.536
  23992491.407    -3162657.32749  -2442679.63545  23992491.434    23992503.906
  21975253.407    -3901238.25649  -3030667.42147  21975252.809    21975260.050
  20511360.219    -2805809.77749  -2181783.41348  20511359.941    20511367.016
  21719993.456    -3467838.44749  -2693788.17147  21719992.742    21720001.495
  23884790.854    -2540893.74549  -1967490.22245  23884790.455    23884800.244
  24565180.071     -360451.45849   -260442.88245  24565180.779    24565196.566
  21817019.605     1035372.86249    799730.83247  21817018.572    21817026.660
 03  4 22 19  4 30.0000000  0  9G 5G30G26G21G 6G17G29G18G10
  23684964.631     2968375.66649   2297090.00945  23684963.941    23684976.165
  21465629.659     1568684.56049   1211880.45447  21465629.734    21465637.417
  23975528.718    -3251797.86349  -2512139.63145  23975528.627    23975540.854
  21964533.746    -3957570.19549  -3074562.40947  21964533.170    21964540.406
  20506038.902    -2833773.71149  -2203573.48848  20506038.605    20506045.684
  21711319.275    -3513420.99349  -2729307.00347  21711318.597    21711327.427
  23873278.208    -2601391.37249  -2014631.16545  23873277.973    23873287.920
  24544034.877     -471598.15149   -347050.41445  24544030.551    24544046.299
  21830341.447     1105379.20749    854281.20747  21830340.450    21830348.366
 03  4 22 19  5  0.0000000  0  9G 5G30G26G21G 6G17G29G18G10
  23705319.155     3075338.66949   2380437.49945  23705318.579    23705330.913
  21480857.008     1648704.78849   1274233.79047  21480857.132    21480864.791
  23958582.693    -3340849.56649  -2581530.37445  23958582.588    23958594.576
  21953856.309    -4013680.94449  -3118285.03247  21953855.702    21953862.873
  20500776.884    -2861425.98049  -2225120.71448  20500776.588    20500783.644
  21702687.861    -3558779.46149  -2764651.23247  21702687.162    21702696.035
  23861815.664    -2661626.56949  -2061567.59445  23861815.370    23861825.431
  24522893.228     -582684.67449   -433611.07345  24522891.425    24522907.340
  21843748.676     1175834.98749    909181.79247  21843747.688    21843755.634
 03  4 22 19  5 30.0000000  0  9G 5G30G26G21G 6G17G29G18G10
  23725688.291     3182377.71449   2463844.23245  23725687.698    23725700.103
  21496156.879     1729105.64049   1336883.71747  21496156.980    21496164.692
  23941654.669    -3429806.53449  -2650847.34645  23941654.657    23941666.472
  21943221.354    -4069567.93749  -3161833.30147  21943220.725    21943227.874
  20495574.843    -2888762.77849  -2246422.11948  20495574.519    20495581.545
  21694099.435    -3603911.55249  -2799819.07147  21694098.758    21694107.646
  23850404.059    -2721594.31949  -2108295.65545  23850403.740    23850413.695
  24501765.893     -693706.51449   -520121.31545  24501764.701    24501780.448
  21857241.400     1246739.87049    964432.31347  21857240.467    21857248.369
 03  4 22 19  6  0.0000000  0  9G 5G30G26G21G 6G17G29G18G10
  23746071.456     3289490.83349   2547308.70245  23746070.917    23746083.230
  21511528.795     1809885.09049   1399828.66147  21511528.879    21511536.671
  23924745.379    -3518665.06549  -2720087.55845  23924745.334    23924757.221
  21932629.009    -4125230.63349  -3205206.78147  21932628.387    21932635.560
  20490433.209    -2915781.89949  -2267475.97948  20490432.899    20490439.941
  21685554.168    -3648816.91949  -2834810.24347  21685553.523    21685562.319
  23839044.313    -2781291.37349  -2154812.76645  23839043.973    23839053.567
  24480651.957     -804660.95649   -606579.04645  24480650.948    24480666.426
  21870819.189     1318091.76749   1020031.16147  21870818.218    21870826.181
 03  4 22 19  6 30.0000000  0  9G 5G30G26G21G 6G17G29G18G10
  23766468.103     3396676.37649   2630829.60045  23766467.697    23766480.266
  21526972.315     1891041.66549   1463067.46747  21526972.447    21526980.363
  23907855.324    -3607420.29249  -2789247.34445  23907855.436    23907867.480
  21922079.661    -4180667.71449  -3248404.47347  21922079.040    21922086.226
  20485352.521    -2942480.58249  -2288280.14948  20485352.246    20485359.400
  21677052.454    -3693494.27349  -2869623.74047  21677051.769    21677060.474
  23827736.777    -2840713.49749  -2201115.66145  23827736.332    23827745.730
  24459551.484     -915544.18849   -692981.29845  24459550.536    24459565.729
  21884481.676     1389889.26649   1075977.22547  21884480.729    21884488.880
 03  4 22 19  7  0.0000000  0  9G 5G30G26G21G 6G17G29G18G10
  23786878.318     3503931.35949   2714404.59845  23786877.797    23786890.388
  21542486.958     1972572.17849   1526597.64147  21542487.137    21542495.187
  23890986.173    -3696069.31849  -2858324.34945  23890986.175    23890998.231
  21911573.123    -4235879.94249  -3291426.95747  21911572.494    21911579.630
  20480333.029    -2968857.88949  -2308833.89648  20480332.781    20480340.017
  21668593.718    -3737944.95749  -2904260.62247  21668593.065    21668601.861
  23816481.483    -2899858.42249  -2247202.57445  23816481.392    23816490.748
  24438464.818    -1026354.54649   -779326.76945  24438463.913    24438478.947
  21898228.449     1462129.03849   1132267.92047  21898227.523    21898235.727
 03  4 22 19  7 30.0000000  0  9G 5G30G26G21G 6G17G29G18G10
  23807300.952     3611252.97749   2798031.50645  23807300.628    23807313.217
  21558072.377     2054473.63949   1590416.86747  21558072.547    21558080.622
  23874137.508    -3784608.96349  -2927316.09845  23874137.289    23874149.773
  21901109.266    -4290867.93049  -3334274.70847  21901108.668    21901115.673
  20475374.955    -2994912.66449  -2329136.32048  20475374.723    20475382.001
  21660178.107    -3782169.44449  -2938721.23147  21660177.471    21660186.191
  23805279.986    -2958723.70549  -2293071.56345  23805279.808    23805288.953
  24417392.498    -1137090.23649   -865614.04545  24417391.522    24417406.428
  21912058.839     1534808.05949   1188900.88847  21912057.888    21912066.065
 03  4 22 19  8  0.0000000  0  9G 5G30G26G21G 6G17G29G18G10
  23827735.727     3718638.77149   2881708.42745  23827735.612    23827748.324
  21573727.979     2136743.57249   1654523.21447  21573728.109    21573736.235
  23857310.100    -3873035.44749  -2996219.71245  23857310.038    23857322.532
  21890688.201    -4345631.17149  -3376947.32747  21890687.602    21890694.518
  20470478.647    -3020643.04149  -2349185.96848  20470478.423    20470485.665
  21651805.499    -3826167.71349  -2973005.56947  21651804.838    21651813.647
  23794132.199    -3017306.09049  -2338720.11545  23794132.025    23794140.961
  24396334.655    -1247748.86549   -951841.30645  24396333.720    24396348.678
  21925972.335     1607924.18749   1245874.45847  21925971.406    21925979.657
 03  4 22 19  8 30.0000000  0  9G 5G30G26G21G 6G17G29G18G10
  23848182.202     3826085.67449   2965432.97645  23848182.217    23848195.039
  21589452.962     2219378.87149   1718914.26047  21589453.113    21589461.361
  23840504.829    -3961345.90649  -3065032.90245  23840504.893    23840517.368
  21880309.748    -4400170.27149  -3419445.29447  21880309.167    21880316.033
  20465644.320    -3046047.84849  -2368981.92848  20465644.099    20465651.319
  21643475.593    -3869940.57649  -3007114.27247  21643475.044    21643483.978
  23783038.719    -3075603.25849  -2384146.41345  23783038.545    23783047.367
  24375291.937    -1358328.21349  -1038006.75945  24375291.147    24375306.163
  21939968.564     1681474.59149   1303186.42047  21939967.656    21939975.954
 03  4 22 19  9  0.0000000  0  9G 5G30G26G21G 6G17G29G18G10
  23868640.047     3933590.87049   3049202.92345  23868639.834    23868652.912
  21605246.933     2302376.57249   1783587.69747  21605247.118    21605255.398
  23823722.281    -4049537.01549  -3133753.13245  23823722.530    23823734.637
  21869973.845    -4454485.42449  -3461768.74947  21869973.313    21869980.178
  20460872.181    -3071125.94049  -2388523.30348  20460871.943    20460879.156
  21635188.744    -3913488.44949  -3041047.64847  21635188.171    21635197.024
  23772000.095    -3133612.64549  -2429348.45845  23771999.727    23772008.425
  24354264.689    -1468826.09849  -1124108.75845  24354264.094    24354279.036
  21954046.718     1755455.91049   1360834.15847  21954045.830    21954054.167
 03  4 22 19  9 30.0000000  0  9G 5G30G26G21G 6G17G29G18G10
  23889108.363     4041151.29549   3133015.89745  23889108.044    23889121.318
  21621109.307     2385733.40749   1848540.97547  21621109.507    21621117.735
  23806963.579    -4137605.51549  -3202377.75445  23806963.742    23806975.381
  21859680.514    -4508577.11549  -3503918.08547  21859679.929    21859686.828
  20456162.484    -3095875.89449  -2407808.98448  20456162.243    20456169.469
  21626944.553    -3956812.00149  -3074806.23947  21626943.958    21626952.794
  23761016.224    -3191331.68749  -2474324.26745  23761015.982    23761024.840
  24333253.277    -1579240.97349  -1210146.05245  24333252.690    24333267.580
  21968206.364     1829864.95249   1418815.19647  21968205.508    21968213.799
 03  4 22 19 10  0.0000000  0  9G 5G30G26G21G 6G17G29G18G10
  23909586.960     4148764.88549   3216870.30545  23909586.528    23909599.800
  21637039.633     2469447.45049   1913772.58747  21637039.879    21637048.042
  23790229.030    -4225547.67049  -3270903.95345  23790229.057    23790240.538
  21849429.780    -4562445.06149  -3545893.07747  21849429.205    21849436.159
  20451515.603    -3120295.70949  -2426837.42148  20451515.351    20451522.523
  21618743.046    -3999911.04349  -3108389.89047  21618742.486    21618751.338
  23750088.334    -3248757.36249  -2519071.48245  23750088.087    23750097.134
  24312258.039    -1689570.01449  -1296116.49245  24312257.684    24312272.406
  21982447.009     1904699.81849   1477128.04447  21982446.149    21982454.419
 03  4 22 19 10 30.0000000  0  9G 5G30G26G21G 6G17G29G18G10
  23930075.013     4256428.47849   3300763.68345  23930074.594    23930087.827
  21653037.398     2553515.20849   1979279.81747  21653037.574    21653045.692
  23773518.989    -4313360.43049  -3339329.33045  23773518.995    23773530.514
  21839221.404    -4616089.81149  -3587694.15047  21839220.832    21839227.921
  20446931.647    -3144384.61649  -2445608.00448  20446931.424    20446938.572
  21610584.306    -4042786.15849  -3141799.05047  21610583.714    21610592.466
  23739216.696    -3305887.21149  -2563588.18845  23739216.414    23739225.826
  24291279.506    -1799811.37249  -1382018.57745  24291279.168    24291293.861
  21996768.061     1979957.18349   1535770.09647  21996767.205    21996775.482
 03  4 22 19 11  0.0000000  0  9G 5G30G26G21G 6G17G29G18G10
  23950572.176     4364140.07349   3384694.44345  23950571.613    23950585.037
  21669101.918     2637934.26849   2045060.79747  21669102.103    21669110.258
  23756834.212    -4401039.95049  -3407650.88545  23756834.046    23756845.473
  21829055.547    -4669510.93349  -3629320.96547  21829055.060    21829062.184
  20442411.030    -3168140.58949  -2464119.15948  20442410.813    20442417.992
  21602468.106    -4085437.15149  -3175033.57547  21602467.483    21602476.203
  23728401.641    -3362718.33249  -2607872.14145  23728401.579    23728411.267
  24270318.292    -1909962.43349  -1467850.27745  24270318.148    24270332.476
  22011169.087     2055634.87749   1594739.69247  22011168.225    22011176.599
 03  4 22 19 11 30.0000000  0  9G 5G30G26G21G 6G17G29G18G10
  23971077.833     4471896.31349   3468660.00145  23971077.288    23971090.784
  21685232.665     2722701.48249   2111113.06147  21685232.855    21685241.041
  23740175.031    -4488583.33249  -3475866.36745  23740175.049    23740186.180
  21818932.278    -4722709.24249  -3670774.16247  21818931.728    21818938.874
  20437953.929    -3191562.63549  -2482370.10648  20437953.709    20437960.919
  21594394.247    -4127865.28549  -3208094.44047  21594393.642    21594402.338
  23717644.275    -3419248.28849  -2651921.38445  23717644.267    23717653.953
  24249375.056    -2020021.19749  -1553610.08645  24249374.688    24249388.825
  22025649.398     2131729.47949   1654034.13847  22025648.551    22025657.044
 03  4 22 19 12  0.0000000  0  9G 5G30G26G21G 6G17G29G18G10
  23991591.527     4579694.54349   3552658.27645  23991590.897    23991604.538
  21701429.065     2807813.71849   2177434.16747  21701429.263    21701437.416
  23723542.659    -4575987.36249  -3543973.23045  23723542.494    23723553.470
  21808851.218    -4775684.85549  -3712053.84247  21808850.737    21808857.928
  20433560.574    -3214649.61849  -2500359.97248  20433560.361    20433567.546
  21586362.811    -4170070.81449  -3240981.84447  21586362.182    21586370.873
  23706944.599    -3475474.69849  -2695734.11145  23706944.654    23706954.385
  24228449.561    -2129985.93549  -1639296.56245  24228448.944    24228462.934
  22040208.508     2208237.88449   1713651.03747  22040207.671    22040216.179
 03  4 22 19 12 30.0000000  0  9G 5G30G26G21G 6G17G29G18G10
  24012112.729     4687532.53749   3636687.52745  24012112.130    24012125.940
  21717690.588     2893268.60949   2244022.27747  21717690.865    21717698.991
  23706937.060    -4663248.09749  -3611968.47345  23706936.960    23706947.983
  21798812.736    -4828437.79249  -3753159.99247  21798812.206    21798819.309
  20429231.365    -3237399.50049  -2518087.16248  20429231.178    20429238.318
  21578373.685    -4212053.85749  -3273695.88047  21578373.093    21578381.778
  23696303.532    -3531394.22349  -2739307.71145  23696303.540    23696313.323
  24207542.096    -2239853.90749  -1724907.68645  24207541.488    24207555.567
  22054845.972     2285157.93049   1773588.70447  22054845.099    22054853.593
 03  4 22 19 13  0.0000000  0  9G 5G30G26G21G 6G17G29G18G10
  24032641.043     4795408.15949   3720746.09245  24032640.419    24032654.405
  21734016.968     2979063.68949   2310875.46747  21734017.223    21734025.314
  23690359.185    -4750361.68349  -3679849.06745  23690359.406    23690370.566
  21788816.664    -4880967.54949  -3794092.24347  21788816.116    21788823.153
  20424966.685    -3259810.52449  -2535550.30448  20424966.490    20424973.654
  21570426.931    -4253814.25449  -3306236.43247  21570426.365    21570434.983
  23685721.536    -3587003.98249  -2782639.94845  23685721.445    23685731.039
  24186653.329    -2349622.67249  -1810441.51945  24186652.979    24186667.042
  22069561.169     2362487.08449   1833845.14347  22069560.291    22069568.907
 03  4 22 19 13 30.0000000  0  9G 5G30G26G21G 6G17G29G18G10
  24053176.171     4903318.78949   3804831.94545  24053175.522    24053189.507
  21750407.604     3065196.35549   2377991.70947  21750407.806    21750415.971
  23673810.623    -4837324.60849  -3747612.23745  23673810.801    23673821.814
  21778863.032    -4933274.23549  -3834850.67347  21778862.517    21778869.469
  20420766.818    -3281881.01349  -2552748.08748  20420766.618    20420773.862
  21562522.588    -4295352.14949  -3338603.60647  21562521.987    21562530.526
  23675199.113    -3642301.10549  -2825728.56545  23675199.011    23675208.172
  24165784.064    -2459289.76849  -1895896.12645  24165783.726    24165797.842
  22084353.773     2440222.77649   1894418.35947  22084352.910    22084361.633
 03  4 22 19 14  0.0000000  0  9G 5G30G26G21G 6G17G29G18G10
  24073717.146     5011261.02449   3888942.42345  24073716.553    24073730.504
  21766861.610     3151662.87149   2445368.09747  21766861.875    21766870.149
  23657291.396    -4924134.10249  -3815255.84045  23657291.448    23657302.308
  21768951.817    -4985358.56249  -3875435.83347  21768951.269    21768958.161
  20416631.855    -3303610.27049  -2569679.97848  20416631.690    20416638.989
  21554660.307    -4336668.49849  -3370798.14647  21554659.730    21554668.258
  23664736.370    -3697283.51549  -2868571.94145  23664736.134    23664745.200
  24144934.557    -2568853.64549  -1981270.29345  24144934.250    24144948.159
  22099223.079     2518361.48749   1955305.62647  22099222.227    22099231.024
 03  4 22 19 14 30.0000000  0  9G 5G30G26G21G 6G17G29G18G10
  24094263.638     5119232.84449   3973075.92645  24094263.219    24094277.155
  21783378.832     3238461.16249   2513003.01347  21783379.090    21783387.522
  23640801.993    -5010785.88649  -3882776.59645  23640802.004    23640812.856
  21759082.825    -5037220.15449  -3915847.44447  21759082.331    21759089.224
  20412562.321    -3324996.00149  -2586344.19548  20412562.147    20412569.396
  21546840.213    -4377763.10649  -3402819.90747  21546839.623    21546848.256
  23654333.951    -3751947.99649  -2911167.57645  23654333.746    23654342.748
  24124105.333    -2678311.41449  -2066561.80145  24124104.930    24124118.671
  22114168.671     2596901.18649   2016505.34847  22114167.860    22114176.686
 03  4 22 19 15  0.0000000  0  9G 5G30G26G21G 6G17G29G18G10
  24114815.469     5227232.11649   4057230.84545  24114815.110    24114828.996
  21799958.748     3325588.60149   2580894.40647  21799958.992    21799967.527
  23624343.369    -5097276.33049  -3950171.62245  23624343.288    23624354.090
  21749256.257    -5088858.75349  -3956085.28047  21749255.804    21749262.657
  20408558.495    -3346036.61649  -2602739.48548  20408558.309    20408565.491
  21539062.317    -4418635.90249  -3434668.82547  21539061.738    21539070.436
  23643992.451    -3806291.70249  -2953513.26845  23643992.325    23644001.398
  24103296.604    -2787660.48849  -2151768.62245  24103296.366    24103309.816
  22129190.173     2675839.43549   2078015.63847  22129189.351    22129198.188
 03  4 22 19 15 30.0000000  0  9G 5G30G26G21G 6G17G29G18G10
  24135372.080     5335255.91249   4141404.86745  24135371.789    24135385.512
  21816600.683     3413042.22849   2649039.96747  21816600.892    21816609.546
  23607916.017    -5183602.35949  -4017438.52545  23607915.840    23607926.738
  21739472.160    -5140274.77849  -3996149.68547  21739471.647    21739478.462
  20404620.611    -3366730.85649  -2618864.87748  20404620.405    20404627.535
  21531326.528    -4459287.73549  -3466345.55547  21531325.913    21531334.632
  23633712.422    -3860311.93249  -2995606.90445  23633712.412    23633721.710
  24082508.995    -2896898.94549  -2236889.27945  24082508.716    24082522.169
  22144286.838     2755172.91349   2139833.88647  22144286.020    22144294.717
 03  4 22 19 16  0.0000000  0  9G 5G30G26G21G 6G17G29G18G10
  24155933.258     5443301.55049   4225595.89645  24155932.775    24155946.205
  21833304.084     3500818.89349   2717437.24647  21833304.307    21833313.021
  23591520.501    -5269760.36949  -4084574.48445  23591520.491    23591531.318
  21729730.246    -5191468.67249  -4036041.00447  21729729.711    21729736.592
  20400748.781    -3387077.53149  -2634719.43448  20400748.566    20400755.695
  21523632.661    -4499718.92449  -3497850.35747  21523632.090    21523640.806
  23623494.710    -3914006.38249  -3037446.68045  23623494.605    23623503.935
  24061742.868    -3006024.64749  -2321922.04245  24061742.563    24061756.033
  22159458.210     2834898.92049   2201958.01047  22159457.387    22159466.006
 03  4 22 19 16 30.0000000  0  9G 5G30G26G21G 6G17G29G18G10
  24176497.958     5551366.24449   4309801.77045  24176497.299    24176510.640
  21850068.557     3588915.68649   2786083.96447  21850068.692    21850077.451
  23575157.473    -5355747.09649  -4151577.00745  23575157.529    23575168.420
  21720030.568    -5242440.52149  -4075759.30447  21720030.046    21720036.987
  20396943.339    -3407075.18349  -2650302.02448  20396943.130    20396950.339
  21515980.757    -4539929.92849  -3529183.58647  21515980.197    21515988.864
  23613339.474    -3967372.49149  -3079030.59945  23613339.305    23613348.665
  24040998.563    -3115035.51349  -2406865.37145  24040998.324    24041011.680
  22174703.763     2915014.41949   2264385.61847  22174702.933    22174711.559
 03  4 22 19 17  0.0000000  0  9G 5G30G26G21G 6G17G29G18G10
  24197065.772     5659447.88149   4394020.85645  24197065.080    24197078.297
  21866893.269     3677329.99149   2854978.10047  21866893.415    21866902.267
  23558827.593    -5441558.67749  -4218443.04645  23558827.674    23558838.762
  21710373.175    -5293190.53949  -4115304.74647  21710372.662    21710379.523
  20393204.685    -3426722.03249  -2665611.26548  20393204.498    20393211.719
  21508370.686    -4579921.11549  -3560345.53647  21508370.125    21508378.739
  23603247.168    -4020407.32949  -3120356.36945  23603247.032    23603256.277
  24020276.355    -3223929.01349  -2491717.21145  24020276.350    24020289.600
  22190022.836     2995516.83049   2327114.71947  22190022.037    22190030.727
 03  4 22 19 17 30.0000000  0  9G 5G30G26G21G 6G17G29G18G10
  24217635.957     5767543.90349   4478251.12645  24217635.308    24217648.633
  21883777.836     3766059.04549   2924117.48847  21883778.065    21883786.944
  23542532.259    -5527191.66849  -4285169.91945  23542532.334    23542543.371
  21700758.041    -5343718.34949  -4154677.03647  21700757.528    21700764.388
  20389533.095    -3446016.61349  -2680646.01148  20389532.890    20389540.074
  21500802.484    -4619692.57649  -3591336.26247  21500801.895    21500810.446
  23593218.507    -4073108.11149  -3161421.86445  23593218.365    23593227.546
  23999577.125    -3332702.88149  -2576475.88345  23999577.139    23999590.236
  22205415.101     3076403.39949   2390143.17947  22205414.341    22205422.917
 03  4 22 19 18  0.0000000  0  9G 5G30G26G21G 6G17G29G18G10
  24238208.335     5875651.19049   4562490.17245  24238207.758    24238221.217
  21900721.765     3855099.31349   2993499.38247  21900721.976    21900730.884
  23526271.554    -5612643.06449  -4351755.28245  23526271.461    23526282.526
  21691185.100    -5394024.54449  -4193876.64747  21691184.585    21691191.543
  20385928.679    -3464958.09849  -2695405.61348  20385928.446    20385935.662
  21493275.938    -4659244.82649  -3622156.17847  21493275.335    21493283.901
  23583253.554    -4125472.92149  -3202225.55445  23583253.444    23583262.796
  23978901.233    -3441355.39749  -2661139.95945  23978901.112    23978914.015
  22220879.967     3157670.84349   2453468.42247  22220879.165    22220887.629
 03  4 22 19 18 30.0000000  0  9G 5G30G26G21G 6G17G29G18G10
  24258782.482     5983767.49749   4646736.27445  24258781.925    24258795.592
  21917724.372     3944448.38849   3063121.90547  21917724.645    21917733.603
  23510045.917    -5697909.20749  -4418196.32045  23510045.934    23510057.048
  21681654.340    -5444109.00849  -4232903.47047  21681653.813    21681660.777
  20382391.782    -3483544.68149  -2709888.66948  20382391.564    20382398.768
  21485791.029    -4698578.42249  -3652805.72047  21485790.407    21485798.973
  23573353.284    -4177498.69649  -3242765.06345  23573353.237    23573362.707
  23958248.879    -3549884.10249  -2745707.58345  23958248.700    23958261.388
  22236416.762     3239316.71649   2517088.54546  22236415.890    22236424.371
 03  4 22 19 19  0.0000000  0 10G 5G30G26G21G 6G17G29G18G10G23
  24279358.006     6091890.38749   4730987.47845  24279357.311    24279371.191
  21934785.325     4034103.50149   3132982.89547  21934785.594    21934794.643
  23493856.320    -5782986.10949  -4484489.88245  23493856.272    23493867.262
  21672165.650    -5493971.89749  -4271757.63847  21672165.162    21672172.124
  20378922.781    -3501774.67149  -2724093.86148  20378922.555    20378929.738
  21478347.800    -4737693.06449  -3683284.65047  21478347.130    21478355.717
  23563518.063    -4229182.66749  -3283038.23945  23563518.146    23563527.536
  23937620.693    -3658286.44049  -2830176.72345  23937620.370    23937632.998
  22252024.732     3321338.27649   2581001.38646  22252023.954    22252032.701
                    -91817.10549    -59862.99743
 03  4 22 19 19 30.0000000  0 10G 5G30G26G21G 6G17G29G18G10G23
  24299934.196     6200017.76249   4815242.17045  24299933.425    24299947.554
  21951903.901     4124062.12849   3203080.39747  21951904.243    21951913.378
  23477703.417    -5867870.00149  -4550633.05545  23477703.344    23477714.139
  21662719.333    -5543612.85849  -4310438.87747  21662718.812    21662725.800
  20375521.940    -3519646.25849  -2738019.77448  20375521.690    20375528.910
  21470946.122    -4776589.06749  -3713593.20247  21470945.454    21470954.038
  23553748.415    -4280521.79049  -3323042.70145  23553748.568    23553757.888
  23917016.916    -3766559.68449  -2914545.30345  23917016.464    23917029.234
  22267703.804     3403733.06149   2645205.07546  22267703.120    22267711.960
                   -197091.28949   -141894.07443
 03  4 22 19 20  0.0000000  0 11G 5G30G26G15G21G 6G17G29G18G10G23
  24320510.406     6308146.56649   4899497.98945  24320509.672    24320524.059
  21969079.845     4214321.00349   3273411.83847  21969080.162    21969089.204
  23461587.717    -5952557.80149  -4616623.42645  23461587.731    23461598.596
                   -281732.89849   -205833.06144                  24040958.725
  21653315.107    -5593032.58749  -4348947.74047  21653314.552    21653321.546
  20372189.437    -3537158.54549  -2751665.72048  20372189.217    20372196.410
  21463585.749    -4815267.30049  -3743732.07047  21463585.139    21463593.828
  23544045.209    -4331513.95849  -3362776.79145  23544045.267    23544054.338
  23896438.000    -3874702.10049  -2998811.93745  23896437.401    23896450.269
  22283453.473     3486497.82249   2709697.04747  22283452.806    22283461.654
                   -302218.25749   -223811.04743
 03  4 22 19 20 30.0000000  0 11G 5G30G26G15G21G 6G17G29G18G10G23
  24341086.148     6416273.38949   4983752.25345  24341085.557    24341100.500
  21986312.081     4304876.37449   3343974.32547  21986312.393    21986321.356
  23445509.705    -6037047.07649  -4682459.09445  23445509.802    23445520.779
  24025593.763     -362392.26749   -268684.43045  24025595.336    24025609.486
  21643952.701    -5642231.97949  -4387284.90647  21643952.194    21643959.146
  20368925.482    -3554310.91449  -2765031.21148  20368925.276    20368932.411
  21456266.767    -4853728.73149  -3773701.99747  21456266.176    21456274.962
  23534407.792    -4382157.46349  -3402239.22245  23534407.979    23534417.117
  23875884.204    -3982712.43049  -3082975.64245  23875883.580    23875896.315
  22299273.027     3569628.95149   2774474.49847  22299272.275    22299281.138
  23998095.041     -407196.67149   -305612.17745  23998096.513    23998110.460
 03  4 22 19 21  0.0000000  0 11G 5G30G26G15G21G 6G17G29G18G10G23
  24361660.527     6524392.12849   5068000.22245  24361659.993    24361675.132
  22003599.377     4395721.57649   3414762.65247  22003599.735    22003608.677
  23429469.643    -6121337.82849  -4748140.08045  23429469.775    23429480.696
  24010269.689     -442929.44949   -331440.59245  24010270.636    24010283.875
  21634631.601    -5691214.90349  -4425453.39347  21634631.077    21634637.993
  20365729.550    -3571105.65149  -2778118.02848  20365729.339    20365736.510
  21448988.357    -4891977.28849  -3803506.05547  21448987.775    21448996.485
  23524836.904    -4432453.43449  -3441430.83045  23524837.064    23524846.174
  23855355.371    -4090592.02849  -3167037.48345  23855354.702    23855367.281
  22315161.179     3653119.98249   2839532.38747  22315160.276    22315169.031
  23978146.120     -512028.00049   -387298.68245  23978146.764    23978161.627
 03  4 22 19 21 30.0000000  0 11G 5G30G26G15G21G 6G17G29G18G10G23
  24382233.097     6632501.58449   5152240.97345  24382232.841    24382248.117
  22020941.659     4486855.02549   3485775.57547  22020941.949    22020950.862
  23413468.253    -6205425.14549  -4813662.54145  23413468.443    23413479.368
  23994968.429     -523342.94949   -394100.34945  23994969.169    23994981.267
  21625351.906    -5739980.21849  -4463452.31147  21625351.341    21625358.253
  20362602.194    -3587540.04149  -2790924.05348  20362601.984    20362609.213
  21441750.635    -4930011.96249  -3833143.45847  21441750.045    21441758.654
  23515332.963    -4482398.03749  -3480348.65746  23515332.964    23515342.046
  23834852.055    -4198337.31249  -3250994.64945  23834851.425    23834863.646
  22331117.398     3736969.32149   2904869.48046  22331116.430    22331125.034
  23958226.529     -616708.68049   -468867.79745  23958226.505    23958241.605
 03  4 22 19 22  0.0000000  0 11G 5G30G26G15G21G 6G17G29G18G10G23
  24402804.237     6740602.53149   5236475.04845  24402803.999    24402819.372
  22038338.847     4578277.23949   3557013.50647  22038339.135    22038348.031
  23397506.908    -6289302.24249  -4879021.20645  23397507.133    23397518.215
  23979690.583     -603629.38449   -456661.07945  23979690.636    23979702.865
  21616114.237    -5788524.68949  -4501279.14547  21616113.656    21616120.498
  20359544.304    -3603609.23949  -2803445.51048  20359544.101    20359551.373
  21434554.102    -4967829.96649  -3862612.02047  21434553.517    21434562.089
  23505896.962    -4531985.48149  -3518988.17046  23505896.906    23505905.874
  23814375.187    -4305942.91349  -3334842.96845  23814374.632    23814386.854
  22347141.737     3821177.54849   2970486.24246  22347140.816    22347149.330
  23938336.316     -721233.09349   -550315.18245  23938336.155    23938351.348
 03  4 22 19 22 30.0000000  0 11G 5G30G26G15G21G 6G17G29G18G10G23
  24423374.150     6848695.07449   5320702.60045  24423373.838    24423389.081
  22055790.905     4669988.03449   3628476.31647  22055791.213    22055800.102
  23381586.979    -6372962.70249  -4944211.05745  23381587.114    23381597.982
  23964437.318     -683785.63049   -519120.36345  23964437.235    23964449.566
  21606919.115    -5836845.76449  -4538931.90247  21606918.492    21606925.238
  20356556.762    -3619309.17849  -2815679.24548  20356556.559    20356563.756
  21427399.371    -5005428.72149  -3891909.73647  21427398.721    21427407.321
  23496529.665    -4581210.31849  -3557345.14846  23496529.541    23496538.801
  23793925.837    -4413403.63249  -3418578.41145  23793925.319    23793937.530
  22363234.339     3905744.62649   3036382.62546  22363233.406    22363241.821
  23918476.464     -825596.10149   -631636.77145  23918476.074    23918491.650
 03  4 22 19 23  0.0000000  0 11G 5G30G26G15G21G 6G17G29G18G10G23
  24443941.554     6956776.59149   5404921.54545  24443941.381    24443956.737
  22073297.356     4761984.14149   3700161.44547  22073297.624    22073306.499
  23365708.524    -6456403.50849  -5009229.74645  23365708.756    23365719.590
  23949209.135     -763811.68649   -581478.20845  23949208.788    23949221.132
  21597766.345    -5884943.70749  -4576410.79247  21597765.718    21597772.472
  20353639.707    -3634638.69549  -2827624.33248  20353639.488    20353646.605
  21420286.100    -5042808.78249  -3921037.04447  21420285.525    21420294.107
  23487231.905    -4630070.39249  -3595417.88145  23487231.648    23487240.989
  23773504.495    -4520717.60549  -3502199.48045  23773503.967    23773516.223
  22379394.776     3990667.34249   3102556.12546  22379393.768    22379402.066
  23898647.792     -929795.68349   -712831.01145  23898647.501    23898662.855
 03  4 22 19 23 30.0000000  0 11G 5G30G26G15G21G 6G17G29G18G10G23
  24464506.141     7064843.74749   5489129.29545  24464506.154    24464521.806
  22090857.381     4854261.77249   3772065.94047  22090857.607    22090866.505
  23349872.564    -6539621.88649  -5074075.12245  23349872.750    23349883.597
  23934005.183     -843708.42449   -643735.30245  23934004.804    23934017.116
  21588655.770    -5932819.64049  -4613716.69147  21588655.225    21588661.978
  20350793.256    -3649597.17749  -2839280.30348  20350793.019    20350800.123
  21413214.324    -5079971.55349  -3949995.02347  21413213.711    21413222.266
  23478003.849    -4678564.05849  -3633205.09146  23478003.557    23478013.017
  23753111.278    -4627883.36749  -3585705.08645  23753110.714    23753123.215
  22395621.952     4075941.80549   3169003.71046  22395621.004    22395629.339
  23878850.521    -1033830.46049   -793896.85045  23878850.226    23878865.534
 03  4 22 19 24  0.0000000  0 11G 5G30G26G15G21G 6G17G29G18G10G23
  24485067.427     7172893.70549   5573323.62545  24485067.511    24485083.623
  22108470.462     4946817.79849   3844187.35847  22108470.624    22108479.539
  23334079.372    -6622614.65949  -5138744.70145  23334079.553    23334090.396
  23918825.776     -923476.02749   -705891.75845  23918825.431    23918837.765
  21579587.453    -5980474.22049  -4650850.10347  21579586.863    21579593.618
  20348017.532    -3664183.58549  -2850646.34548  20348017.301    20348024.448
  21406183.575    -5116917.59849  -3978784.13547  21406183.008    21406191.645
  23468845.800    -4726689.00249  -3670705.00646  23468845.656    23468855.180
  23732746.503    -4734899.08749  -3669093.77145  23732745.982    23732758.654
  22411915.532     4161565.26449   3235723.23946  22411914.604    22411922.980
  23859085.065    -1137698.67749   -874832.90245  23859084.619    23859099.909
 03  4 22 19 24 30.0000000  0 11G 5G30G26G15G21G 6G17G29G18G10G23
  24505624.862     7280922.95849   5657501.84345  24505624.958    24505641.341
  22126135.690     5039648.38549   3916522.72247  22126135.835    22126144.806
  23318329.604    -6705379.20849  -5203236.44745  23318329.776    23318340.583
  23903671.060    -1003115.16549   -767948.09845  23903670.583    23903682.857
  21570561.071    -6027908.17849  -4687811.61147  21570560.452    21570567.216
  20345312.646    -3678397.53549  -2861722.15448  20345312.423    20345319.621
  21399193.988    -5153647.85149  -4007405.09147  21399193.467    21399202.048
  23459758.662    -4774443.43349  -3707916.19646  23459758.427    23459767.863
  23712410.439    -4841763.44849  -3752364.50645  23712410.091    23712422.871
  22428274.803     4247533.89449   3302711.72846  22428273.879    22428282.334
  23839351.554    -1241399.04249   -955638.13245  23839351.111    23839366.199
 03  4 22 19 25  0.0000000  0 11G 5G30G26G15G21G 6G17G29G18G10G23
  24526178.135     7388928.47349   5741661.55345  24526178.189    24526194.678
  22143852.355     5132749.96349   3989069.24747  22143852.570    22143861.598
  23302623.997    -6787912.59849  -5267548.07045  23302624.249    23302634.984
  23888540.580    -1082626.20349   -829904.62545  23888540.008    23888552.179
  21561576.422    -6075122.15049  -4724601.69347  21561575.912    21561582.679
  20342678.860    -3692238.19249  -2872507.09448  20342678.637    20342685.811
  21392245.314    -5190163.69649  -4035858.97847  21392244.717    21392253.242
  23450742.191    -4821825.89849  -3744837.55546  23450741.929    23450751.289
  23692103.452    -4948474.94249  -3835516.12745  23692103.339    23692116.071
  22444699.117     4333844.08049   3369966.37246  22444698.198    22444706.686
  23819650.435    -1344929.84749  -1036311.26045  23819649.890    23819664.804
 03  4 22 19 25 30.0000000  0 11G 5G30G26G15G21G 6G17G29G18G10G23
  24546726.816     7496908.00849   5825801.01145  24546726.374    24546743.020
  22161620.176     5226119.96149   4061824.94247  22161620.409    22161629.568
  23286963.409    -6870211.12349  -5331676.67645  23286963.430    23286973.995
  23873434.629    -1162008.67649   -891760.95745  23873433.986    23873446.210
  21552633.665    -6122116.53749  -4761220.67147  21552633.133    21552639.961
  20340116.411    -3705703.84549  -2882999.81748  20340116.191    20340123.365
  21385337.337    -5226465.05849  -4064145.74447  21385336.759    21385345.322
  23441797.063    -4868833.45449  -3781466.76746  23441796.722    23441805.780
  23671826.269    -5055030.95949  -3918546.59545  23671826.196    23671838.916
  22461187.943     4420493.27149   3437485.17846  22461187.074    22461195.551
  23799982.169    -1448288.45649  -1116850.19445  23799981.416    23799996.136
 03  4 22 19 26  0.0000000  0 11G 5G30G26G15G21G 6G17G29G18G10G23
  24567269.650     7604858.90449   5909918.14945  24567269.112    24567285.860
  22179438.649     5319755.22749   4134787.32447  22179438.763    22179447.953
  23271347.684    -6952271.30849  -5395619.55545  23271347.791    23271358.396
  23858353.065    -1241262.62649   -953517.18545  23858352.267    23858364.605
  21543732.681    -6168891.29149  -4797668.50847  21543732.155    21543738.983
  20337625.549    -3718793.31449  -2893199.41648  20337625.365    20337632.521
  21378470.144    -5262552.63849  -4092265.91547  21378469.534    21378478.051
  23432923.346    -4915463.90649  -3817802.14146  23432923.065    23432932.180
  23651579.394    -5161429.37549  -4001454.25745  23651579.183    23651591.771
  22477740.680     4507478.47649   3505265.80446  22477739.834    22477748.337
  23780346.765    -1551472.78349  -1197253.33545  23780345.920    23780360.642
 03  4 22 19 26 30.0000000  0 11G 5G30G26G15G21G 6G17G29G18G10G23
  24587806.445     7712779.85549   5994011.98045  24587806.095    24587822.836
  22197307.118     5413653.69649   4207954.79747  22197307.224    22197316.370
  23255778.180    -7034088.78349  -5459373.30745  23255778.200    23255788.838
  23843295.978    -1320387.01049  -1015172.44045  23843295.360    23843307.690
  21534873.688    -6215445.60949  -4833944.57647  21534873.187    21534879.888
  20335206.729    -3731504.45149  -2903104.21348  20335206.500    20335213.691
  21371643.633    -5298425.78249  -4120218.99947  21371643.049    21371651.609
  23424122.224    -4961713.87549  -3853841.03746  23424121.928    23424131.089
  23631362.932    -5267667.22549  -4084236.80845  23631362.718    23631375.310
  22494356.984     4594797.82449   3573306.80146  22494356.141    22494364.715
  23760744.910    -1654479.65249  -1277518.18445  23760744.140    23760758.917
 03  4 22 19 27  0.0000000  0 11G 5G30G26G15G21G 6G17G29G18G10G23
  24608336.947     7820667.47249   6078079.80445  24608336.642    24608353.437
  22215224.790     5507811.61649   4281324.44947  22215224.940    22215234.119
  23240255.441    -7115660.66049  -5522935.70045  23240255.476    23240266.193
  23828263.551    -1399382.37749  -1076727.16045  23828262.987    23828275.261
  21526056.466    -6261780.56249  -4870049.71547  21526055.952    21526062.656
  20332859.975    -3743836.52649  -2912713.63148  20332859.764    20332867.010
  21364857.794    -5334085.37549  -4148005.69047  21364857.257    21364865.818
  23415393.900    -5007581.56049  -3889582.04546  23415393.550    23415402.816
  23611177.426    -5373742.74249  -4166892.87545  23611177.183    23611189.655
  22511036.284     4682447.68849   3641605.34746  22511035.434    22511044.019
  23741177.115    -1757307.74649  -1357643.72445  23741176.346    23741191.149
 03  4 22 19 27 30.0000000  0 11G 5G30G26G15G21G 6G17G29G18G10G23
  24628861.007     7928519.11249   6162119.61445  24628860.663    24628877.308
  22233191.284     5602226.00649   4354893.94347  22233191.451    22233200.722
  23224779.889    -7196983.72349  -5586304.20445  23224779.970    23224790.644
  23813255.626    -1478248.85749  -1138181.45445  23813255.027    23813267.256
  21517280.887    -6307896.27449  -4905984.01047  21517280.387    21517287.147
  20330585.660    -3755788.39549  -2922026.78848  20330585.458    20330592.627
  21358112.592    -5369532.20249  -4175626.58147  21358111.997    21358120.493
  23406738.699    -5053064.95549  -3925023.61846  23406738.432    23406747.447
  23591023.128    -5479654.13949  -4249421.05445  23591022.845    23591035.153
  22527777.879     4770425.30549   3710159.29346  22527777.094    22527785.749
  23721643.786    -1859955.03449  -1437628.38745  23721643.029    23721657.616
 03  4 22 19 28  0.0000000  0 11G 5G30G26G15G21G 6G17G29G18G10G23
  24649377.752     8036332.41749   6246129.52545  24649377.130    24649393.588
  22251206.126     5696894.16649   4428661.17247  22251206.350    22251215.698
  23209352.412    -7278054.16949  -5649475.87445  23209352.580    23209363.158
  23798272.101    -1556985.97049  -1199534.94145  23798271.461    23798283.905
  21508547.062    -6353792.81049  -4941747.51347  21508546.533    21508553.243
  20328383.991    -3767358.27149  -2931042.29048  20328383.803    20328390.940
  21351407.742    -5404766.14949  -4203081.58847  21351407.178    21351415.665
  23398157.243    -5098161.19149  -3960163.49346  23398156.953    23398165.916
  23570900.533    -5585398.88449  -4331819.36346  23570900.265    23570912.360
  22544581.388     4858727.76749   3778966.35946  22544580.571    22544589.237
  23702145.214    -1962419.01049  -1517470.22845  23702144.558    23702159.125
 03  4 22 19 28 30.0000000  0 11G 5G30G26G15G21G 6G17G29G18G10G23
  24669886.623     8144105.07949   6330107.71845  24669886.053    24669902.193
  22269268.688     5791813.07649   4502623.80847  22269268.866    22269278.380
  23193973.786    -7358868.39449  -5712447.89845  23193973.986    23193984.501
  23783313.518    -1635593.55449  -1260787.49045  23783312.965    23783325.360
  21499854.858    -6399470.51549  -4977340.50247  21499854.350    21499861.027
  20326255.255    -3778544.96949  -2939759.21248  20326255.066    20326262.220
  21344743.351    -5439787.71749  -4230371.10647  21344742.772    21344751.347
  23389649.663    -5142867.85249  -3994999.81346  23389649.453    23389658.594
  23550810.127    -5690974.94749  -4414086.24746  23550809.764    23550821.519
  22561446.126     4947352.25649   3848024.34946  22561445.316    22561453.915
  23682681.974    -2064697.41249  -1597167.44645  23682681.331    23682695.975
 03  4 22 19 29  0.0000000  0 11G 5G30G26G15G21G 6G17G29G18G10G23
  24690387.431     8251834.49549   6414052.32645  24690386.661    24690402.678
  22287378.310     5886979.79949   4576779.52847  22287378.599    22287388.267
  23178644.859    -7439423.13049  -5775217.71245  23178645.067    23178655.278
  23768379.853    -1714071.72549  -1321939.19345  23768379.264    23768391.294
  21491204.302    -6444929.52349  -5012763.08647  21491203.779    21491210.477
  20324199.627    -3789347.27149  -2948176.60148  20324199.449    20324206.580
  21338119.323    -5474597.46849  -4257495.57447  21338118.748    21338127.332
  23381216.824    -5187182.81049  -4029530.89546  23381216.601    23381225.731
  23530752.195    -5796380.12149  -4496219.96046  23530751.780    23530763.384
  22578371.375     5036295.72049   3917330.89646  22578370.609    22578379.287
  23663254.754    -2166788.07149  -1676718.38445  23663253.981    23663268.539
 03  4 22 19 29 30.0000000  0 11G 5G30G26G15G21G 6G17G29G18G10G23
  24710879.056     8359518.14349   6497961.17345  24710878.404    24710894.662
  22305534.693     5982391.30049   4651125.98146  22305534.909    22305544.530
  23163366.026    -7519714.69549  -5837782.45845  23163366.106    23163376.176
  23753470.663    -1792420.28349  -1382989.88545  23753469.965    23753481.741
  21482595.330    -6490169.78949  -5048015.22747  21482594.809    21482601.501
  20322217.441    -3799763.94549  -2956293.50748  20322217.252    20322224.390
  21331535.533    -5509195.59649  -4284455.14447  21331534.936    21331543.432
  23372858.881    -5231103.73249  -4063754.96746  23372858.756    23372867.862
  23510727.075    -5901612.14349  -4578218.76246  23510726.603    23510738.196
  22595356.900     5125555.45649   3986883.87646  22595356.200    22595364.918
  23643863.653    -2268688.90449  -1756121.41145  23643862.665    23643877.233
 03  4 22 19 30  0.0000000  0 11G 5G30G26G15G21G 6G17G29G18G10G23
  24731361.517     8467153.81949   6581832.65045  24731361.163    24731377.122
  22323737.093     6078044.73049   4725660.95546  22323737.298    22323746.858
  23148137.803    -7599739.61149  -5900139.42745  23148137.868    23148147.808
  23738586.151    -1870638.75849  -1443939.23345  23738585.479    23738597.242
  21474028.007    -6535191.35449  -5083096.93947  21474027.490    21474034.138
  20320308.862    -3809793.46249  -2964108.73048  20320308.663    20320315.840
  21324991.920    -5543582.43149  -4311250.06747  21324991.346    21324999.796
  23364576.564    -5274628.01149  -4097669.93346  23364576.330    23364585.453
  23490735.373    -6006668.81849  -4660080.91146  23490734.943    23490746.540
  22612402.162     5215128.85549   4056681.26746  22612401.420    22612410.256
  23624508.787    -2370397.45249  -1835374.58845  23624507.974    23624522.446
 03  4 22 19 30 30.0000000  0 11G 5G30G26G15G21G 6G17G29G18G10G23
  24751834.434     8574738.94749   6665664.80245  24751834.122    24751850.336
  22341984.775     6173937.01149   4800382.05546  22341985.065    22341994.662
  23132961.001    -7679494.46849  -5962285.95045  23132960.934    23132970.773
  23723726.202    -1948727.22349  -1504787.27245  23723725.458    23723737.618
  21465502.179    -6579994.55249  -5118008.49447  21465501.682    21465508.416
  20318474.181    -3819434.69649  -2971621.39248  20318473.973    20318481.178
  21318488.492    -5577758.26049  -4337880.56747  21318487.898    21318496.384
  23356369.848    -5317753.62949  -4131274.26546  23356369.672    23356378.842
  23470777.298    -6111548.12849  -4741804.88546  23470776.949    23470788.592
  22629506.630     5305012.87549   4126720.71046  22629505.849    22629514.638
  23605190.936    -2471911.94349  -1914476.55645  23605190.198    23605204.578
 03  4 22 19 31  0.0000000  0 11G 5G30G26G15G21G 6G17G29G18G10G23
  24772297.272     8682271.58949   6749456.02745  24772297.075    24772313.900
  22360277.791     6270065.90649   4875287.50146  22360277.991    22360287.557
  23117836.275    -7758975.13549  -6024218.84046  23117836.215    23117846.016
  23708890.835    -2026684.94149  -1565533.45745  23708890.237    23708902.555
  21457018.069    -6624578.72849  -5152749.39047  21457017.566    21457024.378
  20316713.819    -3828685.54549  -2978829.85948  20316713.642    20316720.862
  21312025.185    -5611722.81949  -4364346.44847  21312024.613    21312033.200
  23348239.672    -5360477.32949  -4164565.41446  23348239.511    23348248.824
  23450853.457    -6216247.09649  -4823388.31046  23450853.153    23450864.888
  22646669.817     5395205.26149   4197000.43446  22646668.997    22646677.702
  23585910.704    -2573229.35749  -1993424.97945  23585909.915    23585924.232
 03  4 22 19 31 30.0000000  0 11G 5G30G26G15G21G 6G17G29G18G10G23
  24792749.631     8789749.28149   6833204.40945  24792749.726    24792766.476
  22378615.120     6366428.11349   4950374.75246  22378615.346    22378624.803
  23102764.308    -7838178.23949  -6085935.42346  23102764.209    23102774.150
  23694080.880    -2104512.06949  -1626177.86445  23694080.209    23694092.218
  21448575.535    -6668944.80449  -5187320.34347  21448575.000    21448581.839
  20315027.932    -3837545.10149  -2985733.42448  20315027.759    20315034.965
  21305602.015    -5645476.83549  -4390648.26347  21305601.419    21305609.968
  23340186.144    -5402797.17849  -4197541.90146  23340186.155    23340195.624
  23430964.607    -6320763.69549  -4904829.65846  23430964.162    23430975.825
  22663891.107     5485702.80249   4267517.95746  22663890.215    22663898.774
  23566668.107    -2674347.89849  -2072218.43045  23566667.426    23566681.745
 03  4 22 19 32  0.0000000  0 11G 5G30G26G15G21G 6G17G29G18G10G23
  24813191.459     8897168.91849   6916907.57345  24813191.433    24813208.293
  22396995.949     6463019.78549   5025640.80746  22396996.262    22397005.695
  23087745.632    -7917101.18149  -6147433.73846  23087745.537    23087755.560
  23679295.770    -2182209.18749  -1686720.94545  23679295.075    23679306.962
  21440174.309    -6713093.43049  -5221721.84647  21440173.787    21440180.577
  20313416.646    -3846012.80549  -2992331.65048  20313416.435    20313423.644
  21299218.721    -5679021.22449  -4416786.73747  21299218.138    21299226.644
  23332210.119    -5444711.84349  -4230202.61446  23332210.017    23332219.359
  23411110.688    -6425096.63449  -4986127.89146  23411110.136    23411121.724
  22681169.712     5576501.95649   4338270.49146  22681168.813    22681177.299
  23547463.772    -2775266.00449  -2150855.71245  23547463.160    23547477.301
 03  4 22 19 32 30.0000000  0 10G30G26G15G21G 6G17G29G18G10G23
  22415420.447     6559840.12449   5101085.05646  22415420.667    22415430.180
  23072781.433    -7995738.55949  -6208709.51546  23072781.266    23072791.345
  23664535.402    -2259774.26449  -1747161.15645  23664534.833    23664546.703
  21431814.775    -6757022.88649  -5255952.56647  21431814.234    21431820.972
  20311880.411    -3854085.49349  -2998622.06448  20311880.258    20311887.526
  21292875.634    -5712354.50749  -4442760.71147  21292875.029    21292883.545
  23324312.017    -5486216.89849  -4262544.16746  23324311.876    23324321.015
  23391292.694    -6529242.01749  -5067279.96346  23391291.985    23391303.306
  22698505.557     5667601.81149   4409257.34546  22698504.652    22698512.993
  23528298.385    -2875979.70049  -2229333.71045  23528297.859    23528311.987
 03  4 22 19 33  0.0000000  0 10G30G26G15G21G 6G17G29G18G10G23
  22433887.406     6656884.26949   5176703.68646  22433887.692    22433897.295
  23057871.863    -8074088.59549  -6269761.38746  23057871.747    23057881.712
  23649800.145    -2337208.81649  -1807499.66745  23649799.465    23649811.411
  21423496.516    -6800735.11649  -5290014.02347  21423496.012    21423502.783
  20310419.323    -3861763.73849  -3004605.12148  20310419.139    20310426.456
  21286572.260    -5745478.63349  -4468571.70547  21286571.663    21286580.198
  23316491.745    -5527311.98649  -4294566.28246  23316491.669    23316500.842
  23371510.188    -6633199.25449  -5148285.44046  23371509.431    23371520.758
  22715897.732     5758997.98549   4480475.09746  22715896.802    22715905.111
  23509172.178    -2976488.44749  -2307652.02545  23509171.539    23509185.502
 03  4 22 19 33 30.0000000  0 10G30G26G15G21G 6G17G29G18G10G23
  22452396.359     6754149.07149   5252494.25846  22452396.669    22452406.464
  23043017.579    -8152147.94249  -6330586.75146  23043017.561    23043027.384
  23635089.315    -2414512.96849  -1867736.56345  23635088.759    23635100.964
  21415219.629    -6844230.53549  -5323906.54947  21415219.122    21415225.901
  20309033.520    -3869046.26849  -3010279.83348  20309033.329    20309040.610
  21280308.596    -5778394.27049  -4494220.24047  21280308.049    21280316.513
  23308749.891    -5567994.88949  -4326267.20546  23308749.948    23308759.083
  23351763.763    -6736966.37449  -5229142.75746  23351763.052    23351774.358
  22733345.740     5850687.41549   4551921.35446  22733344.773    22733353.132
  23490085.368    -3076790.34349  -2385809.12845  23490084.693    23490098.441
 03  4 22 19 34  0.0000000  0 10G30G26G15G21G 6G17G29G18G10G23
  22470946.867     6851632.25949   5328455.00846  22470947.177    22470957.171
  23028219.470    -8229912.79749  -6391182.65646  23028219.355    23028229.060
  23620403.535    -2491686.04649  -1927871.36345  23620403.135    23620415.243
  21406984.099    -6887508.56049  -5357629.66947  21406983.544    21406990.302
  20307723.331    -3875931.41749  -3015644.89648  20307723.136    20307730.386
  21274084.744    -5811101.27349  -4519706.20847  21274084.188    21274092.579
  23301087.324    -5608263.01049  -4357644.89346  23301087.293    23301096.136
  23332053.847    -6840540.57649  -5309849.76646  23332053.346    23332064.579
  22750849.095     5942667.84649   4623594.36646  22750848.096    22750856.574
  23471038.213    -3176882.85049  -2463803.10045  23471037.520    23471051.298
 03  4 22 19 34 30.0000000  0 10G30G26G15G21G 6G17G29G18G10G23
  22489538.339     6949330.32049   5404583.18546  22489538.656    22489548.726
  23013478.237    -8307379.63349  -6451546.31746  23013477.851    23013487.603
  23605743.127    -2568728.34149  -1987904.19045  23605742.654    23605754.171
  21398789.776    -6930569.70149  -5391183.77747  21398789.276    21398795.997
  20306488.972    -3882418.16549  -3020699.51648  20306488.770    20306496.063
  21267900.391    -5843600.35849  -4545030.16047  21267899.809    21267908.191
  23293503.888    -5648114.23349  -4388697.75946  23293503.813    23293512.592
  23312381.176    -6943920.10149  -5390405.08946  23312380.705    23312391.873
  22768407.092     6034935.81149   4695491.41846  22768406.140    22768414.655
  23452031.040    -3276764.02349  -2541632.38445  23452030.468    23452044.440
 03  4 22 19 35  0.0000000  0 11G30G26G15G21G 6G17G29G18G10G23G16
  22508170.253     7047240.43949   5480876.59546  22508170.488    22508180.470
  22998793.861    -8384545.19149  -6511675.22746  22998793.487    22998803.410
  23591107.425    -2645639.60449  -2047834.94245  23591106.917    23591118.170
  21390636.684    -6973414.29349  -5424569.15647  21390636.211    21390642.937
  20305330.565    -3888505.40449  -3025442.83248  20305330.372    20305337.640
  21261755.448    -5875892.03149  -4570192.48947  21261754.883    21261763.267
  23286000.195    -5687546.72749  -4419424.31946  23286000.018    23286008.800
  23292746.003    -7047102.81849  -5470807.02846  23292745.558    23292756.640
  22786019.456     6127488.58049   4767610.41846  22786018.477    22786026.779
  23433064.690    -3376431.67449  -2619295.30645  23433064.058    23433078.218
                   -290736.92249   -207267.76244                  24272656.951
 03  4 22 19 35 30.0000000  0 11G30G26G15G21G 6G17G29G18G10G23G16
  22526841.710     7145359.01349   5557332.43246  22526841.931    22526851.914
  22984167.161    -8461406.42349  -6571567.01746  22984166.982    22984177.135
  23576496.619    -2722420.17249  -2107663.83645  23576495.972    23576507.515
  21382524.846    -7016042.76049  -5457786.12247  21382524.336    21382531.053
  20304248.426    -3894192.42449  -3029874.29148  20304248.231    20304255.421
  21255649.879    -5907977.09149  -4595193.82747  21255649.320    21255657.667
  23278576.377    -5726558.32849  -4449822.94246  23278576.187    23278585.064
  23273148.504    -7150087.04549  -5551054.30446  23273148.135    23273159.193
  22803685.402     6220323.06349   4839948.92946  22803684.378    22803692.488
  23414139.285    -3475884.18249  -2696790.56545  23414138.778    23414153.014
  24257974.806     -367845.31749   -267352.16544  24257976.372    24257981.727
 03  4 22 19 36  0.0000000  0 11G30G26G15G21G 6G17G29G18G10G23G16
  22545552.456     7243683.07149   5633948.38346  22545552.579    22545562.515
  22969599.368    -8537959.93649  -6631219.00046  22969599.238    22969609.378
  23561910.483    -2799069.85249  -2167390.77645  23561909.869    23561921.548
  21374453.968    -7058455.49549  -5490834.99247  21374453.444    21374460.143
  20303242.677    -3899478.03549  -3033992.96148  20303242.478    20303249.622
  21249583.692    -5939855.39349  -4620034.05148  21249583.100    21249591.416
  23271233.338    -5765147.17949  -4479892.10846  23271233.091    23271241.641
  23253589.120    -7252870.74649  -5631145.33846  23253588.805    23253599.939
  22821404.229     6313436.16349   4912504.53446  22821403.231    22821411.481
  23395255.467    -3575119.50049  -2774116.58745  23395254.823    23395268.882
  24243374.622     -444574.35549   -327141.00345  24243375.631    24243383.491
 03  4 22 19 36 30.0000000  0 11G30G26G15G21G 6G17G29G18G10G23G16
  22564301.418     7342209.97349   5710722.41646  22564301.629    22564311.794
  22955091.183    -8614202.13749  -6690628.43046  22955090.991    22955100.921
  23547349.345    -2875588.69649  -2227015.74045  23547348.780    23547360.480
  21366424.115    -7100652.54549  -5523715.78747  21366423.563    21366430.207
  20302313.549    -3904360.85949  -3037797.77148  20302313.341    20302320.494
  21243556.714    -5971527.49049  -4644713.59548  21243556.082    21243564.429
  23263971.018    -5803310.79149  -4509629.95046  23263970.788    23263979.237
  23234068.551    -7355451.58649  -5711078.28346  23234068.150    23234079.334
  22839175.478     6406825.02249   4985274.99246  22839174.548    22839182.903
  23376413.260    -3674135.29049  -2851271.55145  23376412.627    23376426.509
  24228846.426     -520921.64449   -386632.36945  24228845.799    24228855.021
 03  4 22 19 37  0.0000000  0 11G30G26G15G21G 6G17G29G18G10G23G16
  22583088.772     7440937.64949   5787652.88146  22583089.003    22583099.312
  22940643.048    -8690128.42749  -6749791.69346  22940642.744    22940652.518
  23532813.382    -2951975.44749  -2286537.78345  23532812.683    23532824.485
  21358435.415    -7142632.84349  -5556427.69047  21358434.913    21358441.644
  20301461.486    -3908838.52249  -3041286.87348  20301461.311    20301468.432
  21237568.937    -6002992.77749  -4669231.99047  21237568.347    21237576.789
  23256790.192    -5841046.28149  -4539034.17746  23256789.930    23256798.408
  23214587.216    -7457826.19349  -5790850.54246  23214586.846    23214598.059
  22856998.969     6500488.12549   5058259.16746  22856998.070    22857006.496
  23357613.372    -3772928.37149  -2928252.98346  23357612.762    23357626.565
  24214391.193     -596883.65049   -445823.51144  24214390.776    24214400.126
 03  4 22 19 37 30.0000000  0 11G30G26G15G21G 6G17G29G18G10G23G16
  22601914.192     7539863.99549   5864738.15246  22601914.300    22601924.606
  22926255.656    -8765734.50749  -6808705.44946  22926255.433    22926265.087
  23518302.502    -3028229.26249  -2345956.23545  23518301.968    23518313.736
  21350488.181    -7184395.77649  -5588970.22147  21350487.715    21350494.433
  20300686.985    -3912909.00549  -3044458.69448  20300686.757    20300693.845
  21231620.744    -6034250.89249  -4693588.94847  21231620.155    21231628.543
  23249691.213    -5878350.38049  -4568102.26846  23249691.044    23249699.604
  23195145.778    -7559991.79949  -5870459.94546  23195145.235    23195156.490
  22874874.294     6594423.43049   5131455.45946  22874873.415    22874881.667
  23338856.419    -3871495.83049  -3005058.60146  23338855.937    23338869.548
  24200009.786     -672457.21349   -504711.99744  24200009.402    24200018.836
 03  4 22 19 38  0.0000000  0 11G30G26G15G21G 6G17G29G18G10G23G16
  22620776.587     7638985.31449   5941975.34546  22620776.742    22620786.953
  22911929.932    -8841017.60449  -6867367.50446  22911929.711    22911939.026
  23503817.207    -3104350.60449  -2405271.44945  23503816.696    23503828.233
  21342582.210    -7225942.12449  -5621343.97547  21342581.678    21342588.367
  20299989.958    -3916571.89849  -3047312.91048  20299989.720    20299996.826
  21225711.880    -6065302.49149  -4717784.98547  21225711.226    21225719.571
  23242674.785    -5915221.73549  -4596833.14946  23242674.701    23242683.180
  23175744.270    -7661946.92049  -5949905.34146  23175743.747    23175755.024
  22892800.693     6688627.17249   5204860.92646  22892799.854    22892808.027
  23320142.924    -3969836.30549  -3081687.33746  23320142.282    23320155.874
  24185702.916     -747640.85849   -563296.64744  24185702.375    24185712.084
 03  4 22 19 38 30.0000000  0 11G30G26G15G21G 6G17G29G18G10G23G16
  22639675.371     7738298.13449   6019361.74546  22639675.539    22639685.650
  22897665.932    -8915974.99049  -6925775.79346  22897665.826    22897674.871
  23489356.714    -3180339.88849  -2464483.77345  23489356.258    23489367.729
  21334717.179    -7267272.61849  -5653549.53747  21334716.663    21334723.450
  20299370.584    -3919826.68349  -3049849.12048  20299370.348    20299377.508
  21219841.970    -6096148.58649  -4741820.90247  21219841.379    21219849.756
  23235741.266    -5951658.82849  -4625225.65046  23235741.150    23235749.248
  23156382.894    -7763690.08549  -6029185.57946  23156382.431    23156393.810
  22910777.604     6783096.25349   5278473.13446  22910776.779    22910784.903
  23301472.550    -4067948.11749  -3158137.91546  23301471.997    23301485.831
  24171470.728     -822432.72549   -621576.02144  24171470.200    24171479.319
 03  4 22 19 39  0.0000000  0 11G30G26G15G21G 6G17G29G18G10G23G16
  22658610.068     7837799.76249   6096895.27846  22658610.190    22658620.282
  22883464.365    -8990602.94249  -6983927.35546  22883464.348    22883473.383
  23474921.683    -3256196.87749  -2523593.00946  23474921.131    23474932.698
  21326893.346    -7308387.19049  -5685586.84347  21326892.859    21326899.645
  20298829.154    -3922671.93749  -3052066.21748  20298828.923    20298836.120
  21214011.234    -6126789.15849  -4765696.65547  21214010.626    21214019.007
  23228890.670    -5987659.51449  -4653278.08146  23228890.434    23228898.547
  23137062.353    -7865219.13049  -6108298.95146  23137061.836    23137073.375
  22928804.647     6877828.06549   5352290.06546  22928803.769    22928811.833
  23282846.060    -4165829.12149  -3234408.64546  23282845.632    23282859.593
  24157313.318     -896830.41249   -679548.21544  24157313.180    24157321.780
 03  4 22 19 39 30.0000000  0 11G30G26G15G21G 6G17G29G18G10G23G16
  22677580.184     7937487.21849   6174573.61646  22677580.288    22677590.349
  22869326.301    -9064897.86349  -7041819.43246  22869326.375    22869335.489
  23460511.703    -3331921.18849  -2582598.91145  23460511.126    23460522.829
  21319110.572    -7349286.15349  -5717456.15347  21319110.027    21319116.770
  20298365.881    -3925106.33949  -3053963.16648  20298365.654    20298372.904
  21208219.445    -6157224.84449  -4789412.76147  21208218.836    21208227.304
  23222123.372    -6023221.59549  -4680988.75646  23222123.189    23222131.376
  23117783.043    -7966531.54649  -6187243.54646  23117782.602    23117794.083
  22946881.019     6972820.08249   5426309.76946  22946880.125    22946888.186
  23264264.187    -4263477.02649  -3310497.72146  23264263.716    23264277.592
  24143231.469     -970831.59549   -737211.44844  24143231.320    24143240.157
 03  4 22 19 40  0.0000000  0 11G30G26G15G21G 6G17G29G18G10G23G16
  22696585.015     8037357.55649   6252394.44546  22696585.121    22696595.235
  22855252.357    -9138856.30649  -7099449.29246  22855252.438    22855261.727
  23446126.770    -3407512.91849  -2641501.45545  23446126.335    23446138.169
  21311368.728    -7389969.51049  -5749157.45647  21311368.237    21311374.893
  20297981.037    -3927128.81349  -3055539.13648  20297980.840    20297988.067
  21202466.694    -6187455.61449  -4812969.19447  21202466.098    21202474.633
  23215439.869    -6058342.85449  -4708355.94146  23215439.716    23215448.041
  23098545.407    -8067625.34449  -6266017.76546  23098545.010    23098556.336
  22965006.370     7068069.24449   5500529.82946  22965005.457    22965013.601
  23245727.166    -4360889.87949  -3386403.65046  23245726.669    23245740.226
  24129225.154    -1044433.83749   -794563.79744  24129224.935    24129233.689
 03  4 22 19 40 30.0000000  0 11G30G26G15G21G 6G17G29G18G10G23G16
  22715624.112     8137408.11749   6330355.71846  22715624.261    22715634.466
  22841243.064    -9212474.59849  -7156814.11146  22841243.147    22841252.463
  23431767.468    -3482971.57049  -2700300.31545  23431767.075    23431778.575
  21303668.120    -7430437.04249  -5780690.58247  21303667.598    21303674.140
  20297674.913    -3928737.92249  -3056793.00548  20297674.692    20297681.874
  21196753.035    -6217481.20049  -4836365.75048  21196752.434    21196760.914
  23208840.784    -6093020.96849  -4735377.80946  23208840.654    23208849.052
  23079350.088    -8168497.83249  -6344619.56146  23079349.659    23079360.740
  22983180.136     7163572.95549   5574948.22946  22983179.216    22983187.555
  23227235.331    -4458065.26349  -3462124.53446  23227234.691    23227248.086
  24115295.278    -1117634.77249   -851603.49344  24115295.218    24115304.023
 03  4 22 19 41  0.0000000  0 11G30G26G15G21G 6G17G29G18G10G23G16
  22734696.815     8237635.26449   6408454.59546  22734697.006    22734707.245
  22827299.132    -9285750.05449  -7213911.77646  22827299.160    22827308.467
  23417433.371    -3558297.69049  -2758995.87345  23417432.908    23417444.381
  21296008.336    -7470689.76349  -5812056.32147  21296007.701    21296014.290
  20297447.455    -3929933.27749  -3057724.46748  20297447.220    20297454.405
  21191078.042    -6247303.42049  -4859603.83448  21191077.452    21191085.886
  23202326.259    -6127254.82149  -4762053.51446  23202326.164    23202334.588
  23060197.120    -8269147.68249  -6423047.85246  23060196.628    23060207.567
  23001401.731     7259327.74449   5649562.28446  23001400.772    23001409.273
  23208788.682    -4555001.92949  -3537659.39846  23208788.051    23208801.455
  24101442.274    -1190432.87849   -908329.29544  24101442.231    24101451.067
 03  4 22 19 41 30.0000000  0 11G30G26G15G21G 6G17G29G18G10G23G16
  22753802.688     8338035.65449   6486688.45146  22753802.819    22753813.061
  22813420.919    -9358679.39149  -7270739.76246  22813420.957    22813430.379
  23403124.542    -3633491.45049  -2817588.31445  23403123.954    23403135.294
  21288389.178    -7510728.07649  -5843254.98447  21288388.615    21288395.271
  20297298.892    -3930713.88049  -3058332.74248  20297298.663    20297305.882
  21185441.807    -6276922.34749  -4882683.50248  21185441.204    21185449.669
  23195896.802    -6161042.63549  -4788381.63746  23195896.615    23195904.974
  23041086.692    -8369573.27249  -6501301.40246  23041086.158    23041097.100
  23019670.595     7355330.85249   5724369.83246  23019669.634    23019678.265
  23190387.719    -4651697.95949  -3613006.77946  23190387.200    23190400.700
  24087666.501    -1262825.92249   -964739.51744  24087666.055    24087674.669
 03  4 22 19 42  0.0000000  0 11G30G26G15G21G 6G17G29G18G10G23G16
  22772941.011     8438607.03249   6565055.53546  22772941.091    22772951.452
  22799609.399    -9431258.82549  -7327295.09446  22799609.528    22799618.789
  23388840.698    -3708552.17949  -2876077.09845  23388840.333    23388851.624
  21280811.057    -7550551.52049  -5874286.21547  21280810.501    21280817.114
  20297229.565    -3931078.01849  -3058616.50348  20297229.370    20297236.564
  21179844.261    -6306337.73749  -4905604.57148  21179843.659    21179852.175
  23189552.537    -6194381.77649  -4814360.15746  23189552.307    23189560.667
  23022019.358    -8469771.90149  -6579378.09646  23022018.948    23022029.847
  23037986.208     7451579.98849   5799369.08446  23037985.205    23037994.030
  23172033.050    -4748150.86549  -3688164.70946  23172032.606    23172046.106
  24073968.126    -1334811.25948  -1020831.94644  24073967.559
 03  4 22 19 42 30.0000000  0 11G30G26G15G21G 6G17G29G18G10G23G16
  22792110.924     8539346.21649   6643553.40346  22792111.100    22792121.698
  22785865.378    -9503484.99449  -7383575.12846  22785865.364    22785874.584
  23374582.432    -3783479.83049  -2934462.17445  23374581.924    23374593.449
  21273273.830    -7590160.12749  -5905150.05347  21273273.269    21273279.808
  20297239.802    -3931024.81149  -3058575.05648  20297239.553    20297246.733
  21174285.329    -6335550.18249  -4928367.50048  21174284.728    21174293.211
  23183293.979    -6227270.44749  -4839987.65846  23183293.780    23183302.159
  23002995.520    -8569741.57549  -6657276.41246  23002995.158    23003006.086
  23056348.078     7548072.29849   5874557.83346  23056347.083    23056355.987
  23153725.211    -4844358.56249  -3763131.56046  23153724.740    23153738.216
  24060347.771    -1406386.76649  -1076604.98244  24060346.841
 03  4 22 19 43  0.0000000  0 11G30G26G15G21G 6G17G29G18G10G23G16
  22811312.228     8640250.55549   6722179.93446  22811312.517    22811323.353
  22772189.129    -9575354.14149  -7439576.99946  22772189.092    22772198.397
  23360349.312    -3858274.38649  -2992743.55245  23360348.787    23360360.458
  21265777.445    -7629554.03349  -5935846.59147  21265776.839    21265783.364
  20297329.511    -3930553.02549  -3058207.44348  20297329.281    20297336.548
  21168764.907    -6364560.28249  -4950972.76648  21168764.309    21168772.729
  23177121.517    -6259706.38549  -4865262.40146  23177121.382    23177129.738
  22984015.697    -8669480.12349  -6734994.60646  22984015.397    22984026.324
  23074755.745     7644804.97949   5949933.89946  23074754.720    23074763.577
  23135464.480    -4940318.73449  -3837905.55746  23135463.992    23135477.393
  24046805.823    -1477550.08748  -1132056.87844  24046804.963
 03  4 22 19 43 30.0000000  0 11G30G26G15G21G 6G17G29G18G10G23G16
  22830544.667     8741316.75249   6800932.59146  22830544.912    22830555.819
  22758581.211    -9646863.31949  -7495298.36446  22758581.222    22758590.761
  23346141.843    -3932936.10649  -3050921.41245  23346141.133    23346152.616
  21258321.690    -7668733.55649  -5966376.07247  21258321.141    21258327.816
  20297499.061    -3929661.77049  -3057512.97548  20297498.884    20297506.141
  21163283.023    -6393367.81849  -4973420.19248  21163282.415    21163290.847
  23171035.727    -6291688.03849  -4890183.14146  23171035.556    23171043.910
  22965080.231    -8768985.48449  -6812531.10446  22965080.006    22965090.856
  23093208.364     7741774.87449   6025494.79446  23093207.415    23093216.360
  23117251.155    -5036029.69949  -3912485.34846  23117250.731    23117264.063
  24033342.441    -1548299.22448  -1187186.01244  24033341.483
 03  4 22 19 44  0.0000000  0 11G30G26G15G21G 6G17G29G18G10G23G16
  22849807.435     8842542.02449   6879809.21746  22849807.597    22849818.569
  22745042.580    -9718009.12149  -7550736.55646  22745042.585    22745052.162
  23331959.358    -4007464.52849  -3108995.41046  23331958.741    23331970.302
  21250906.722    -7707698.97749  -5996738.71647  21250906.204    21250912.928
  20297748.744    -3928349.99449  -3056490.82948  20297748.561    20297755.796
  21157839.490    -6421973.55749  -4995710.36848  21157838.913    21157847.356
  23165036.488    -6323213.38449  -4914748.33246  23165036.409    23165044.908
  22946189.490    -8868255.76049  -6889884.41546  22946189.324    22946200.143
  23111705.601     7838979.50249   6101238.59746  23111704.750    23111713.928
  23099085.857    -5131489.42349  -3986869.36746  23099085.216    23099098.493
  24019958.631    -1618631.96449  -1241990.74244  24019958.896
 03  4 22 19 44 30.0000000  0 11G30G26G15G21G 6G17G29G18G10G23G16
  22869099.681     8943923.44949   6958807.49146  22869099.941    22869111.045
  22731573.663    -9788787.86949  -7605888.74346  22731573.689    22731583.321
  23317802.354    -4081859.45949  -3166965.38046  23317801.822    23317813.233
  21243532.601    -7746450.31849  -6026934.54547  21243532.089    21243538.780
  20298078.674    -3926616.42949  -3055140.01648  20298078.493    20298085.742
  21152434.470    -6450377.32949  -5017843.15648  21152433.845    21152442.331
  23159124.626    -6354280.42849  -4938956.39046  23159124.532    23159132.960
  22927344.034    -8967288.61449  -6967052.74246  22927343.820    22927354.627
  23130247.083     7936416.20249   6177163.23346  23130246.314    23130255.667
  23080968.608    -5226695.65049  -4061055.87846  23080968.018    23080981.120
                  -1688546.12249    -22263.39643
 03  4 22 19 45  0.0000000  0 11G30G26G15G21G 6G17G29G18G10G23G16
  22888421.191     9045457.65049   7037924.80846  22888421.465    22888432.627
  22718175.098    -9859196.74049  -7660752.70346  22718175.164    22718184.945
  23303670.914    -4156121.17949  -3224831.55446  23303670.185    23303681.540
  21236199.195    -7784988.02849  -6056963.91847  21236198.646    21236205.349
  20298488.972    -3924460.42649  -3053460.02948  20298488.759    20298496.079
  21147067.612    -6478579.93749  -5039819.19748  21147067.020    21147075.618
  23153300.211    -6384887.61149  -4962806.13346  23153300.124    23153308.480
  22908544.128    -9066082.55849  -7044034.88946  22908543.955    22908554.666
  23148832.343     8034081.89849   6253266.30646  23148831.598    23148840.889
  23062899.954    -5321646.82149  -4135043.62546  23062899.357    23062912.276
                  -1758039.69248    -76382.18243
 03  4 22 19 45 30.0000000  0 11G30G26G15G21G 6G17G29G18G10G23G16
  22907771.355     9147141.99749   7117159.14746  22907771.589    22907782.745
  22704847.625    -9929232.13949  -7715325.64746  22704847.741    22704857.595
  23289564.543    -4230249.32649  -3282593.64846  23289563.951    23289575.141
  21228906.327    -7823311.99249  -6086826.73247  21228905.814    21228912.542
  20298979.872    -3921880.62149  -3051449.80948  20298979.689    20298986.990
  21141739.002    -6506581.84249  -5061638.85148  21141738.459    21141747.028
  23147563.633    -6415033.10049  -4986296.09346  23147563.556    23147571.872
  22889790.430    -9164634.90849  -7120828.78346  22889790.118    22889800.721
  23167460.513     8131973.84149   6329545.67346  23167459.851    23167469.213
  23044880.226    -5416340.82649  -4208830.98546  23044879.642    23044892.409
                  -1827110.47348   -130053.71943
 03  4 22 19 46  0.0000000  0 11G30G26G15G21G 6G17G29G18G10G23G16
  22927149.398     9248973.43549   7196508.06446  22927149.654    22927160.914
  22691592.025    -9998890.58749  -7769604.86946  22691592.227    22691601.899
  23275483.859    -4304243.85149  -3340251.62346  23275483.198    23275494.506
  21221654.076    -7861422.57649  -6116523.27547  21221653.625    21221660.284
  20299551.578    -3918876.15849  -3049108.68748  20299551.403    20299558.725
  21136448.626    -6534383.09449  -5083302.15748  21136448.091    21136456.551
  23141915.254    -6444714.76749  -5009424.65246  23141915.235    23141923.650
  22871082.864    -9262943.96349  -7197433.07046  22871082.410    22871093.023
  23186131.344     8230089.51949   6405999.35846  23186130.695    23186140.125
  23026909.797    -5510775.62849  -4282416.38846  23026909.173    23026921.966
                  -1895750.407 8    179843.733 1
 03  4 22 19 46 30.0000000  0 11G30G26G15G21G 6G17G29G18G10G23G16
  22946554.700     9350948.52949   7275968.95746  22946554.960    22946566.412
  22678408.733   -10068169.57749  -7823588.39946  22678408.844    22678418.363
  23261428.376    -4378105.16749  -3397805.79546  23261427.719    23261439.051
  21214442.399    -7899320.41749  -6146054.03947  21214441.918    21214448.569
  20300204.266    -3915446.49949  -3046436.23748  20300204.091    20300211.417
  21131196.204    -6561984.58449  -5104809.79948  21131195.638    21131204.081
  23136355.599    -6473931.59749  -5032190.98446  23136355.504    23136363.909
  22852421.317    -9361008.22749  -7273846.64246  22852421.049    22852431.890
  23204844.270     8328425.38149   6482624.61546  23204843.620    23204852.983
  23008988.756    -5604949.77349  -4355798.68146  23008988.119    23009001.073
                  -1963968.75558    -69342.81943
 03  4 22 19 47  0.0000000  0 11G30G26G15G21G 6G17G29G18G10G23G16
  22965986.951     9453065.03149   7355540.01246  22965987.297    22965998.748
  22665298.332   -10137064.82649  -7877272.92446  22665298.431    22665307.788
  23247398.479    -4451832.77249  -3455255.78046  23247397.801    23247409.083
  21207271.299    -7937004.54449  -6175418.28247  21207270.852    21207277.556
  20300938.129    -3911590.07749  -3043431.25548  20300937.933    20300945.255
  21125981.743    -6589385.98449  -5126161.52948  21125981.228    21125989.750
  23130884.677    -6502680.84149  -5054592.99646  23130884.602    23130893.177
  22833807.087    -9458824.80449  -7350067.20946  22833806.865    22833817.879
  23223598.863     8426979.47249   6559419.94046  23223598.038    23223607.267
  22991117.876    -5698860.63449  -4428975.82246  22991117.311    22991130.251
                  -2031758.63448   -122068.59343
 03  4 22 19 47 30.0000000  0 11G30G26G15G21G 6G17G29G18G10G23G16
  22985445.839     9555320.37049   7435219.24046  22985446.156    22985457.350
  22652261.363   -10205572.75349  -7930655.65046  22652261.536    22652271.096
  23233393.945    -4525425.99849  -3512601.06046  23233393.367    23233404.578
  21200140.914    -7974475.03249  -6204616.05247  21200140.468    21200147.132
  20301753.379    -3907305.57349  -3040092.69448  20301753.229    20301760.573
  21120805.522    -6616587.23249  -5147357.29048  21120805.021    21120813.536
  23125503.073    -6530960.61549  -5076629.15746  23125503.067    23125511.554
  22815240.652    -9556391.44149  -7426092.99046  22815240.408    22815251.346
  23242394.278     8525749.43949   6636383.46346  23242393.386    23242402.583
  22973297.597    -5792505.85049  -4501945.95446  22973297.117    22973309.900
                  -2099118.08158   -174459.09543
 03  4 22 19 48  0.0000000  0 10G30G26G15G21G 6G17G29G18G10G23
  23004930.918     9657713.40449   7515005.77346  23004931.117    23004942.201
  22639299.337   -10273688.13849  -7983732.50146  22639299.559    22639309.273
  23219415.535    -4598883.18149  -3569840.31446  23219414.954    23219426.100
  21193051.462    -8011730.30949  -6233646.11647  21193050.996    21193057.627
  20302650.714    -3902590.02249  -3036418.25448  20302650.587    20302657.892
  21115667.783    -6643586.62249  -5168395.77148  21115667.218    21115675.748
  23120211.477    -6558767.08849  -5098296.51846  23120211.581    23120220.136
  22796722.719    -9653704.11949  -7501920.89646  22796722.367    22796733.150
  23261230.672     8624734.52049   6713514.62046  23261229.765    23261238.910
  22955528.642    -5885881.64549  -4574706.14946  22955528.189    22955540.847
 03  4 22 19 48 30.0000000  0 10G30G26G15G21G 6G17G29G18G10G23
  23024441.257     9760239.19449   7594895.74746  23024441.251    23024452.415
  22626412.441   -10341409.85349  -8036502.58846  22626412.511    22626422.255
  23205462.674    -4672205.75849  -3626974.69246  23205462.074    23205473.250
  21186002.553    -8048772.37249  -6262510.04647  21186002.106    21186008.741
  20303630.046    -3897444.41549  -3032408.71248  20303629.869    20303637.083
  21110567.895    -6670386.63449  -5189278.89748  21110567.348    21110575.865
  23115010.077    -6586100.51549  -5119595.27046  23115010.152    23115018.696
  22778253.089    -9750762.89549  -7577550.93746  22778252.694    22778263.324
  23280107.011     8723929.78249   6790809.56046  23280106.038    23280115.305
  22937810.983    -5978988.03449  -4647256.40546  22937810.564    22937823.077
 03  4 22 19 49  0.0000000  0 10G30G26G15G21G 6G17G29G18G10G23
  23043975.782     9862893.37549   7674885.75746  23043975.778    23043987.212
  22613600.522   -10408736.03849  -8088964.47346  22613600.660    22613610.445
  23191535.003    -4745395.46549  -3684005.53046  23191534.365    23191545.585
  21178993.964    -8085602.80749  -6291209.07447  21178993.488    21179000.084
  20304691.008    -3891869.39249  -3028064.55148  20304690.825    20304698.019
  21105505.591    -6696989.12149  -5210008.09748  21105505.043    21105513.563
  23109898.833    -6612960.61449  -5140525.21146  23109898.830    23109907.413
  22759831.885    -9847567.34149  -7652982.79946  22759831.496    22759841.921
  23299022.549     8823331.02549   6868265.01846  23299021.643    23299030.901
  22920144.728    -6071824.66249  -4719596.46046  22920144.245    22920156.760
 03  4 22 19 49 30.0000000  0 10G30G26G15G21G 6G17G29G18G10G23
  23063534.011     9965673.10149   7754973.59846  23063534.217    23063545.788
  22600864.769   -10475663.18449  -8141115.41646  22600864.897    22600874.501
  23177632.659    -4818452.00249  -3740932.60546  23177632.159    23177643.213
  21172025.607    -8122221.73449  -6319743.29247  21172025.152    21172031.695
  20305833.865    -3885863.79549  -3023384.87648  20305833.664    20305840.855
  21100480.885    -6723393.80549  -5230583.16648  21100480.351    21100488.927
  23104877.813    -6639345.81249  -5161085.09646  23104877.825    23104886.579
  22741459.438    -9944115.20049  -7728214.73746  22741459.005    22741469.380
  23317976.643     8922935.77849   6945879.04846  23317975.781    23317985.063
  22902530.174    -6164389.28449  -4791724.56046  22902529.659    22902542.158
 03  4 22 19 50  0.0000000  0 10G30G26G15G21G 6G17G29G18G10G23
  23083115.937    10068575.94749   7835157.38146  23083116.190    23083127.750
  22588205.776   -10542187.64549  -8192952.57446  22588205.761    22588215.231
  23163756.067    -4891375.00549  -3797755.62646  23163755.406    23163766.376
  21165097.579    -8158628.78349  -6348112.40147  21165097.088    21165103.598
  20307058.868    -3879426.26549  -3018368.64148  20307058.706    20307065.833
  21095493.828    -6749601.02549  -5251004.36448  21095493.294    21095501.835
  23099947.828    -6665253.83349  -5181273.14046  23099947.809    23099956.332
  22723136.303   -10040404.05949  -7803244.85846  22723135.751    22723146.142
  23336969.099     9022741.65849   7023649.80046  23336968.213    23336977.425
  22884967.879    -6256679.56149  -4863638.88246  22884967.257    22884979.710
 03  4 22 19 50 30.0000000  0 10G30G26G15G21G 6G17G29G18G10G23
  23102720.812    10171598.89249   7915434.71646  23102721.118    23102732.559
  22575623.770   -10608306.19849  -8244473.46446  22575623.771    22575633.234
  23149904.629    -4964164.19549  -3854474.37246  23149903.976    23149915.077
  21158209.833    -8194824.16049  -6376316.57647  21158209.307    21158215.816
  20308366.291    -3872556.02649  -3013015.22948  20308366.091    20308373.217
  21090544.347    -6775610.99649  -5271271.86948  21090543.810    21090552.248
  23095108.832    -6690683.00149  -5201088.04846  23095108.839    23095117.101
  22704862.471   -10136432.00349  -7878071.66946  22704862.002    22704872.449
  23355999.443     9122746.12549   7101575.28846  23355998.499    23356007.631
  22867457.900    -6348693.68849  -4935338.02146  22867457.329    22867469.800
 03  4 22 19 51  0.0000000  0 10G30G26G15G21G 6G17G29G18G10G23
  23122348.361    10274739.88949   7995804.04946  23122348.561    23122359.906
  22563119.675   -10674014.68049  -8295674.82246  22563119.658    22563129.230
  23136078.833    -5036818.69549  -3911088.18946  23136078.187    23136089.332
  21151362.387    -8230807.24849  -6404355.33647  21151361.917    21151368.450
  20309756.310    -3865251.31349  -3007323.26248  20309756.118    20309763.340
  21085632.501    -6801422.85649  -5291385.00848  21085631.971    21085640.334
  23090361.540    -6715630.84049  -5220527.91046  23090361.505    23090369.736
  22686638.972   -10232196.17149  -7952692.94446  22686638.517    22686648.969
  23375067.119     9222947.28249   7179654.02346  23375066.108    23375075.319
  22850000.901    -6440428.96949  -5006819.87946  22850000.414    22850013.023
 03  4 22 19 51 30.0000000  0 10G30G26G15G21G 6G17G29G18G10G23
  23141997.502    10377995.30549   8076262.54346  23141997.717    23142009.160
  22550694.030   -10739310.57149  -8346554.68846  22550694.079    22550703.769
  23122278.516    -5109338.99349  -3967597.42346  23122277.910    23122289.117
  21144555.353    -8266578.84649  -6432229.29247  21144554.819    21144561.332
  20311229.033    -3857511.86549  -3001292.53948  20311228.849    20311236.106
  21080758.192    -6827037.66949  -5311344.59548  21080757.655    21080765.993
  23085705.980    -6740096.55649  -5239592.07446  23085705.958    23085714.131
  22668466.045   -10327695.30249  -8027107.70146  22668465.578    22668475.848
  23394171.552     9323341.59449   7257883.28746  23394170.443    23394179.619
  22832597.561    -6531884.13449  -5078083.44446  22832597.022    22832609.558
 03  4 22 19 52  0.0000000  0 10G30G26G15G21G 6G17G29G18G10G23
  23161667.875    10481362.33649   8156807.99846  23161668.010    23161679.560
  22538347.747   -10804190.59749  -8397110.48346  22538347.826    22538357.394
  23108503.957    -5181724.97049  -4024001.98346  23108503.286    23108514.366
  21137788.425    -8302138.92449  -6459938.42847  21137787.914    21137794.419
  20312784.754    -3849336.77149  -2994922.35848  20312784.552    20312791.780
  21075921.250    -6852455.80749  -5331150.93148  21075920.714    21075929.086
  23081142.425    -6764078.25049  -5258279.08746  23081142.328    23081150.469
  22650343.826   -10422927.30049  -8101314.30046  22650343.384    22650353.570
  23413312.212     9423926.55549   7336261.11246  23413311.201    23413320.301
  22815248.029    -6623057.17049  -5149127.18046  22815247.353    22815259.708
 03  4 22 19 52 30.0000000  0 10G30G26G15G21G 6G17G29G18G10G23
  23181359.074    10584838.47049   8237438.46446  23181359.119    23181370.691
  22526081.393   -10868651.04249  -8447339.33746  22526081.409    22526090.957
  23094754.832    -5253976.28249  -4080301.62646  23094754.245    23094765.254
  21131061.933    -8337487.17549  -6487482.50947  21131061.400    21131067.952
  20314423.586    -3840724.65549  -2988211.64048  20314423.367    20314430.607
  21071121.693    -6877677.32249  -5350804.05348  21071121.166    21071129.579
  23076671.327    -6787573.97949  -5276587.42346  23076671.253    23076679.416
  22632272.769   -10517889.74249  -8175310.86446  22632272.454    22632282.575
  23432488.850     9524700.03049   7414785.81246  23432487.787    23432496.991
  22797952.383    -6713945.85349  -5219949.34746  22797951.727    22797964.019
 03  4 22 19 53  0.0000000  0 10G30G26G15G21G 6G17G29G18G10G23
  23201070.186    10688420.18049   8318151.20046  23201070.293    23201081.820
  22513895.138   -10932689.30149  -8497239.23146  22513895.235    22513904.918
  23081031.333    -5326093.20549  -4136496.53846  23081030.736    23081041.899
  21124375.683    -8372623.77649  -6514861.65647  21124375.129    21124381.713
  20316145.538    -3831675.31849  -2981160.22448  20316145.345    20316152.689
  21066359.492    -6902702.89749  -5370304.49348  21066358.963    21066367.396
  23072293.116    -6810582.62749  -5294516.22146  23072292.994    23072301.074
  22614253.490   -10612581.27449  -8249096.32446  22614253.129    22614263.116
  23451700.704     9625658.81849   7493454.91646  23451699.536    23451708.849
  22780711.195    -6804548.68949  -5290548.77646  22780710.403    22780722.650
 03  4 22 19 53 30.0000000  0 10G30G26G15G21G 6G17G29G18G10G23
  23220801.018    10792104.87349   8398944.16446  23220801.064    23220812.607
  22501789.977   -10996301.98749  -8546807.52046  22501790.035    22501799.914
  23067333.636    -5398075.53649  -4192586.59146  23067332.898    23067343.993
  21117729.528    -8407549.22349  -6542076.27647  21117728.991    21117735.566
  20317950.997    -3822187.57349  -2973767.19448  20317950.805    20317958.197
  21061634.545    -6927532.57649  -5389652.28648  21061634.014    21061642.427
  23068007.720    -6833102.64549  -5312064.26646  23068007.541    23068015.584
  22596286.075   -10706999.98549  -8322669.19746  22596285.757    22596295.645
  23470947.366     9726800.09949   7572266.23246  23470946.221    23470955.473
  22763524.434    -6894863.92249  -5360924.09546  22763523.771    22763536.173
 03  4 22 19 54  0.0000000  0 10G30G26G15G21G 6G17G29G18G10G23
  23240550.811    10895889.84149   8479815.28146  23240550.861    23240562.516
  22489766.320   -11059485.58849  -8596041.43746  22489766.499    22489776.424
  23053661.398    -5469923.15449  -4248571.66946  23053660.713    23053671.743
  21111123.630    -8442263.46449  -6569126.32547  21111123.124    21111129.624
  20319840.076    -3812260.36049  -2966031.72648  20319839.907    20319847.316
  21056946.922    -6952166.36649  -5408847.44648  21056946.389    21056954.733
  23063815.386    -6855132.02949  -5329229.99446  23063815.323    23063823.413
  22578370.958   -10801143.42349  -8396027.59646  22578370.749    22578380.610
  23490228.512     9828121.63249   7651218.00346  23490227.314    23490236.483
  22746393.061    -6984889.22649  -5431073.51246  22746392.421    22746404.825
 03  4 22 19 54 30.0000000  0 10G30G26G15G21G 6G17G29G18G10G23
  23260319.071    10999772.31049   8560762.35846  23260319.156    23260331.044
  22477825.121   -11122236.98949  -8644938.57046  22477825.316    22477835.096
  23040014.868    -5541635.51849  -4304451.35146  23040014.171    23040025.219
  21104558.011    -8476766.21249  -6596011.57747  21104557.509    21104563.974
  20321813.013    -3801892.76349  -2957953.10048  20321812.812    20321820.215
  21052296.562    -6976604.43749  -5427890.09648  21052296.009    21052304.361
  23059716.734    -6876669.30449  -5346012.25646  23059716.810    23059725.102
  22560508.856   -10895009.49649  -8469169.86046  22560508.595    22560518.364
  23509543.296     9929621.00649   7730308.32646  23509542.132    23509551.368
  22729317.256    -7074622.74849  -5500995.55746  22729316.572    22729328.915
 03  4 22 19 55  0.0000000  0 10G30G26G15G21G 6G17G29G18G10G23
  23280105.192    11103747.97349   8641782.04546  23280105.278    23280117.362
  22465966.591   -11184554.23149  -8693497.40746  22465966.755    22465976.434
  23026393.829    -5613214.10949  -4360226.79146  23026393.110    23026404.161
  21098032.326    -8511059.12849  -6622733.32047  21098031.797    21098038.256
  20323869.588    -3791085.26649  -2949531.69648  20323869.428    20323876.801
  21047683.102    -7000848.21849  -5446781.35348  21047682.543    21047690.946
  23055712.033    -6897714.22749  -5362410.88246  23055712.053    23055720.440
  22542699.661   -10988597.90349  -8542095.75846  22542699.244    22542708.987
  23528891.190    10031294.01149   7809533.95246  23528890.058    23528899.275
  22712296.985    -7164063.97249  -5570689.85846  22712296.335    22712308.595
 03  4 22 19 55 30.0000000  0 10G30G26G15G21G 6G17G29G18G10G23
  23299908.849    11207816.81349   8722874.35146  23299909.069    23299921.323
  22454191.564   -11246431.50749  -8741713.41746  22454191.727    22454201.624
  23012798.885    -5684655.94549  -4415895.66346  23012798.102    23012809.133
  21091546.952    -8545139.76649  -6649289.64947  21091546.426    21091552.902
  20326010.650    -3779834.27949  -2940764.71048  20326010.436    20326017.825
  21043107.070    -7024895.29449  -5465519.32348  21043106.501    21043114.933
  23051801.817    -6918262.73749  -5378422.68446  23051801.810    23051810.151
  22524944.004   -11081903.62649  -8614801.38346  22524943.636    22524953.386
  23548272.046    10133141.06049   7888895.20946  23548270.961    23548280.124
  22695333.147    -7253208.27549  -5640152.80246  22695332.628    22695344.705
 03  4 22 19 56  0.0000000  0 10G30G26G15G21G 6G17G29G18G10G23
  23319729.606    11311974.22349   8804035.64846  23319729.786    23319742.061
  22442500.487   -11307867.32849  -8789585.44046  22442500.790    22442510.728
  22999229.487    -5755962.76449  -4471459.32446  22999228.725    22999239.798
  21085101.755    -8579009.26849  -6675681.45647  21085101.228    21085107.693
  20328235.814    -3768140.89149  -2931652.99948  20328235.645    20328242.999
  21038568.136    -7048747.74649  -5484105.64848  21038567.573    21038575.925
  23047986.039    -6938314.92649  -5394047.73346  23047985.912    23047994.352
  22507242.295   -11174926.46449  -8687286.58446  22507241.891    22507251.698
  23567685.174    10235157.68249   7968388.60146  23567684.161    23567693.069
  22678426.061    -7342055.44449  -5709384.20246  22678425.473    22678437.450
 03  4 22 19 56 30.0000000  0 10G30G26G15G21G 6G17G29G18G10G23
  23339566.821    11416216.86549   8885263.35146  23339566.754    23339579.119
  22430894.316   -11368859.02049  -8837111.38546  22430894.535    22430904.399
  22985685.885    -5827134.83849  -4526918.00546  22985685.141    22985696.045
  21078696.589    -8612668.58349  -6701909.48147  21078696.082    21078702.582
  20330545.351    -3756004.69349  -2922196.25048  20330545.136    20330552.408
  21034066.147    -7072406.20149  -5502540.80748  21034065.539    21034073.859
  23044264.789    -6957869.65749  -5409285.16546  23044264.718    23044273.191
  22489594.620   -11267665.02549  -8759550.27746  22489594.278    22489604.092
  23587130.130    10337340.97249   8048011.88645  23587129.050    23587137.797
  22661575.671    -7430604.17249  -5778383.05046  22661575.078    22661587.062
 03  4 22 19 57  0.0000000  0 10G30G26G15G21G 6G17G29G18G10G23
  23359417.986    11520535.43249   8966550.22646  23359418.201    23359430.598
  22419372.040   -11429409.89449  -8884293.84246  22419372.251    22419381.828
  22972166.728    -5898178.55649  -4582276.67946  22972165.991    22972176.714
  21072330.174    -8646124.44349  -6727978.97147  21072329.630    21072336.120
  20332938.035    -3743431.32049  -2912398.84248  20332937.810    20332945.078
  21029599.677    -7095877.74349  -5520830.31848  21029599.081    21029607.356
  23040637.291    -6976932.31349  -5424139.15446  23040637.259    23040645.730
  22472000.087   -11360123.89749  -8831596.03446  22471999.799    22472009.581
  23606604.812    10439681.57349   8127757.71945  23606603.858    23606612.616
  22644781.220    -7518859.25849  -5847153.10946  22644780.585    22644792.500
 03  4 22 19 57 30.0000000  0 10G30G26G15G21G 6G17G29G18G10G23
  23379284.902    11624936.06649   9047901.04346  23379285.197    23379297.751
  22407936.128   -11489507.77349  -8931123.29746  22407936.129    22407945.314
  22958673.641    -5969084.68549  -4637528.13446  22958672.911    22958683.705
  21066004.183    -8679367.47949  -6753882.62747  21066003.649    21066010.077
  20335415.756    -3730410.91249  -2902253.09348  20335415.545    20335422.841
  21025170.503    -7119153.32449  -5538967.13248  21025169.878    21025178.126
  23037105.457    -6995492.16749  -5438601.35046  23037105.384    23037113.988
  22454460.878   -11452291.86349  -8903415.09746  22454460.631    22454470.434
  23626110.528    10542186.04449   8207631.25345  23626109.725    23626118.469
  22628044.921    -7606809.58749  -5915685.67446  22628044.142    22628055.922
 03  4 22 19 58  0.0000000  0 10G30G26G15G21G 6G17G29G18G10G23
  23399166.944    11729416.30149   9129313.89046  23399167.363    23399180.062
  22396586.700   -11549149.32149  -8977597.19046  22396586.716    22396595.688
  22945206.727    -6039853.07149  -4692672.24246  22945206.035    22945216.852
  21059718.729    -8712397.91749  -6779620.63147  21059718.210    21059724.574
  20337978.747    -3716942.52449  -2891758.27048  20337978.540    20337985.779
  21020778.629    -7142232.75749  -5556951.10048  21020778.028    21020786.264
  23033669.555    -7013547.65349  -5452670.54146  23033669.532    23033678.148
  22436977.475   -11544167.03549  -8975006.01746  22436977.194    22436986.956
  23645647.215    10644852.08249   8287630.68645  23645646.489    23645655.185
  22611366.692    -7694453.29849  -5983979.34746  22611365.977    22611377.657
 03  4 22 19 58 30.0000000  0 10G30G26G15G21G 6G17G29G18G10G23
  23419063.418    11833971.47449   9210785.11346  23419063.749    23419076.605
  22385324.484   -11608333.10649  -9023714.38146  22385324.472    22385333.243
  22931765.950    -6110485.10549  -4747710.10846  22931765.250    22931775.992
  21053473.520    -8745217.13749  -6805194.03447  21053472.954    21053479.364
  20340626.789    -3703027.14549  -2880915.14348  20340626.587    20340633.832
  21016423.773    -7165117.78149  -5574783.58748  21016423.143    21016431.446
  23030329.843    -7031099.10749  -5466346.99046  23030329.655    23030338.249
  22419549.845   -11635749.22449  -9046368.64946  22419549.559    22419559.315
  23665214.114    10747675.35049   8367752.61545  23665213.254    23665221.924
  22594746.804    -7781790.35349  -6052034.06346  22594746.143    22594757.830
 03  4 22 19 59  0.0000000  0 10G30G26G15G21G 6G17G29G18G10G23
  23438973.553    11938597.85249   9292311.81446  23438973.745    23438986.589
  22374149.690   -11667057.08449  -9069473.28446  22374149.748    22374158.424
  22918350.765    -6180981.66849  -4802642.42746  22918350.126    22918360.892
  21047268.126    -8777826.21049  -6830603.69247  21047267.580    21047274.035
  20343359.864    -3688664.96149  -2869723.85448  20343359.665    20343366.949
  21012105.589    -7187809.77449  -5592465.65448  21012104.982    21012113.381
  23027085.954    -7048146.08049  -5479630.34546  23027085.790    23027094.283
  22402178.321   -11727037.33849  -9117502.12546  22402177.995    22402187.710
  23684810.118    10850652.56849   8447994.52145  23684809.118    23684818.021
  22578185.399    -7868819.77849  -6119849.06846  22578184.848    22578196.469
 03  4 22 19 59 30.0000000  0 10G30G26G15G21G 6G17G29G18G10G23
  23458896.493    12043292.97249   9373892.06446  23458896.843    23458909.623
  22363063.103   -11725317.68949  -9114871.09846  22363063.094    22363071.836
  22904961.620    -6251342.25349  -4857468.78746  22904960.936    22904971.649
  21041102.773    -8810225.36949  -6855849.78347  21041102.228    21041108.655
  20346178.163    -3673854.94549  -2858183.60648  20346177.944    20346185.238
  21007824.232    -7210308.44849  -5609997.08148  21007823.596    21007832.008
  23023938.688    -7064686.80049  -5492519.20346  23023938.369    23023946.622
  22384863.074   -11818029.22449  -9188404.77647  22384862.772    22384872.487
  23704434.793    10953781.46549   8528354.60945  23704433.851    23704443.050
  22561683.094    -7955539.52549  -6187422.75146  22561682.572    22561694.145
 03  4 22 20  0  0.0000000  0 10G30G26G15G21G 6G17G29G18G10G23
  23478831.993    12148053.80349   9455523.53046  23478832.422    23478845.178
  22352065.023   -11783112.27649  -9159905.79746  22352065.058    22352073.852
  22891598.327    -6321566.95749  -4912189.24646  22891597.587    22891608.327
  21034977.476    -8842414.47049  -6880932.19647  21034976.908    21034983.217
  20349081.754    -3658596.58849  -2846294.00548  20349081.544    20349088.772
  21003579.489    -7232614.68349  -5627378.56548  21003578.865    21003587.234
  23020887.496    -7080720.40049  -5505012.90246  23020887.212    23020895.598
  22367604.514   -11908723.27649  -9259075.33547  22367604.190    22367613.878
  23724088.041    11057059.31949   8608830.77845  23724087.106    23724096.392
  22545240.144    -8041948.03649  -6254753.92046  22545239.575    22545251.097
 03  4 22 20  0 30.0000000  0 10G30G26G15G21G 6G17G29G18G10G23
  23498779.425    12252877.35649   9537203.87646  23498779.893    23498792.725
  22341156.167   -11840437.88749  -9204575.03946  22341156.230    22341165.059
  22878260.742    -6391655.79549  -4966803.86846  22878260.070    22878270.761
  21028892.052    -8874393.67149  -6905851.04248  21028891.462    21028897.766
  20352070.780    -3642889.46249  -2834054.71448  20352070.535    20352077.746
  20999371.471    -7254728.20049  -5644609.87648  20999370.818    20999379.143
  23017933.047    -7096245.60849  -5517110.44346  23017932.876    23017941.145
  22350403.000   -11999117.62949  -9329512.37647  22350402.678    22350412.337
  23743769.078    11160483.44349   8689420.92045  23743768.132    23743777.516
  22528856.775    -8128043.76549  -6321841.35546  22528856.097    22528867.608
 03  4 22 20  1  0.0000000  0 10G30G26G15G21G 6G17G29G18G10G23
  23518738.280    12357761.15149   9618931.14646  23518738.795    23518751.884
  22330337.314   -11897291.10649  -9248876.19046  22330337.370    22330346.182
  22864949.137    -6461608.45049  -5021312.35646  22864948.446    22864959.069
  21022846.502    -8906162.66649  -6930606.09248  21022845.937    21022852.374
  20355145.317    -3626732.28949  -2821464.73748  20355145.096    20355152.359
  20995200.037    -7276649.30149  -5661691.25248  20995199.376    20995207.724
  23015075.893    -7111260.83549  -5528810.60946  23015075.634    23015083.729
  22333259.005   -12089210.01349  -9399714.12247  22333258.617    22333268.203
  23763477.471    11264051.39249   8770123.12345  23763476.547    23763485.949
  22512533.110    -8213824.52049  -6388683.35746  22512532.459    22512543.979
 03  4 22 20  1 30.0000000  0 10G30G26G15G21G 6G17G29G18G10G23
  23538707.979    12462701.35549   9700702.37946  23538708.451    23538721.583
  22319608.870   -11953669.95049  -9292807.69946  22319608.866    22319617.544
  22851663.312    -6531425.76349  -5075715.37146  22851662.633    22851673.126
  21016840.883    -8937722.27349  -6955197.98048  21016840.334    21016846.832
  20358305.431    -3610125.49949  -2808524.40648  20358305.249    20358312.547
  20991064.920    -7298379.37149  -5678623.76948  20991064.279    20991072.628
  23012315.762    -7125765.72649  -5540113.11346  23012315.516    23012323.450
  22316172.379   -12178999.82449  -9469680.10247  22316172.016    22316181.567
  23783212.633    11367760.10249   8850935.03445  23783211.715    23783221.154
  22496269.470    -8299289.53449  -6455279.33746  22496268.907    22496280.333
 03  4 22 20  2  0.0000000  0 10G30G26G15G21G 6G17G29G18G10G23
  23558688.101    12567695.65349   9782515.73146  23558688.429    23558701.476
  22308971.185   -12009570.95749  -9336366.86746  22308971.121    22308979.883
  22838403.384    -6601107.02549  -5130012.40546  22838402.723    22838413.170
  21010875.126    -8969072.64049  -6979626.83448  21010874.594    21010881.048
  20361551.448    -3593067.95249  -2795232.84448  20361551.251    20361558.558
  20986966.329    -7319917.61249  -5695406.81548  20986965.696    20986974.008
  23009652.845    -7139758.63049  -5551016.66846  23009652.589    23009660.671
  22299143.743   -12268484.54149  -9539408.34647  22299143.505    22299153.049
  23802974.194    11471607.28349   8931854.84145  23802973.305    23802982.758
  22480066.354    -8384436.66049  -6521627.61046  22480065.844    22480077.251
 03  4 22 20  2 30.0000000  0 10G30G26G15G21G 6G17G29G18G10G23
  23578677.906    12672741.21649   9864369.04446  23578678.250    23578691.308
  22298424.838   -12064991.30649  -9379551.51646  22298424.802    22298433.640
  22825169.214    -6670652.43049  -5184203.58546  22825168.525    22825179.171
  21004949.226    -9000213.66849  -7003892.56448  21004948.657    21004955.069
  20364883.272    -3575559.09949  -2781589.60848  20364883.055    20364890.418
  20982904.210    -7341264.47049  -5712040.73648  20982903.568    20982911.819
  23007087.521    -7153238.59049  -5561520.53646  23007087.354    23007095.564
  22282173.734   -12357662.79849  -9608897.78347  22282173.372    22282182.894
  23822761.508    11575590.10949   9012880.35545  23822760.507    23822770.084
  22463924.108    -8469264.42549  -6587727.03246  22463923.559    22463934.998
 03  4 22 20  3  0.0000000  0 10G30G26G15G21G 6G17G29G18G10G23
  23598677.003    12777835.33549   9946260.19946  23598677.245    23598690.433
  22287970.787   -12119927.89949  -9422359.19146  22287970.778    22287979.484
  22811961.050    -6740061.68949  -5238288.63746  22811960.359    22811970.917
  20999063.157    -9031145.14549  -7027995.00848  20999062.641    20999069.012
  20368301.055    -3557598.27749  -2767594.18848  20368300.869    20368308.282
  20978878.419    -7362420.01549  -5728525.57848  20978877.785    20978886.049
  23004620.330    -7166204.05149  -5571623.47946  23004620.153    23004628.375
  22265262.374   -12446532.29849  -9678146.63947  22265262.050    22265271.526
  23842574.094    11679706.51049   9094009.93045  23842573.200    23842582.865
  22447843.068    -8553770.82549  -6653576.03546  22447842.422    22447853.847
 03  4 22 20  3 30.0000000  0 10G30G26G15G21G 6G17G29G18G10G23
  23618684.835    12882974.44149  10028186.38646  23618684.874    23618698.250
  22277609.299   -12174378.59049  -9464788.22746  22277609.182    22277617.803
  22798778.671    -6809335.37049  -5292268.05846  22798777.965    22798788.406
  20993216.829    -9061868.03549  -7051934.91548  20993216.249    20993222.616
  20371804.901    -3539185.68249  -2753246.74348  20371804.703    20371812.156
  20974888.787    -7383385.57049  -5744862.37448  20974888.167    20974896.437
  23002250.904    -7178654.86549  -5581325.40546  23002250.693    23002259.092
  22248410.033   -12535091.87549  -9747153.99347  22248409.687    22248419.115
  23862411.687    11783953.16149   9175241.04245  23862410.787    23862420.358
  22431823.337    -8637954.97349  -6719173.93646  22431822.643    22431833.999
 03  4 22 20  4  0.0000000  0 10G30G26G15G21G 6G17G29G18G10G23
  23638700.616    12988156.44849  10110146.01746  23638700.717    23638714.286
  22267340.843   -12228339.62349  -9506835.73546  22267340.761    22267349.266
  22785622.137    -6878472.64449  -5346141.19446  22785621.453    22785631.924
  20987410.181    -9092381.59449  -7075711.71248  20987409.649    20987416.081
  20375394.922    -3520319.81249  -2738546.09848  20375394.708    20375402.218
  20970935.558    -7404160.04149  -5761050.27248  20970934.914    20970943.170
  22999979.835    -7190588.95049  -5590624.69546  22999979.666    22999988.065
  22231617.160   -12623339.12249  -9815917.97747  22231616.692    22231626.101
  23882273.491    11888328.47949   9256572.36545  23882272.587    23882282.505
  22415865.242    -8721814.30649  -6784518.72846  22415864.610    22415875.869
 03  4 22 20  4 30.0000000  0 10G30G26G15G21G 6G17G29G18G10G23
  23658723.813    13093378.21749  10192136.63046  23658724.065    23658737.711
  22257165.991   -12281808.49049  -9548499.71546  22257165.954    22257174.642
  22772491.772    -6947473.59149  -5399908.09046  22772491.062    22772501.430
  20981643.405    -9122686.41649  -7099325.85147  20981642.841    20981649.232
  20379071.236    -3501000.61349  -2723492.20548  20379071.062    20379078.552
  20967018.439    -7424744.39749  -5777090.02948  20967017.826    20967026.103
  22997807.172    -7202005.61949  -5599520.81446  22997807.070    22997815.599
  22214883.854   -12711272.45749  -9884437.35447  22214883.377    22214892.790
  23902159.138    11992829.41149   9338001.56445  23902158.291    23902168.365
  22399969.235    -8805347.69749  -6849609.53546  22399968.645    22399979.740
 03  4 22 20  5  0.0000000  0 10G30G26G15G21G 6G17G29G18G10G23
  23678754.535    13198637.31949  10274156.30746  23678754.608    23678768.190
  22247085.381   -12334782.06449  -9589777.77646  22247085.293    22247094.100
  22759387.315    -7016338.12149  -5453568.68846  22759386.575    22759396.868
  20975916.356    -9152782.26949  -7122777.16147  20975915.806    20975922.158
  20382834.056    -3481227.19449  -2708084.37948  20382833.858    20382841.330
  20963137.532    -7445138.55349  -5792981.58748  20963136.942    20963145.213
  22995733.411    -7212903.52449  -5608012.68146  22995733.285    22995741.755
  22198210.664   -12798890.07049  -9952710.71847  22198210.229    22198219.548
  23922068.333    12097453.90349   9419527.05645  23922067.637    23922077.648
  22384135.710    -8888553.30549  -6914444.93846  22384135.086    22384146.076
 03  4 22 20  5 30.0000000  0 10G30G26G15G21G 6G17G29G18G10G23
  23698791.742    13303930.19749  10356202.30346  23698791.627    23698805.091
  22237099.456   -12387258.26749  -9630668.25746  22237099.416    22237108.186
  22746308.573    -7085066.68549  -5507123.35446  22746307.899    22746318.083
  20970228.909    -9182669.70849  -7146066.07147  20970228.373    20970234.731
  20386683.293    -3460999.71649  -2692322.74548  20386683.093    20386690.537
  20959292.819    -7465342.95049  -5808725.27048  20959292.224    20959300.434
  22993758.399    -7223282.29249  -5616100.03246  22993758.262    22993766.661
  22181597.910   -12886190.87449 -10020737.21147  22181597.320    22181606.637
  23942000.761    12202198.75249   9501146.32745  23942000.088    23942010.013
  22368364.707    -8971430.15549  -6979024.16146  22368364.044    22368374.992
 03  4 22 20  6  0.0000000  0 10G30G26G15G21G 6G17G29G18G10G23
  23718834.587    13409254.23749  10438272.58445  23718834.572    23718847.939
  22227208.778   -12439234.06049  -9671168.81446  22227208.674    22227217.390
  22733255.851    -7153659.04049  -5560571.87646  22733255.155    22733265.460
  20964581.179    -9212348.57849  -7169192.46048  20964580.663    20964587.073
  20390619.026    -3440317.46849  -2676206.74148  20390618.858    20390626.255
  20955484.073    -7485357.91649  -5824321.34748  20955483.481    20955491.747
  22991882.483    -7233140.69249  -5623781.90446  22991882.331    22991890.790
  22165045.556   -12973172.86149 -10088515.28847  22165045.039    22165054.406
  23961955.733    12307061.75549   9582857.67545  23961954.974    23961964.810
  22352656.433    -9053976.22449  -7043345.64946  22352655.859    22352666.892
 03  4 22 20  6 30.0000000  0 10G30G26G15G21G 6G17G29G18G10G23
  23738882.532    13514606.99349  10520365.24245  23738882.803    23738896.241
  22217413.592   -12490706.25749  -9711276.97246  22217413.645    22217422.502
  22720228.980    -7222114.86249  -5613914.01046  22720228.324    22720238.647
  20958973.169    -9241818.73649  -7192156.21048  20958972.655    20958979.115
  20394641.420    -3419179.79649  -2659735.85648  20394641.234    20394648.685
  20951711.386    -7505183.24149  -5839769.65048  20951710.802    20951719.199
  22990105.718    -7242477.58549  -5631057.41246  22990105.512    22990114.098
  22148554.342   -13059834.11949 -10156043.45147  22148553.875    22148563.255
  23981932.668    12412040.64549   9664659.30945  23981931.994    23981941.666
  22337011.585    -9136189.93049  -7107408.15746  22337010.980    22337022.084
 03  4 22 20  7  0.0000000  0 10G30G26G15G21G 6G17G29G18G10G23
  23758935.925    13619985.45449  10602477.92445  23758935.911    23758949.204
  22207715.093   -12541672.27149  -9750990.69246  22207715.159    22207723.901
  22707228.136    -7290434.11549  -5667149.70946  22707227.484    22707237.778
  20953404.788    -9271080.46249  -7214957.54348  20953404.300    20953410.858
  20398750.452    -3397586.30049  -2642909.77748  20398750.299    20398757.826
  20947974.804    -7524818.98849  -5855070.23248  20947974.249    20947982.630
  22988428.260    -7251292.02349  -5637925.80746  22988428.202    22988436.739
  22132124.627   -13146172.77549 -10223320.22847  22132124.159    22132133.518
  24001931.377    12517132.61549   9746549.06045  24001930.629    24001940.211
  22321430.161    -9218069.87849  -7171210.59646  22321429.586    22321440.810
 03  4 22 20  7 30.0000000  0 10G30G26G15G21G 6G17G29G18G10G23
  23778993.474    13725386.30349  10684608.06445  23778993.245    23779006.415
  22198113.446   -12592129.82149  -9790308.19146  22198113.426    22198122.104
  22694253.290    -7358617.32649  -5720279.43146  22694252.606    22694262.811
  20947876.011    -9300134.41249  -7237596.96948  20947875.538    20947882.080
  20402946.267    -3375537.21549  -2625728.70248  20402946.114    20402953.659
  20944274.105    -7544266.47249  -5870224.11548  20944273.521    20944281.808
  22986850.353    -7259583.71549  -5644386.85346  22986850.275    22986858.784
  22115756.345   -13232188.16349 -10290345.10047  22115755.891    22115765.190
  24021951.051    12622334.84049   9828524.71845  24021950.209    24021959.752
  22305912.503    -9299614.93149  -7234752.07946  22305911.929    22305923.244
 03  4 22 20  8  0.0000000  0 10G30G26G15G21G 6G17G29G18G10G23
  23799054.251    13830807.23449  10766753.82045  23799054.277    23799067.633
  22188608.995   -12642075.89049  -9829227.14646  22188609.006    22188617.659
  22681304.265    -7426663.95249  -5773302.72746  22681303.650    22681314.023
  20942386.878    -9328979.90949  -7260073.97348  20942386.388    20942392.895
  20407228.982    -3353031.47149  -2608191.78948  20407228.809    20407236.366
  20940609.255    -7563525.05749  -5885230.81248  20940608.698    20940616.981
  22985372.240    -7267351.14149  -5650439.38946  22985372.137    22985380.699
  22099449.989   -13317877.65149 -10357116.03047  22099449.600    22099458.859
  24041991.091    12727645.04349   9910584.50945  24041990.236    24041999.824
  22290458.990    -9380823.16249  -7298031.10346  22290458.377    22290469.784
 03  4 22 20  8 30.0000000  0 10G30G26G15G21G 6G17G29G18G10G23
  23819118.782    13936246.45749  10848913.86645  23819118.946    23819132.710
  22179202.458   -12691506.62249  -9867744.53846  22179202.518    22179211.244
  22668381.526    -7494573.09349  -5826218.85646  22668380.947    22668391.323
  20936937.578    -9357616.16349  -7282387.93048  20936937.090    20936943.535
  20411598.873    -3330067.74449  -2590298.00148  20411598.684    20411606.336
  20936980.590    -7582593.97749  -5900089.71148  20936980.020    20936988.286
  22983994.350    -7274592.50849  -5656081.99846  22983994.182    22984002.761
  22083206.142   -13403238.81449 -10423631.13047  22083205.805    22083215.026
  24062051.226    12833062.10949   9992727.57445  24062050.449    24062060.141
  22275070.040    -9461692.07349  -7361045.73546  22275069.441    22275080.812
 03  4 22 20  9  0.0000000  0 10G30G26G15G21G 6G17G29G18G10G23
  23839186.291    14041700.16749  10931085.18345  23839186.434    23839200.516
  22169894.162   -12740420.43849  -9905859.14146  22169894.372    22169903.256
  22655484.825    -7562345.36149  -5879028.32746  22655484.245    22655494.644
  20931527.884    -9386044.33349  -7304539.74048  20931527.405    20931533.798
  20416055.751    -3306646.53049  -2572047.72448  20416055.619    20416063.297
  20933387.709    -7601474.51249  -5914801.81148  20933387.168    20933395.469
  22982716.444    -7281307.72849  -5661314.64546  22982716.227    22982724.936
  22067025.119   -13488270.72749 -10489889.66847  22067024.697    22067033.892
  24082131.076    12938582.81849  10074951.46345  24082130.269    24082140.028
  22259745.796    -9542221.02849  -7423795.45246  22259745.249    22259756.497
 03  4 22 20  9 30.0000000  0 10G30G26G15G21G 6G17G29G18G10G23
  23859256.081    14147165.69349  11013265.70545  23859256.210    23859270.542
  22160685.096   -12788814.63349  -9943568.84046  22160685.267    22160694.079
  22642614.251    -7629980.57049  -5931730.99546  22642613.655    22642624.061
  20926157.745    -9414264.44749  -7326529.43548  20926157.263    20926163.737
  20420599.856    -3282767.42149  -2553440.65248  20420599.723    20420607.349
  20929830.624    -7620166.95849  -5929367.35048  20929830.080    20929838.517
  22981538.570    -7287496.28649  -5666136.91146  22981538.492    22981547.256
  22050906.884   -13572972.02749 -10555890.58947  22050906.555    22050915.747
  24102229.910    13044204.37549  10157253.92045  24102229.164    24102239.179
  22244486.474    -9622408.54149  -7486279.11546  22244485.983    22244497.197
 03  4 22 20 10  0.0000000  0 10G30G26G15G21G 6G17G29G18G10G23
  23879327.710    14252640.58949  11095453.52345  23879327.735    23879342.163
  22151575.564   -12836686.15049  -9980871.25846  22151575.593    22151584.337
  22629769.781    -7697478.65749  -5984326.83646  22629769.167    22629779.526
  20920827.222    -9442276.20649  -7348356.77348  20920826.753    20920833.284
  20425231.206    -3258429.80249  -2534476.30848  20425231.057    20425238.627
  20926309.379    -7638670.78849  -5943785.91248  20926308.868    20926317.390
  22980461.502    -7293156.88249  -5670547.75346  22980461.427    22980470.121
  22034852.033   -13657340.79049 -10621632.38847  22034851.700    22034860.808
  24122347.609    13149924.69149  10239633.32045  24122346.927    24122357.178
  22229292.426    -9702252.88349  -7548495.38346  22229291.982    22229303.184
 03  4 22 20 10 30.0000000  0 10G30G26G15G21G 6G17G29G18G10G23
  23899399.993    14358121.15949  11177645.76945  23899400.189    23899414.817
  22142565.564   -12884033.20249 -10017765.02246  22142565.641    22142574.509
  22616951.314    -7764840.12949  -6036816.22046  22616950.701    22616961.027
  20915536.293    -9470080.30349  -7370022.28648  20915535.816    20915542.338
  20429949.606    -3233634.06949  -2515154.98648  20429949.490    20429957.151
  20922823.752    -7656987.87049  -5958058.96548  20922823.271    20922831.717
  22979484.944    -7298289.42749  -5674547.11746  22979484.764    22979493.381
  22018860.633   -13741376.09949 -10687114.35547  22018860.250    22018869.299
  24142483.654    13255740.52949  10322087.13645  24142483.036    24142493.341
  22214164.093    -9781753.30549  -7610443.64346  22214163.535    22214174.650
 03  4 22 20 11  0.0000000  0 10G30G26G15G21G 6G17G29G18G10G23
  23919472.821    14463605.40649  11259840.88445  23919473.403    23919488.113
  22133656.082   -12930852.45749 -10054247.49746  22133656.169    22133665.087
  22604158.957    -7832064.26449  -6089198.59946  22604158.337    22604168.644
  20910284.919    -9497676.27249  -7391525.63748  20910284.461    20910290.978
  20434755.435    -3208379.15749  -2495475.85948  20434755.343    20434763.004
  20919374.020    -7675116.53349  -5972185.20048  20919373.529    20919381.843
  22978608.843    -7302892.48349  -5678133.91646  22978608.750    22978617.490
  22002933.090   -13825075.42149 -10752334.51447  22002932.717    22002941.758
  24162637.854    13361650.67249  10404614.43245  24162637.184    24162647.333
  22199101.447    -9860907.66149  -7672122.25746  22199100.862    22199111.936
 03  4 22 20 11 30.0000000  0 10G30G26G15G21G 6G17G29G18G10G23
  23939546.356    14569090.20949  11342036.41645  23939546.866    23939561.726
  22124847.616   -12977141.77649 -10090317.03346  22124847.687    22124856.425
  22591392.553    -7899151.49349  -6141474.30246  22591391.975    22591402.274
  20905073.062    -9525064.59749  -7412867.18348  20905072.599    20905079.172
  20439648.631    -3182665.26149  -2475439.08848  20439648.516    20439656.160
  20915959.870    -7693058.20449  -5986165.72348  20915959.343    20915967.651
  22977833.726    -7306965.97649  -5681308.06846  22977833.676    22977842.338
  21987069.684   -13908437.79649 -10817292.10447  21987069.328    21987078.328
  24182809.583    13467651.81949  10487212.60645  24182808.839    24182818.790
  22184104.669    -9939714.95049  -7733530.42246  22184104.165    22184115.236
 03  4 22 20 12  0.0000000  0 10G30G26G15G21G 6G17G29G18G10G23
  23959619.534    14674572.13649  11424229.72345  23959619.610    23959634.685
  22116140.409   -13022899.09149 -10125972.02046  22116140.375    22116148.950
  22578652.192    -7966102.10449  -6193643.53046  22578651.595    22578661.869
  20899900.547    -9552245.82649  -7434047.34048  20899900.100    20899906.730
  20444629.081    -3156492.63449  -2455044.86248  20444628.998    20444636.653
  20912581.182    -7710813.08449  -6000000.68948  20912580.672    20912589.092
  22977159.444    -7310509.24949  -5684069.04946  22977159.374    22977167.990
  21971270.760   -13991461.90849 -10881986.11247  21971270.336    21971279.324
  24202998.340    13573741.10349  10569879.48545  24202997.443    24203007.089
  22169174.249   -10018174.13049  -7794667.33246  22169173.731    22169184.810
 03  4 22 20 12 30.0000000  0 11G30G26G15G21G 6G17G29G18G10G23G16
  23979691.113    14780049.05049  11506419.11445  23979691.295    23979706.392
  22107534.601   -13068121.38149 -10161210.11746  22107534.663    22107543.296
  22565937.977    -8032915.40349  -6245705.77846  22565937.346    22565947.638
  20894767.597    -9579219.36449  -7455065.67048  20894767.184    20894773.819
  20449697.089    -3129860.41749  -2434292.51748  20449696.989    20449704.645
  20909238.129    -7728380.89349  -6013689.88848  20909237.636    20909246.073
  22976586.128    -7313521.45949  -5686416.22846  22976586.091    22976594.752
  21955536.435   -14074145.54549 -10946414.81447  21955536.009    21955545.075
  24223203.294    13679916.51949  10652613.48445  24223202.295    24223211.733
  22154310.450   -10096283.35149  -7855531.54246  22154309.951    22154321.025
                  -1562398.24349  -1201700.29943
 03  4 22 20 13  0.0000000  0 11G30G26G15G21G 6G17G29G18G10G23G16
  23999761.425    14885519.39649  11588603.40645  23999761.760    23999776.949
  22099031.512   -13112804.96449 -10196028.44646  22099031.659    22099040.229
  22553250.039    -8099590.21849  -6297660.11246  22553249.460    22553259.752
  20889674.521    -9605984.08549  -7475921.29548  20889674.079    20889680.671
  20454852.786    -3102767.16149  -2413180.92148  20454852.650    20454860.386
  20905930.817    -7745761.06949  -6027232.88648  20905930.306    20905938.714
  22976114.198    -7316000.70749  -5688348.11446  22976114.247    22976122.854
  21939867.320   -14156486.18949 -11010576.25347  21939866.976    21939876.036
  24243424.351    13786176.86749  10735413.63145  24243423.246    24243432.543
  22139513.674   -10174040.01349  -7916121.04447  22139513.204    22139524.338
                  -1605317.23649  -1235144.06643
 03  4 22 20 13 30.0000000  0 11G30G26G15G21G 6G17G29G18G10G23G16
  24019830.111    14990979.31849  11670779.56345  24019830.427    24019845.786
  22090631.464   -13156948.41249 -10230425.88446  22090631.434    22090640.074
  22540588.349    -8166127.83649  -6349507.54846  22540587.716    22540597.996
  20884620.885    -9632541.41949  -7496615.31748  20884620.398    20884626.978
  20460096.053    -3075213.75849  -2391710.76048  20460095.920    20460103.697
  20902658.954    -7762954.58349  -6040630.42448  20902658.431    20902666.815
  22975744.025    -7317947.38549  -5689864.98246  22975743.953    22975752.533
  21924263.496   -14238483.58449 -11074470.23047  21924263.269    21924272.316
  24263660.806    13892518.77849  10818277.37745  24263659.677    24263668.689
  22124784.109   -10251444.01149  -7976435.72747  22124783.581    22124794.776
                  -1647716.92949  -1268182.73543
 03  4 22 20 14  0.0000000  0 11G30G26G15G21G 6G17G29G18G10G23G16
  24039896.532    15096426.18849  11752945.53445  24039896.805    24039912.313
  22082334.518   -13200549.16049 -10264400.44246  22082334.508    22082343.080
  22527952.783    -8232527.88549  -6401247.78946  22527952.114    22527962.425
  20879606.666    -9658891.00549  -7517147.45348  20879606.189    20879612.802
  20465426.980    -3047199.90549  -2369881.81848  20465426.840    20465434.610
  20899422.632    -7779961.52349  -6053882.57848  20899422.091    20899430.533
  22975474.996    -7319360.92849  -5690966.46546  22975474.830    22975483.588
  21908725.619   -14320136.04249 -11138095.42647  21908725.335    21908734.416
  24283911.881    13998940.18149  10901203.00245  24283910.789    24283920.278
  22110121.977   -10328493.80449  -8036474.41547  22110121.372    22110132.507
                  -1689596.10149  -1300815.82645                  23376118.875
 03  4 22 20 14 30.0000000  0 11G30G26G15G21G 6G17G29G18G10G23G16
  24059960.088    15201857.38449  11835099.29045  24059960.215    24059975.833
  22074141.175   -13243604.56749 -10297950.05646  22074141.231    22074149.767
  22515343.508    -8298790.06649  -6452880.59246  22515342.852    22515353.137
  20874632.060    -9685032.80349  -7537517.67248  20874631.613    20874638.225
  20470845.632    -3018725.11449  -2347693.70348  20470845.478    20470853.250
  20896221.820    -7796782.05649  -6066989.48448  20896221.287    20896229.721
  22975307.540    -7320240.12549  -5691651.55146  22975307.505    22975316.225
  21893253.658   -14401441.77049 -11201450.44447  21893253.316    21893262.439
  24304177.568    14105438.85149  10984188.86245  24304176.540    24304186.522
  22095527.466   -10405187.85149  -8096235.88947  22095526.995    22095537.919
  23368240.769    -1730953.35949  -1333042.29345  23368241.163    23368248.760
 03  4 22 20 15  0.0000000  0 11G30G26G15G21G 6G17G29G18G10G23G16
  24080020.106    15307270.16849  11917238.71445  24080020.198    24080035.795
  22066052.027   -13286112.38849 -10331073.00246  22066052.060    22066060.725
  22502760.446    -8364914.56949  -6504406.10546  22502759.764    22502770.045
  20869696.992    -9710967.17349  -7557726.25748  20869696.510    20869703.069
  20476351.917    -2989789.49049  -2325146.50148  20476351.737    20476359.487
  20893056.539    -7813416.08049  -6079951.05548  20893055.998    20893064.372
  22975242.072    -7320585.07649  -5691920.33046  22975241.911    22975250.548
  21877847.876   -14482399.39849 -11264534.21347  21877847.462    21877856.570
  24324457.436    14212012.13149  11067232.86645  24324456.559    24324466.992
  22081001.108   -10481524.95749  -8155719.23247  22081000.561    22081011.282
  23360469.798    -1771787.53649  -1364861.11545  23360469.064    23360477.985
 03  4 22 20 15 30.0000000  0 11G30G26G15G21G 6G17G29G18G10G23G16
  24100075.929    15412661.78949  11999361.63145  24100075.974    24100091.613
  22058067.484   -13328070.10849 -10363767.28746  22058067.717    22058076.305
  22490203.491    -8430901.20049  -6555824.19646  22490202.867    22490213.131
  20864801.304    -9736693.95349  -7577773.09048  20864800.829    20864807.369
  20481945.890    -2960392.85049  -2302240.06948  20481945.744    20481953.456
  20889926.647    -7829863.69849  -6092767.38248  20889926.095    20889934.473
  22975278.319    -7320394.80549  -5691772.08046  22975278.176    22975286.647
  21862508.459   -14563007.18549 -11327345.39247  21862508.141    21862517.223
  24344751.314    14318657.90949  11150333.39045  24344750.330    24344760.985
  22066542.860   -10557503.74249  -8214923.36147  22066542.281    22066552.919
  23352799.326    -1812097.44749  -1396271.45145  23352799.054    23352807.254
 03  4 22 20 16  0.0000000  0 11G30G26G15G21G 6G17G29G18G10G23G16
  24120127.227    15518029.32449  12081465.79145  24120127.123    24120142.692
  22050188.341   -13369475.57549 -10396031.23246  22050188.492    22050196.950
  22477672.827    -8496750.26549  -6607135.09046  22477672.301    22477682.370
  20859945.046    -9762213.31849  -7597658.29948  20859944.611    20859951.174
  20487627.595    -2930535.17049  -2278974.38348  20487627.481    20487635.234
  20886832.083    -7846125.41849  -6105438.84748  20886831.577    20886839.906
  22975416.660    -7319669.12349  -5691206.59946  22975416.440    22975424.718
  21847235.875   -14643264.07049 -11389883.14047  21847235.674    21847244.727
  24365058.527    14425373.64349  11233488.37345  24365057.762    24365068.255
  22052152.854   -10633123.19649  -8273847.50447  22052152.283    22052163.046
  23345228.667    -1851882.39049  -1427272.72145  23345228.444    23345236.528
 03  4 22 20 16 30.0000000  0 11G30G26G15G21G 6G17G29G18G10G23G16
  24140173.234    15623370.33049  12163549.26745  24140173.165    24140188.755
  22042414.616   -13410326.14249 -10427862.81146  22042414.814    22042423.404
  22465168.515    -8562461.35649  -6658338.45846  22465167.878    22465177.838
  20855128.405    -9787525.17349  -7617381.81548  20855127.935    20855134.485
  20493397.170    -2900215.88949  -2255348.99548  20493397.026    20493404.811
  20883773.023    -7862201.30649  -6117965.50748  20883772.485    20883780.762
  22975656.729    -7318407.29749  -5690223.36546  22975656.454    22975664.945
  21832030.659   -14723168.22449 -11452146.02347  21832030.390    21832039.392
  24385379.017    14532157.14549  11316696.19345  24385378.164    24385388.291
  22037831.394   -10708381.68349  -8332490.37447  22037830.927    22037841.794
  23337757.885    -1891140.95949  -1457863.81045  23337757.697    23337765.989
 03  4 22 20 17  0.0000000  0 11G30G26G15G21G 6G17G29G18G10G23G16
  24160213.809    15728682.84149  12245610.54145  24160213.771    24160229.284
  22034747.220   -13450618.75949 -10459259.63046  22034747.302    22034756.053
  22452690.284    -8628033.60849  -6709433.65846  22452689.687    22452699.789
  20850351.333    -9812628.67949  -7636942.98348  20850350.853    20850357.410
  20499254.724    -2869434.14949  -2231363.26148  20499254.611    20499262.378
  20880749.341    -7878090.67449  -6130346.81848  20880748.798    20880757.128
  22975998.833    -7316608.15549  -5688821.44446  22975998.658    22976007.386
  21816893.026   -14802717.17149 -11514132.12847  21816892.680    21816901.592
  24405712.004    14639007.02049  11399955.75645  24405711.208    24405721.237
  22023579.159   -10783277.06749  -8390850.30747  22023578.724    22023589.541
  23330387.762    -1929871.30649  -1488043.30345  23330387.529    23330395.825
 03  4 22 20 17 30.0000000  0 11G30G26G15G21G 6G17G29G18G10G23G16
  24180248.375    15833963.31749  12327646.82645  24180248.302    24180263.962
  22027186.225   -13490352.12849 -10490220.66446  22027186.356    22027195.097
  22440238.451    -8693467.68549  -6760421.20246  22440237.887    22440248.099
  20845613.707    -9837524.70549  -7656342.47148  20845613.262    20845619.847
  20505200.203    -2838190.86949  -2207017.88248  20505200.065    20505207.834
  20877760.940    -7893794.77049  -6142583.77548  20877760.417    20877768.752
  22976443.354    -7314271.88749  -5687000.98346  22976443.259    22976451.884
  21801822.837   -14881910.54349 -11575841.16947  21801822.602    21801831.501
  24426056.746    14745920.30049  11483264.67945  24426055.933    24426066.170
  22009396.267   -10857808.95049  -8448926.96747  22009395.703    22009406.395
  23323118.420    -1968072.90449  -1517810.80645  23323118.091    23323126.268
 03  4 22 20 18  0.0000000  0 11G30G26G15G21G 6G17G29G18G10G23G16
  24200276.309    15939209.67449  12409656.54145  24200276.307    24200292.123
  22019732.160   -13529523.18649 -10520743.53546  22019732.277    22019741.043
  22427813.061    -8758763.20849  -6811300.77346  22427812.498    22427822.698
  20840915.713    -9862212.91249  -7675580.02348  20840915.255    20840921.826
  20511233.628    -2806485.49349  -2182312.43448  20511233.478    20511241.209
  20874807.949    -7909312.82249  -6154675.76548  20874807.402    20874815.711
  22976990.382    -7311397.79549  -5684761.43146  22976990.221    22976998.706
  21786820.888   -14960746.35149 -11637271.58347  21786820.588    21786829.538
  24446413.302    14852894.68049  11566621.27545  24446412.521    24446422.754
  21995282.664   -10931975.55149  -8506719.01047  21995282.183    21995292.770
  23315949.661    -2005744.39549  -1547165.21045  23315949.384    23315957.716
 03  4 22 20 18 30.0000000  0 11G30G26G15G21G 6G17G29G18G10G23G16
  24220297.210    16044418.56549  12491637.06345  24220297.167    24220313.343
  22012385.402   -13568130.28249 -10550826.94646  22012385.543    22012394.269
  22415414.081    -8823920.42749  -6862072.57746  22415413.512    22415423.633
  20836257.178    -9886693.85249  -7694656.08048  20836256.670    20836263.239
  20517354.880    -2774318.33549  -2157247.15448  20517354.731    20517362.379
  20871890.226    -7924645.56449  -6166623.34748  20871889.701    20871898.013
  22977639.622    -7307985.95149  -5682102.86846  22977639.431    22977647.863
  21771887.154   -15039223.77149 -11698422.73447  21771886.806    21771895.746
  24466781.244    14959927.58049  11650023.44745  24466780.420    24466790.519
  21981238.774   -11005776.24149  -8564225.92847  21981238.266    21981248.862
  23308881.895    -2042885.50449  -1576106.33845  23308881.577    23308890.122
 03  4 22 20 19  0.0000000  0 11G30G26G15G21G 6G17G29G18G10G23G16
  24240310.518    16149587.60349  12573586.51145  24240310.362    24240327.086
  22005146.419   -13606170.98349 -10580469.01846  22005146.574    22005155.255
  22403041.486    -8888939.12149  -6912736.44546  22403040.868    22403050.913
  20831638.038    -9910967.21649  -7713570.38448  20831637.587    20831644.146
  20523564.014    -2741689.21649  -2131821.90448  20523563.842    20523571.539
  20869007.704    -7939792.89049  -6178426.44348  20869007.167    20869015.634
  22978391.266    -7304035.67649  -5679024.73546  22978391.121    22978399.529
  21757021.908   -15117340.97349 -11759293.19747  21757021.518    21757030.469
  24487160.075    15067017.17349  11733469.80645  24487159.192    24487169.226
  21967264.704   -11079209.51549  -8621446.55047  21967264.240    21967274.909
  23301915.377    -2079494.91249  -1604633.15545  23301915.070    23301923.536
 03  4 22 20 19 30.0000000  0 11G30G26G15G21G 6G17G29G18G10G23G16
  24260315.800    16254713.68749  12655502.48545  24260315.582    24260332.496
  21998015.411   -13643643.52849 -10609668.38046  21998015.621    21998024.517
  22390695.020    -8953819.64449  -6963292.63446  22390694.455    22390704.410
  20827058.442    -9935033.31449  -7732323.17048  20827058.008    20827064.547
  20529861.056    -2708598.18049  -2106036.71848  20529860.923    20529868.623
  20866160.399    -7954755.48949  -6190085.60748  20866159.888    20866168.409
  22979245.528    -7299547.04549  -5675527.09746  22979245.419    22979253.710
  21742225.264   -15195097.12149 -11819882.32447  21742224.911    21742233.802
  24507549.245    15174160.59149  11816958.10245  24507548.297    24507558.199
  21953360.749   -11152274.53649  -8678380.22647  21953360.275    21953370.986
  23295050.187    -2115572.01749  -1632745.19245  23295049.863    23295058.111
 03  4 22 20 20  0.0000000  0 11G30G26G15G21G 6G17G29G18G10G23G16
  24280312.609    16359794.73949  12737383.35945  24280312.319    24280329.351
  21990993.082   -13680544.94149 -10638422.69346  21990993.432    21991002.446
  22378374.958    -9018561.32449  -7013740.63246  22378374.394    22378384.307
  20822518.431    -9958891.84249  -7750914.21648  20822517.931    20822524.475
  20536246.073    -2675044.86149  -2079891.31048  20536245.923    20536253.637
  20863348.462    -7969532.73949  -6201600.34748  20863347.925    20863356.380
  22980202.333    -7294519.16549  -5671609.26846  22980202.227    22980210.590
  21727497.752   -15272490.28849 -11880188.60347  21727497.457    21727506.223
  24527948.157    15281356.08249  11900486.98145  24527947.245    24527957.051
  21939527.268   -11224969.54549  -8735025.57847  21939526.812    21939537.448
  23288286.551    -2151115.27549  -1660441.23546  23288286.275    23288294.620
 03  4 22 20 20 30.0000000  0 11G30G26G15G21G 6G17G29G18G10G23G16
  24300300.059    16464828.00649  12819227.00445  24300299.792    24300316.838
  21984079.961   -13716873.28449 -10666730.46746  21984080.298    21984089.373
  22366081.514    -9083163.96449  -7064080.27446  22366080.895    22366090.801
  20818017.762    -9982542.79149  -7769343.51748  20818017.277    20818023.858
  20542719.014    -2641029.36149  -2053385.75348  20542718.882    20542726.635
  20860571.775    -7984124.46749  -6212970.52148  20860571.247    20860579.617
  22981261.778    -7288951.69349  -5667270.98546  22981261.703    22981269.933
  21712839.608   -15349519.29149 -11940211.11547  21712839.294    21712848.003
  24548356.519    15388601.44349  11984054.64945  24548355.587    24548365.455
  21925764.412   -11297293.33649  -8791381.68247  21925763.990    21925774.609
  23281624.666    -2186123.94849  -1687720.74746  23281624.367    23281632.735
 03  4 22 20 21  0.0000000  0 11G30G26G15G21G 6G17G29G18G10G23G16
  24320277.836    16569811.15349  12901031.56345  24320277.731    24320294.594
  21977276.677   -13752626.22349 -10694589.87046  21977276.868    21977285.864
  22353814.486    -9147627.50049  -7114311.53546  22353813.897    22353823.698
  20813556.652   -10005985.89149  -7787610.86148  20813556.175    20813562.745
  20549280.001    -2606551.50849  -2026519.93148  20549279.849    20549287.559
  20857830.257    -7998531.37149  -6224196.67948  20857829.705    20857838.063
  22982424.091    -7282844.27349  -5662511.95746  22982423.929    22982432.081
  21698251.018   -15426182.24949 -11999948.41647  21698250.694    21698259.499
  24568773.995    15495894.54149  12067659.60345  24568772.892    24568782.720
  21912072.479   -11369244.65249  -8847447.54347  21912072.068    21912082.626
  23275064.637    -2220596.92549  -1714582.82846  23275064.318    23275072.600
 03  4 22 20 21 30.0000000  0 11G30G26G15G21G 6G17G29G18G10G23G16
  24340245.501    16674740.67649  12982794.33945  24340245.429    24340262.186
  21970583.064   -13787802.15449 -10721999.65546  21970583.182    21970592.137
  22341573.860    -9211952.21049  -7164434.61646  22341573.271    22341583.001
  20809134.998   -10029221.82049  -7805716.77248  20809134.526    20809141.054
  20555928.755    -2571611.87549  -1999294.27248  20555928.617    20555936.313
  20855123.739    -8012753.94749  -6235279.20548  20855123.209    20855131.563
  22983688.830    -7276197.13349  -5657332.38446  22983688.763    22983697.063
  21683732.287   -15502478.54649 -12059399.99847  21683731.935    21683740.790
  24589199.661    15603232.69449  12151299.64045  24589198.602    24589208.774
  21898451.599   -11440822.93549  -8903222.73247  21898451.158    21898461.583
  23268606.652    -2254533.62349  -1741027.03346  23268606.419    23268614.642
 03  4 22 20 22  0.0000000  0 11G30G26G15G21G 6G17G29G18G10G23G16
  24360202.756    16779614.86049  13064513.98945  24360202.761    24360219.385
  21963999.604   -13822398.36549 -10748957.72146  21963999.710    21964008.679
  22329359.771    -9276137.39149  -7214448.97846  22329359.147    22329369.001
  20804752.855   -10052249.82749  -7823660.66848  20804752.380    20804758.931
  20562665.609    -2536209.80049  -1971708.27748  20562665.433    20562673.124
  20852452.501    -8026791.47949  -6246217.53848  20852451.958    20852460.297
  22985056.448    -7269009.47149  -5651731.62346  22985056.516    22985064.831
  21669283.931   -15578405.65349 -12118563.89647  21669283.467    21669292.252
  24609633.138    15710614.24549  12234973.51545  24609632.376    24609642.874
  21884902.037   -11512026.34349  -8958705.81147  21884901.608    21884911.873
  23262251.026    -2287932.65749  -1767052.26246  23262250.769    23262259.025
 03  4 22 20 22 30.0000000  0 11G30G26G15G21G 6G17G29G18G10G23G16
  24380148.813    16884430.92749  13146188.33945  24380148.943    24380165.812
  21957526.811   -13856412.74949 -10775462.42446  21957526.960    21957535.832
  22317172.060    -9340183.06949  -7264354.63346  22317171.514    22317181.497
  20800410.364   -10075069.77649  -7841442.43748  20800409.926    20800416.467
  20569490.392    -2500345.38949  -1943762.02148  20569490.198    20569497.939
  20849816.465    -8040644.00349  -6257011.71048  20849815.893    20849824.303
  22986527.527    -7261281.05849  -5645709.47646  22986527.408    22986535.519
  21654905.838   -15653962.50849 -12177439.28847  21654905.391    21654914.077
  24630074.841    15818036.82949  12318679.35945  24630074.104    24630084.879
  21871423.981   -11582853.71549  -9013895.87747  21871423.529    21871433.705
  23255997.809    -2320792.96149  -1792657.70345  23255997.628    23256005.987
 03  4 22 20 23  0.0000000  0 11G30G26G15G21G 6G17G29G18G10G23G16
  24400083.039    16989185.65249  13227814.90845  24400083.275    24400100.484
  21951165.169   -13889844.02149 -10801512.74246  21951165.224    21951173.986
  22305011.038    -9404089.85249  -7314152.06046  22305010.473    22305020.321
  20796107.342   -10097682.58849  -7859062.79948  20796106.865    20796113.414
  20576402.957    -2464019.47449  -1915456.14648  20576402.793    20576410.611
  20847215.423    -8054312.35549  -6267662.37248  20847214.873    20847223.318
  22988101.173    -7253012.29249  -5639266.29446  22988100.899    22988109.020
  21640598.430   -15729148.39649 -12236025.61647  21640597.966    21640606.582
  24650524.198    15925497.83649  12402415.16245  24650523.307    24650534.165
  21858017.539   -11653304.70049  -9068792.65747  21858017.020    21858027.244
  23249847.400    -2353114.34849  -1817843.22446  23249847.136    23249855.371
 03  4 22 20 23 30.0000000  0 11G30G26G15G21G 6G17G29G18G10G23G16
  24420005.044    17093876.96049  13309392.08045  24420005.422    24420023.197
  21944915.007   -13922689.61249 -10827106.68146  21944915.032    21944923.659
  22292876.600    -9467857.07049  -7363840.73046  22292875.973    22292885.799
  20791843.731   -10120087.85749  -7876521.43548  20791843.247    20791849.832
  20583403.527    -2427231.42649  -1886790.16548  20583403.346    20583411.222
  20844649.627    -8067795.87849  -6278169.01348  20844649.080    20844657.487
  22989777.506    -7244202.55749  -5632401.57646  22989777.308    22989785.537
  21626361.789   -15803962.01149 -12294321.86447  21626361.352    21626369.956
  24670980.497    16032995.66349  12486179.63645  24670979.586    24670990.459
  21844683.080   -11723377.51349  -9123394.75747  21844682.521    21844692.782
  23243799.356    -2384896.30849  -1842608.38046  23243799.192    23243807.458
 03  4 22 20 24  0.0000000  0 11G30G26G15G21G 6G17G29G18G10G23G16
  24439914.720    17198501.94749  13390917.54145  24439915.019    24439933.273
  21938776.444   -13954947.81549 -10852242.91846  21938776.461    21938785.064
  22280768.578    -9531484.66949  -7413420.61946  22280767.955    22280777.820
  20787619.713   -10142285.03449  -7893817.93048  20787619.261    20787625.810
  20590491.911    -2389981.62549  -1857764.37548  20590491.769    20590499.703
  20842118.946    -8081095.14849  -6288532.08048  20842118.352    20842126.726
  22991557.036    -7234851.92749  -5625115.37246  22991556.865    22991564.873
  21612196.249   -15878401.80149 -12352326.82347  21612195.898    21612204.465
  24691443.404    16140527.86549  12569970.88045  24691442.400    24691453.157
  21831420.727   -11793071.35449  -9177701.55147  21831420.143    21831430.413
  23237854.487    -2416137.56149  -1866952.22546  23237854.278    23237862.599
 03  4 22 20 24 30.0000000  0 11G30G26G15G21G 6G17G29G18G10G23G16
  24459811.537    17303057.62649  13472389.00045  24459811.753    24459830.077
  21932749.894   -13986616.95249 -10876920.15046  21932750.013    21932758.567
  22268687.226    -9594973.02449  -7462892.00346  22268686.589    22268696.331
  20783435.190   -10164275.03349  -7910952.99148  20783434.728    20783441.176
  20597668.193    -2352270.46849  -1828379.09248  20597668.021    20597675.960
  20839623.122    -8094210.42749  -6298751.77248  20839622.560    20839630.912
  22993439.385    -7224960.60149  -5617407.86646  22993439.104    22993447.265
  21598102.149   -15952466.95649 -12410039.85247  21598101.715    21598110.222
  24711912.412    16248091.84449  12653786.91045  24711911.359    24711922.064
  21818230.507   -11862385.54649  -9231712.52747  21818229.964    21818240.341
  23232012.643    -2446837.83349  -1890874.52246  23232012.283    23232020.568
 03  4 22 20 25  0.0000000  0 10G30G26G15G21G 6G17G29G18G23G16
  24479695.725    17407544.54749  13553806.86145  24479695.578    24479713.837
  21926836.531   -14017691.88849 -10901134.35346  21926836.617    21926845.142
  22256632.846    -9658319.01749  -7512252.45646  22256632.205    22256641.841
  20779290.663   -10186054.72649  -7927924.17548  20779290.177    20779296.578
  20604932.740    -2314095.21149  -1798632.17048  20604932.542    20604940.478
  20837162.909    -8107138.83549  -6308825.85348  20837162.353    20837170.622
  22995425.031    -7214525.63649  -5609276.73546  22995424.819    22995432.930
  21584080.074   -16026152.94849 -12467457.43247  21584079.653    21584088.139
  21805113.412   -11931316.02349  -9285424.50347  21805112.895    21805123.259
  23226273.981    -2476993.62949  -1914372.54646  23226273.685    23226282.169
 03  4 22 20 25 30.0000000  0 10G30G26G15G21G 6G17G29G18G23G16
  24499565.335    17511957.61349  13635167.19345  24499565.333    24499583.264
  21921035.948   -14048173.26049 -10924886.06046  21921036.073    21921044.676
  22244605.029    -9721524.87349  -7561503.70346  22244604.441    22244614.069
  20775185.726   -10207626.47349  -7944733.31848  20775185.239    20775191.670
  20612285.135    -2275458.41049  -1768525.60548  20612284.962    20612292.810
  20834737.825    -8119883.11549  -6318756.46248  20834737.251    20834745.422
  22997513.648    -7203549.22849  -5600723.69746  22997513.423    22997521.592
  21570129.908   -16099461.19649 -12524580.66347  21570129.530    21570137.938
  21792069.115   -11999864.16349  -9338838.54047  21792068.595    21792078.866
  23220639.027    -2506606.45449  -1937447.49746  23220638.686    23220647.093
 03  4 22 20 26  0.0000000  0 10G30G26G15G21G 6G17G29G18G23G16
  24519420.098    17616293.72249  13716467.53445  24519420.278    24519438.090
  21915348.629   -14078059.94049 -10948174.36446  21915348.830    21915357.350
  22232604.011    -9784591.05949  -7610646.12146  22232603.359    22232612.954
  20771120.153   -10228991.06949  -7961381.04548  20771119.683    20771126.177
  20619725.224    -2236360.69449  -1738059.88448  20619725.051    20619732.877
  20832347.678    -8132443.74749  -6328543.96648  20832347.076    20832355.307
  22999705.366    -7192031.91649  -5591749.17546  22999705.195    22999713.263
  21556251.823   -16172391.02549 -12581409.03147  21556251.388    21556259.805
  21779097.674   -12068029.38649  -9391954.21047  21779097.115    21779107.335
  23215107.194    -2535676.27149  -1960099.29246  23215106.806    23215115.320
 03  4 22 20 26 30.0000000  0 10G30G26G15G21G 6G17G29G18G23G16
  24539259.723    17720549.96049  13797705.65645  24539259.853    24539277.933
  21909775.002   -14107350.14749 -10970997.86846  21909775.118    21909783.558
  22220629.378    -9847517.61849  -7659679.74246  22220628.729    22220638.372
  20767094.019   -10250148.68549  -7977867.49448  20767093.550    20767100.003
  20627252.938    -2196802.59549  -1707235.42548  20627252.780    20627260.645
  20829992.294    -8144821.12849  -6338188.67448  20829991.707    20830000.019
  23002000.210    -7179973.91749  -5582353.31146  23001999.967    23002007.811
  21542445.855   -16244941.45749 -12637941.77447  21542445.446    21542453.900
  21766199.230   -12135810.91749  -9444770.90447  21766198.654    21766208.899
  23209678.797    -2564202.60649  -1982327.59245  23209678.484    23209686.952
 03  4 22 20 27  0.0000000  0 10G30G26G15G21G 6G17G29G18G23G16
  24559083.737    17824724.17149  13878879.82945  24559083.919    24559102.108
  21904315.232   -14136041.78649 -10993354.96446  21904315.268    21904323.855
  22208681.423    -9910304.39749  -7708604.44046  22208680.800    22208690.347
  20763107.315   -10271098.85449  -7994192.29548  20763106.810    20763113.276
  20634868.211    -2156784.22649  -1676052.31548  20634868.048    20634875.949
  20827671.798    -8157015.03749  -6347690.41448  20827671.233    20827679.567
  23004397.453    -7167374.87249  -5572535.89346  23004397.228    23004405.393
  21528712.408   -16317110.96349 -12694177.67847  21528712.023    21528720.446
  21753373.957   -12203207.54949  -9497287.67847  21753373.403    21753383.657
  23204354.028    -2592184.77449  -2004131.89245  23204353.730    23204362.144
 03  4 22 20 27 30.0000000  0 10G30G26G15G21G 6G17G29G18G23G16
  24578892.016    17928814.83249  13959988.93245  24578892.036    24578910.316
  21898969.720   -14164131.84249 -11015243.29446  21898969.818    21898978.574
  22196760.327    -9972950.18649  -7757419.28346  22196759.693    22196769.263
  20759160.217   -10291840.57849  -8010354.67648  20759159.763    20759166.280
  20642571.293    -2116304.64149  -1644509.81848  20642571.105    20642578.998
  20825386.576    -8169023.97549  -6357048.02648  20825386.025    20825394.328
  23006897.821    -7154233.93649  -5562296.20346  23006897.776    23006906.181
  21515051.954   -16388897.13849 -12750114.88547  21515051.560    21515059.910
  21740622.216   -12270217.12949  -9549502.85747  21740621.791    21740632.089
  23199132.982    -2619620.82549  -2025510.64345  23199132.665    23199141.254
 03  4 22 20 28  0.0000000  0 10G30G26G15G21G 6G17G29G18G23G16
  24598683.520    18032819.01649  14041030.62145  24598683.674    24598702.068
  21893739.039   -14191618.81249 -11036661.68846  21893739.180    21893748.105
  22184865.948   -10035455.00949  -7806124.27046  22184865.308    22184875.011
  20755252.906   -10312373.62349  -8026354.43948  20755252.458    20755258.998
  20650361.947    -2075364.24449  -1612608.24648  20650361.792    20650369.758
  20823136.507    -8180848.41649  -6366261.86848  20823135.943    20823144.214
  23009501.396    -7140551.32349  -5551634.43746  23009501.434    23009510.030
  21501464.682   -16460299.04249 -12805752.66247  21501464.196    21501472.530
  21727944.481   -12336839.03749  -9601415.94547  21727943.998    21727954.268
  23194015.961    -2646510.50949  -2046463.66145  23194015.548    23194024.431
 03  4 22 20 28 30.0000000  0 10G30G26G15G21G 6G17G29G18G23G16
  24618458.068    18136734.18449  14122002.97945  24618458.495    24618477.053
  21888623.525   -14218501.27849 -11057609.02846  21888623.661    21888632.571
  22172998.371   -10097818.92649  -7854719.47946  22172997.743    22173007.542
  20751385.230   -10332698.44549  -8042191.95548  20751384.755    20751391.309
  20658240.215    -2033963.55449  -1580348.00548  20658240.088    20658248.068
  20820921.420    -8192488.53149  -6375332.08648  20820920.847    20820929.133
  23012208.226    -7126327.15149  -5540550.66646  23012208.279    23012216.893
  21487950.505   -16531315.71349 -12861090.26747  21487950.062    21487958.447
  21715340.650   -12403072.58149  -9653026.41747  21715340.133    21715350.283
  23189003.041    -2672853.48849  -2066990.69945  23189002.727    23189011.601
 03  4 22 20 29  0.0000000  0 10G30G26G15G21G 6G17G29G18G23G16
  24638215.478    18240557.15849  14202903.47145  24638215.777    24638234.407
  21883623.125   -14244778.18449 -11078084.51146  21883623.283    21883632.178
  22161157.563   -10160042.38449  -7903205.23346  22161156.931    22161166.656
  20747557.077   -10352815.60749  -8057867.66748  20747556.635    20747563.118
  20666205.919    -1992103.47249  -1547729.80048  20666205.823    20666213.816
  20818741.130    -8203945.60149  -6384259.67748  20818740.606    20818748.934
  23015018.029    -7111562.28549  -5529045.56746  23015018.014    23015026.470
  21474509.724   -16601946.58149 -12916127.23647  21474509.357    21474517.763
  21702810.768   -12468917.35549  -9704333.94747  21702810.247    21702820.300
  23184094.220    -2698649.60849  -2087091.61945  23184093.886    23184102.889
 03  4 22 20 29 30.0000000  0 10G30G26G15G21G 6G17G29G18G23G16
  24657954.843    18344285.53849  14283730.28545  24657955.052    24657973.936
  21878738.421   -14270447.34649 -11098086.41846  21878738.634    21878747.385
  22149343.561   -10222124.94449  -7951581.19746  22149342.929    22149352.570
  20743768.489   -10372724.83849  -8073381.34748  20743767.988    20743774.518
  20674259.052    -1949783.89749  -1514753.55048  20674258.968    20674267.012
  20816595.926    -8215218.96349  -6393044.11448  20816595.381    20816603.680
  23017930.596    -7096256.48249  -5517118.96446  23017930.579    23017939.097
  21461142.779   -16672190.21149 -12970862.45147  21461142.400    21461150.783
  21690355.058   -12534371.99849  -9755337.48247  21690354.550    21690364.586
  23179289.716    -2723898.06549  -2106765.76945  23179289.371    23179298.256
 03  4 22 20 30  0.0000000  0 10G30G26G15G21G 6G17G29G18G23G16
  24677675.540    18447917.19249  14364481.68045  24677675.899    24677695.156
  21873969.789   -14295506.94049 -11117613.35246  21873969.866    21873978.663
  22137556.417   -10284066.38149  -7999847.20046  22137555.809    22137565.474
  20740019.431   -10392425.73849  -8088732.68848  20740018.964    20740025.606
  20682399.646    -1907005.09249  -1481419.45448  20682399.543    20682407.578
  20814485.656    -8226308.29049  -6401685.15248  20814485.142    20814493.427
  23020945.991    -7080409.78649  -5504770.88346  23020946.050    23020954.668
  21447849.683   -16742045.31349 -13025294.93147  21447849.313    21447857.668
  21677973.687   -12599435.57949  -9806036.30647  21677973.252    21677983.328
  23174589.476    -2748598.49649  -2126012.87145  23174589.145    23174597.831
 03  4 22 20 30 30.0000000  0  9G26G15G21G 6G17G29G18G23G16
  21869318.978   -14319946.37249 -11136657.03546  21869319.195    21869327.976
  22125797.868   -10345857.58749  -8047996.13246  22125797.250    22125806.992
  20736311.811   -10411909.40149  -8103914.75348  20736311.380    20736317.967
  20690629.292    -1863758.32949  -1447720.72347  20690629.195    20690637.179
  20812412.078    -8237205.04849  -6410176.12948  20812411.557    20812419.871
  23024066.333    -7064013.26949  -5491994.37746  23024066.341    23024074.920
  21434632.498   -16811501.73749 -13079416.74947  21434632.163    21434640.472
  21665668.805   -12664098.16649  -9856422.65847  21665668.390    21665678.366
  23169995.184    -2772741.32349  -2144825.47445  23169994.916    23170003.527
 03  4 22 20 31  0.0000000  0  9G26G15G21G 6G17G29G18G23G16
  21864785.017   -14343773.29049 -11155223.42346  21864785.134    21864793.715
  22114066.211   -10407507.67649  -8096035.10146  22114065.561    22114075.401
  20732643.916   -10431184.87649  -8118934.60248  20732643.450    20732649.885
  20698946.188    -1820053.26649  -1413664.87347  20698946.048    20698954.026
  20810373.461    -8247918.15749  -6418524.00248  20810372.899    20810381.284
  23027289.347    -7047076.45849  -5478796.85746  23027289.270    23027297.900
  21421489.652   -16880567.56449 -13133234.20147  21421489.292    21421497.595
  21653438.664   -12728368.15049  -9906503.07247  21653438.187    21653448.157
  23165505.492    -2796335.34249  -2163210.46046  23165505.234    23165513.753
 03  4 22 20 31 30.0000000  0  9G26G15G21G 6G17G29G18G23G16
  21860367.228   -14366988.69649 -11173313.30946  21860367.413    21860375.915
  22102360.865   -10469019.06349  -8143965.99947  22102360.324    22102370.168
  20729014.842   -10450255.87249  -8133795.11948  20729014.362    20729020.845
  20707349.679    -1775892.72249  -1379254.10547  20707349.530    20707357.513
  20808369.208    -8258450.27949  -6426730.85248  20808368.686    20808377.107
  23030614.271    -7029602.19349  -5465180.55546  23030614.348    23030623.087
  21408420.810   -16949244.22049 -13186748.40747  21408420.469    21408428.745
  21641282.804   -12792247.20449  -9956278.87247  21641282.352    21641292.303
  23161119.581    -2819382.60349  -2181169.36046  23161119.371    23161128.132
 03  4 22 20 32  0.0000000  0  9G26G15G21G 6G17G29G18G23G16
  21856066.246   -14389590.14549 -11190924.79546  21856066.411    21856075.016
  22090682.280   -10530390.72149  -8191788.01347  22090681.699    22090691.481
  20725424.803   -10469121.12749  -8148495.30948  20725424.337    20725430.984
  20715839.739    -1731276.41749  -1344488.19047  20715839.633    20715847.735
  20806399.688    -8268800.57549  -6434796.02048  20806399.159    20806407.472
  23034041.914    -7011589.66449  -5451144.82146  23034041.995    23034050.790
  21395426.353   -17017529.87349 -13239957.93847  21395426.075    21395434.347
  21629201.749   -12855733.83349 -10005748.88647  21629201.186    21629211.098
  23156838.078    -2841882.02249  -2198701.39546  23156837.855    23156846.692
 03  4 22 20 32 30.0000000  0  9G26G15G21G 6G17G29G18G23G16
  21851882.581   -14411575.83449 -11208056.46246  21851882.756    21851891.175
  22079030.265   -10591622.28949  -8239500.87247  22079029.676    22079039.426
  20721874.322   -10487778.71149  -8163033.67948  20721873.875    20721880.589
  20724416.750    -1686204.34149  -1309367.14347  20724416.635    20724424.742
  20804464.780    -8278968.87749  -6442719.37548  20804464.239    20804472.421
  23037572.193    -6993039.08049  -5436689.81646  23037572.190    23037580.905
  21382506.679   -17085423.13949 -13292861.70947  21382506.389    21382514.761
  21617195.450   -12918826.79949 -10054912.15247  21617194.898    21617204.803
  23152661.001    -2863832.86349  -2215805.97346  23152660.756    23152669.507
 03  4 22 20 33  0.0000000  0  9G26G15G21G 6G17G29G18G23G16
  21847816.471   -14432943.56649 -11224706.61546  21847816.572    21847824.987
  22067404.947   -10652712.87549  -8287103.88347  22067404.444    22067414.202
  20718363.538   -10506228.00649  -8177409.74948  20718363.106    20718369.735
  20733080.544    -1640676.25149  -1273890.75247  20733080.407    20733088.492
  20802564.533    -8288954.41149  -6450500.31048  20802564.005    20802572.267
  23041204.963    -6973949.95849  -5421815.16846  23041204.856    23041213.545
  21369661.968   -17152922.27349 -13345458.37047  21369661.631    21369670.076
  21605264.322   -12981524.52849 -10103767.44347  21605263.827    21605273.752
  23148588.672    -2885233.87949  -2232482.09346  23148588.386    23148597.052
 03  4 22 20 33 30.0000000  0  9G26G15G21G 6G17G29G18G23G16
  21843868.335   -14453690.43149 -11240872.97646  21843868.544    21843876.952
  22055807.016   -10713660.84349  -8334595.76047  22055806.513    22055816.233
  20714892.674   -10524467.88049  -8191622.64048  20714892.218    20714898.711
  20741831.182    -1594691.01149  -1238058.14647  20741831.109    20741839.174
  20800699.397    -8298755.35549  -6458137.41148  20800698.896    20800707.262
  23044939.871    -6954321.08749  -5406519.95146  23044939.940    23044948.708
  21356892.737   -17220024.67549 -13397745.88447  21356892.381    21356900.828
  21593408.924   -13043824.79849 -10152313.02747  21593408.424    21593418.312
  23144621.193    -2906083.59549  -2248728.62746  23144620.912    23144629.623
 03  4 22 20 34  0.0000000  0  9G26G15G21G 6G17G29G18G23G16
  21840038.829   -14473814.93249 -11256554.36846  21840039.015    21840047.473
  22044236.204   -10774466.07149  -8381976.40047  22044235.613    22044245.316
  20711461.610   -10542498.11549  -8205672.16948  20711461.154    20711467.673
  20750668.875    -1548249.07649  -1201869.67647  20750668.811    20750676.826
  20798869.403    -8308372.24749  -6465631.09348  20798868.883    20798877.264
  23048777.727    -6934152.86049  -5390804.44546  23048777.773    23048786.518
  21344199.142   -17286729.41049 -13449723.52947  21344198.839    21344207.207
  21581629.349   -13105726.60149 -10200548.11547  21581628.849    21581638.702
  23140758.726    -2926381.49149  -2264545.17846  23140758.336    23140767.031
 03  4 22 20 34 30.0000000  0  9G26G15G21G 6G17G29G18G23G16
  21836327.962   -14493315.80549 -11271749.81946  21836328.105    21836336.469
  22032692.429   -10835128.60149  -8429245.83647  22032691.815    22032701.532
  20708070.346   -10560318.72749  -8219558.34548  20708069.932    20708076.539
  20759593.404    -1501351.02349  -1165325.78447  20759593.292    20759601.263
  20797074.380    -8317805.15249  -6472981.40548  20797073.845    20797082.231
  23052718.165    -6913445.52649  -5374668.86746  23052718.275    23052727.000
  21331581.500   -17353035.40149 -13501390.45347  21331581.204    21331589.464
  21569925.771   -13167229.28649 -10248472.20347  21569925.202    21569934.991
  23137001.060    -2946127.55149  -2279931.73046  23137000.708    23137009.446
 03  4 22 20 35  0.0000000  0 10G 2G26G15G21G 6G17G29G18G23G16
  25246654.522    -4197331.60248  -3251592.01044  25246654.045    25246664.401
  21832735.612   -14512193.72749 -11286459.85346  21832735.702    21832744.048
  22021175.544   -10895650.27949  -8476405.53147  22021174.957    22021184.522
  20704718.664   -10577931.92949  -8233282.91448  20704718.272    20704724.882
  20768604.109    -1453999.56449  -1128428.59547  20768603.965    20768611.984
  20795314.059    -8327055.85849  -6480189.74748  20795313.534    20795321.903
  23056760.872    -6892201.84949  -5358115.35946  23056760.906    23056769.679
  21319039.512   -17418943.72749 -13552747.52447  21319039.216    21319047.427
  21558297.785   -13228334.36749 -10296086.46847  21558297.212    21558306.928
  23133348.193    -2965323.54649  -2294889.66046  23133347.826    23133356.611
 03  4 22 20 35 30.0000000  0 10G 2G26G15G21G 6G17G29G18G23G16
  25236963.921    -4248254.52948  -3291272.14844  25236963.594    25236974.423
  21829261.602   -14530448.47349 -11300684.30946  21829261.767    21829270.205
  22009685.366   -10956031.89049  -8523456.08247  22009684.743    22009694.275
  20701406.358   -10595338.79249  -8246846.69848  20701405.935    20701412.444
  20777700.732    -1406196.26749  -1091179.31747  20777700.597    20777708.717
  20793588.237    -8336125.30849  -6487256.85248  20793587.709    20793596.035
  23060905.295    -6870423.24949  -5341145.02446  23060905.228    23060913.956
  21306573.029   -17484454.70249 -13603794.97247  21306572.777    21306581.050
  21546745.407   -13289042.22749 -10343391.21247  21546744.819    21546754.556
  23129799.897    -2983970.21149  -2309419.55546  23129799.553    23129808.264
 03  4 22 20 36  0.0000000  0 10G 2G26G15G21G 6G17G29G18G23G16
  25227346.965    -4298791.07949  -3330651.24544  25227346.872    25227357.929
  21825907.915   -14548072.22949 -11314417.06946  21825908.048    21825916.497
  21998222.926   -11016266.78449  -8570392.31747  21998222.328    21998231.909
  20698134.519   -10612532.45349  -8260244.35348  20698134.090    20698140.556
  20786884.539    -1357935.04649  -1053573.22347  20786884.459    20786892.655
  20791897.994    -8345007.49049  -6494178.02648  20791897.449    20791905.768
  23065152.595    -6848103.57549  -5323753.06546  23065152.547    23065161.101
  21294183.660   -17549560.80149 -13654526.93147  21294183.414    21294191.761
  21535269.942   -13349345.48449 -10390380.69347  21535269.433    21535279.217
  23126357.269    -3002061.06649  -2323516.35846  23126356.956    23126365.682
 03  4 22 20 36 30.0000000  0 10G 2G26G15G21G 6G17G29G18G23G16
  25217804.014    -4348942.36848  -3369730.20444  25217803.617    25217814.583
  21822674.155   -14565066.07949 -11327658.99946  21822674.247    21822682.777
  21986787.993   -11076357.19549  -8617215.96247  21986787.414    21986796.910
  20694902.911   -10629514.99149  -8273477.49248  20694902.447    20694908.887
  20796155.037    -1309218.93749  -1015612.67247  20796154.901    20796163.092
  20790243.007    -8353704.43949  -6500954.87148  20790242.475    20790250.788
  23069502.154    -6825245.77149  -5305941.80046  23069502.126    23069510.776
  21281871.261   -17614263.23849 -13704944.35047  21281870.977    21281879.242
  21523871.235   -13409245.89249 -10437056.26247  21523870.694    21523880.465
  23123020.062    -3019598.18749  -2337181.64146  23123019.747    23123028.523
 03  4 22 20 37  0.0000000  0 10G 2G26G15G21G 6G17G29G18G23G16
  25208334.341    -4398707.34748  -3408508.14344  25208334.041    25208344.711
  21819560.270   -14581428.99949 -11340409.31946  21819560.393    21819569.108
  21975380.659   -11136303.21449  -8663927.09047  21975380.081    21975389.410
  20691711.354   -10646286.87549  -8286546.47848  20691710.877    20691717.314
  20805511.839    -1260048.65049   -977298.22147  20805511.704    20805519.883
  20788623.312    -8362216.12049  -6507587.34148  20788622.786    20788631.084
  23073954.128    -6801850.55549  -5287711.75946  23073954.094    23073962.780
  21269635.827   -17678561.43949 -13755046.77047  21269635.478    21269643.681
  21512549.190   -13468743.00749 -10483417.57747  21512548.683    21512558.470
  23119788.353    -3036581.64049  -2350415.53146  23119788.044    23119796.538
 03  4 22 20 37 30.0000000  0 10G 2G26G15G21G 6G17G29G18G23G16
  25198937.438    -4448085.09348  -3446984.25844  25198936.702
  21816566.770   -14597159.78249 -11352667.05046  21816566.955    21816575.584
  21964000.846   -11196104.70849  -8710525.60947  21964000.229    21964009.512
  20688559.798   -10662848.30449  -8299451.47348  20688559.338    20688565.754
  20814954.868    -1210424.85749   -938630.38247  20814954.777    20814963.050
  20787038.764    -8370542.98149  -6514075.80148  20787038.203    20787046.503
  23078508.317    -6777918.28949  -5269063.25946  23078508.241    23078517.033
  21257477.284   -17742454.46049 -13804833.47247  21257476.985    21257485.216
  21501304.075   -13527836.12049 -10529464.07547  21501303.557    21501313.336
  23116661.931    -3053011.31849  -2363217.89546  23116661.558    23116670.114
 03  4 22 20 38  0.0000000  0 10G 2G26G15G21G 6G17G29G18G23G16
  25189614.832    -4497073.86948  -3485157.31444  25189613.385
  21813694.022   -14612256.83549 -11364430.96146  21813694.134    21813702.612
  21952648.505   -11255761.57549  -8757011.43147  21952647.908    21952657.244
  20685448.390   -10679199.30049  -8312192.50148  20685447.922    20685454.258
  20824484.199    -1160347.92749   -899609.45347  20824484.120    20824492.372
  20785489.468    -8378684.58149  -6520419.89848  20785488.935    20785497.196
  23083164.612    -6753449.37249  -5249996.59446  23083164.558    23083173.369
  21245396.154   -17805941.43749 -13854303.77847  21245395.848    21245403.984
  21490136.039   -13586524.53549 -10575195.22947  21490135.479    21490145.243
  23113640.813    -3068887.02549  -2375588.59646  23113640.480    23113649.122
 03  4 22 20 38 30.0000000  0 10G 2G26G15G21G 6G17G29G18G23G16
  25180366.236    -4545673.29948  -3523027.01244  25180364.756    25180376.847
  21810941.726   -14626719.86749 -11375700.84346  21810941.800    21810950.390
  21941323.548   -11315274.15249  -8803384.82147  21941322.938    21941332.367
  20682376.981   -10695339.57849  -8324769.33148  20682376.469    20682382.861
  20834099.731    -1109818.88849   -860236.24047  20834099.573    20834107.732
  20783975.434    -8386641.17249  -6526619.83848  20783974.894    20783983.140
  23087922.855    -6728444.86449  -5230512.57046  23087922.764    23087931.530
  21233392.389   -17869021.67649 -13903457.14447  21233392.049    21233400.107
  21479044.962   -13644808.09649 -10620610.91947  21479044.457    21479054.237
  23110725.061    -3084209.26649  -2387528.03946  23110724.788    23110733.354
 03  4 22 20 39  0.0000000  0 10G 2G26G15G21G 6G17G29G18G23G16
  25171192.481    -4593882.34348  -3560592.49644  25171191.337    25171202.880
  21808310.199   -14640547.67549 -11386475.74146  21808310.420    21808319.037
  21930026.074   -11374642.19849  -8849645.57647  21930025.499    21930034.898
  20679345.495   -10711269.32849  -8337182.11248  20679345.048    20679351.511
  20843800.967    -1058838.57949   -820511.37647  20843800.857    20843809.012
  20782496.465    -8394413.09949  -6532675.88248  20782495.928    20782504.210
  23092782.806    -6702905.61149  -5210611.85446  23092782.789    23092791.383
  21221466.122   -17931694.49749 -13952293.04647  21221465.745    21221473.819
  21468031.165   -13702686.29649 -10665710.73547  21468030.602    21468040.325
  23107914.871    -3098977.93449  -2399036.13646  23107914.464    23107922.965
 03  4 22 20 39 30.0000000  0 10G 2G26G15G21G 6G17G29G18G23G16
  25162093.120    -4641700.50248  -3597853.35744  25162092.485    25162103.683
  21805799.850   -14653739.80649 -11396755.31946  21805800.009    21805808.666
  21918756.137   -11433866.15349  -8895794.05547  21918755.561    21918764.885
  20676354.098   -10726989.03049  -8349431.22048  20676353.678    20676360.137
  20853587.888    -1007408.34449   -780435.92647  20853587.781    20853595.954
  20781052.406    -8402001.18849  -6538588.67248  20781051.897    20781060.272
  23097744.344    -6676832.77149  -5190295.37446  23097744.294    23097752.825
  21209617.331   -17993959.75849 -14000811.37147  21209616.978    21209624.999
  21457094.346   -13760159.02949 -10710494.61147  21457093.813    21457103.492
  23105209.655    -3113193.75349  -2410113.43246  23105209.287    23105217.843
 03  4 22 20 40  0.0000000  0 10G 2G26G15G21G 6G17G29G18G23G16
  25153068.836    -4689125.94648  -3634808.26244  25153067.953    25153079.182
  21803410.767   -14666294.53549 -11406538.20846  21803410.953    21803419.606
  21907513.800   -11492945.23149  -8941829.65747  21907513.164    21907522.523
  20673402.907   -10742498.08949  -8361516.20548  20673402.471    20673408.906
  20863460.400     -955528.06349   -740009.79147  20863460.317    20863468.467
  20779643.637    -8409404.37649  -6544357.38948  20779643.142    20779651.478
  23102807.532    -6650226.37149  -5169563.12446  23102807.479    23102815.944
  21197846.453   -18055815.97449 -14049010.95147  21197846.077    21197854.030
  21446234.998   -13817225.08949 -10754961.58447  21446234.461    21446244.059
  23102609.799    -3126856.00449  -2420759.38846  23102609.426    23102618.046
 03  4 22 20 40 30.0000000  0 10G 2G26G15G21G 6G17G29G18G23G16
  25144119.053    -4736157.59648  -3671456.28444  25144118.150    25144129.518
  21801143.289   -14678210.90849 -11415823.66846  21801143.452    21801151.780
  21896298.852   -11551879.58649  -8987752.47347  21896298.268    21896307.609
  20670491.754   -10757796.35549  -8373436.92048  20670491.297    20670497.805
  20873418.487     -903198.55349   -699233.61147  20873418.353    20873426.430
  20778270.018    -8416623.05849  -6549982.33748  20778269.443    20778277.777
  23107972.064    -6623086.94349  -5148415.53046  23107971.944    23107980.380
  21186153.608   -18117262.18249 -14096891.04147  21186153.202    21186161.139
  21435453.033   -13873884.05849 -10799111.35547  21435452.515    21435462.126
  23100115.251    -3139964.96049  -2430974.20746  23100114.923    23100123.524
 03  4 22 20 41  0.0000000  0 10G 2G26G15G21G 6G17G29G18G23G16
  25135244.375    -4782794.31448  -3707796.51744  25135243.613    25135255.152
  21798997.481   -14689487.85749 -11424610.88846  21798997.548    21799005.829
  21885111.634   -11610668.73549  -9033562.15247  21885111.003    21885120.285
  20667620.663   -10772883.68949  -8385193.27148  20667620.194    20667626.776
  20883461.835     -850420.47149   -658107.88447  20883461.710    20883469.848
  20776931.435    -8423656.93449  -6555463.27948  20776930.890    20776939.324
  23113237.877    -6595415.23549  -5126853.18646  23113237.728    23113246.142
  21174538.822   -18178297.60449 -14144451.05147  21174538.472    21174546.392
  21424748.635   -13930135.33849 -10842943.44447  21424748.176    21424757.790
  23097726.090    -3152520.55649  -2440757.82746  23097725.747    23097734.320
 03  4 22 20 41 30.0000000  0 10G 2G26G15G21G 6G17G29G18G23G16
  25126445.393    -4829035.16648  -3743828.31944  25126445.190    25126456.665
  21796973.074   -14700124.65149 -11432899.30146  21796973.230    21796981.650
  21873952.018   -11669312.45649  -9079258.52147  21873951.419    21873960.809
  20664789.768   -10787759.98349  -8396785.18348  20664789.304    20664795.834
  20893590.371     -797194.78949   -616633.38047  20893590.268    20893598.469
  20775628.063    -8430505.86849  -6560800.10548  20775627.572    20775636.075
  23118604.867    -6567212.07749  -5104876.72246  23118604.673    23118613.002
  21163002.390   -18238921.67449 -14191690.52047  21163002.049    21163009.973
  21414122.014   -13985978.57749 -10886457.57847  21414121.522    21414131.108
  23095442.182    -3164522.95349  -2450110.37046  23095441.868    23095450.381
 03  4 22 20 42  0.0000000  0 10G 2G26G15G21G 6G17G29G18G23G16
  25117721.792    -4874878.27258  -3779550.25644  25117721.957
  21795071.094   -14710119.44449 -11440687.44246  21795071.306    21795079.796
  21862820.298   -11727809.90149  -9124840.90447  21862819.715    21862829.118
  20661999.205   -10802424.31449  -8408211.92848  20661998.756    20662005.196
  20903804.195     -743521.27949   -574809.92147  20903804.067    20903812.209
  20774360.113    -8437169.04149  -6565992.18248  20774359.600    20774368.137
  23124072.949    -6538477.60549  -5082486.21446  23124072.748    23124080.883
  21151544.578   -18299132.63649 -14238608.09447  21151544.261    21151552.166
  21403573.259   -14041412.36249 -10929652.66147  21403572.775    21403582.375
  23093263.527    -3175971.55149  -2459031.38046  23093263.237    23093271.833
 03  4 22 20 42 30.0000000  0 10G 2G26G15G21G 6G17G29G18G23G16
  25109073.758    -4920323.17148  -3814961.83244  25109073.861
  21793291.476   -14719471.73149 -11447974.92646  21793291.618    21793300.080
  21851716.390   -11786161.40949  -9170309.56147  21851715.782    21851725.007
  20659248.960   -10816876.96349  -8419473.72548  20659248.500    20659254.925
  20914102.935     -689401.25949   -532638.53447  20914102.808    20914110.913
  20773127.318    -8443647.10349  -6571040.02448  20773126.843    20773135.346
  23129641.862    -6509212.65649  -5059682.39746  23129641.603    23129649.876
  21140165.476   -18358930.21249 -14285203.53447  21140165.128    21140172.986
  21393102.355   -14096436.70749 -10972528.69947  21393101.934    21393111.461
  23091190.335    -3186866.58149  -2467521.03146  23091190.031    23091198.542
 03  4 22 20 43  0.0000000  0 10G 2G26G15G21G 6G17G29G18G23G16
  25100502.080    -4965368.56248  -3850062.14444  25100502.181    25100512.391
  21791634.241   -14728180.43449 -11454760.90746  21791634.395    21791642.816
  21840640.300   -11844366.46449  -9215664.09447  21840639.670    21840648.807
  20656539.040   -10831117.69249  -8430570.39248  20656538.586    20656545.015
  20924486.544     -634835.27649   -490119.63747  20924486.389    20924494.577
  20771929.979    -8449939.48949  -6575943.18048  20771929.482    20771937.904
  23135311.494    -6479417.92949  -5036465.73946  23135311.327    23135319.628
  21128865.187   -18418313.48349 -14331476.14647  21128864.831    21128872.692
  21382709.647   -14151050.79949 -11015085.06447  21382709.198    21382718.657
  23089222.366    -3197208.38349  -2475579.62946  23089222.015    23089230.541
 03  4 22 20 43 30.0000000  0 10G 2G26G15G21G 6G17G29G18G23G16
  25092006.643    -5010012.93948  -3884849.96744  25092006.196    25092017.513
  21790099.738   -14736244.15649 -11461044.31247  21790099.928    21790108.338
  21829592.116   -11902424.45949  -9260904.03947  21829591.548    21829600.744
  20653869.639   -10845145.72149  -8441501.31848  20653869.174    20653875.568
  20934954.874     -579823.54849   -447253.40747  20934954.752    20934963.089
  20770768.078    -8456045.47849  -6580701.08548  20770767.557    20770776.000
  23141082.015    -6449093.70649  -5012836.48246  23141081.882    23141089.921
  21117643.968   -18477281.28049 -14377425.02347  21117643.590    21117651.450
  21372395.210   -14205253.63549 -11057320.96847  21372394.699    21372404.220
  23087359.590    -3206996.58249  -2483206.82846  23087359.323    23087367.961
 03  4 22 20 44  0.0000000  0 10G 2G26G15G21G 6G17G29G18G23G16
  25083587.557    -5054255.99148  -3919325.04244  25083587.142    25083598.715
  21788687.930   -14743662.86949 -11466825.11346  21788688.126    21788696.588
  21818571.895   -11960335.85849  -9306029.75747  21818571.318    21818580.586
  20651240.575   -10858961.50749  -8452266.86848  20651240.124    20651246.480
  20945507.866     -524367.53049   -404040.98447  20945507.746    20945516.042
  20769641.446    -8461965.85749  -6585314.36348  20769640.917    20769649.386
  23146953.009    -6418241.45549  -4988795.78746  23146952.838    23146960.756
  21106501.704   -18535833.43449 -14423050.02047  21106501.363    21106509.278
  21362158.826   -14259045.55849 -11099236.69347  21362158.356    21362167.915
  23085602.307    -3216231.85849  -2490403.19346  23085602.000    23085610.709
 03  4 22 20 44 30.0000000  0 10G 2G26G15G21G 6G17G29G18G23G16
  25075245.079    -5098096.49649  -3953486.48644  25075244.780    25075255.810
  21787399.035   -14750435.40349 -11472102.39246  21787399.257    21787407.840
  21807579.748   -12018100.14049  -9351040.83547  21807579.157    21807588.354
  20648651.950   -10872564.76349  -8462866.80348  20648651.496    20648657.891
  20956145.329     -468467.86449   -360482.85547  20956145.203    20956153.416
  20768550.201    -8467700.34349  -6589782.79348  20768549.712    20768558.098
  23152924.342    -6386861.76149  -4964344.09846  23152924.214    23152932.112
  21095438.750   -18593969.06249 -14468350.45247  21095438.462    21095446.390
  21352000.871   -14312425.85749 -11140831.65347  21352000.408    21352009.921
  23083950.011    -3224914.28849  -2497168.74746  23083949.724    23083958.580
 03  4 22 20 45  0.0000000  0 10G 2G26G15G21G 6G17G29G18G23G16
  25066979.241    -5141533.92149  -3987333.87844  25066978.742    25066989.562
  21786233.384   -14756561.34649 -11476875.84346  21786233.554    21786242.155
  21796615.594   -12075717.24049  -9395937.23547  21796614.968    21796624.057
  20646103.721   -10885955.62249  -8473301.22948  20646103.270    20646109.746
  20966866.964     -412125.56149   -316579.82047  20966866.810    20966875.040
  20767494.400    -8473248.76149  -6594106.23548  20767493.893    20767502.265
  23158995.798    -6354955.74549  -4939482.29646  23158995.671    23159003.840
  21084455.272   -18651687.63049 -14513325.89747  21084454.936    21084462.904
  21341921.265   -14365394.24849 -11182105.65947  21341920.746    21341930.240
  23082402.961    -3233044.48749  -2503503.99346  23082402.685    23082411.517
 03  4 22 20 45 30.0000000  0 10G 2G26G15G21G 6G17G29G18G23G16
  25058790.276    -5184566.56249  -4020865.76444                  25058789.112
  21785191.017   -14762039.43949 -11481144.45946  21785191.086    21785199.711
  21785679.478   -12133186.53749  -9440718.45447  21785678.888    21785687.888
  20643596.153   -10899133.30249  -8483569.54148  20643595.686    20643602.153
  20977672.656     -355340.86249   -272332.05047  20977672.540    20977680.907
  20766473.998    -8478610.93849  -6598284.54448  20766473.460    20766481.935
  23165167.379    -6322523.63649  -4914210.54646  23165167.299    23165175.552
  21073551.340   -18708987.68249 -14557975.23447  21073551.034    21073559.010
  21331920.209   -14417949.77449 -11223057.95147  21331919.719    21331929.185
  23080961.013    -3240622.07249  -2509408.62946  23080960.724    23080969.590
 03  4 22 20 46  0.0000000  0 10G 2G26G15G21G 6G17G29G18G23G16
  25050678.706    -5227193.53348  -4054081.56544                  25050677.409
  21784271.942   -14766869.02249 -11484907.75647  21784272.122    21784280.643
  21774771.646   -12190507.92049  -9485384.41847  21774770.960    21774779.998
  20641129.063   -10912097.88549  -8493671.81048  20641128.594    20641135.029
  20988562.340     -298114.92849   -227740.46647  20988562.271    20988570.756
  20765489.109    -8483786.69949  -6602317.59348  20765488.581    20765497.006
  23171438.871    -6289566.61349  -4888529.77646  23171438.727    23171446.934
  21062727.143   -18765869.05249 -14602298.32647  21062726.838    21062734.723
  21321997.820   -14470092.37449 -11263688.48247  21321997.289    21322006.678
  23079624.099    -3247647.53249  -2514883.03346  23079623.789    23079632.720
 03  4 22 20 46 30.0000000  0 10G 2G26G15G21G 6G17G29G18G23G16
                  -5269413.99548  -4086980.70044
  21783476.499   -14771049.67449 -11488165.39347  21783476.643    21783485.098
  21763891.844   -12247681.06349  -9529934.86847  21763891.192    21763900.301
  20638702.535   -10924849.18049  -8503607.87948  20638702.074    20638708.455
  20999535.964     -240448.73649   -182805.83647  20999535.873    20999544.314
  20764539.726    -8488776.15949  -6606205.48548  20764539.179    20764547.489
  23177810.069    -6256085.58649  -4862440.68446  23177809.996    23177818.076
  21051982.778   -18822331.05749 -14646294.64247  21051982.436    21051990.216
  21312154.058   -14521821.60949 -11303996.91947  21312153.493    21312162.885
  23078392.263    -3254121.35549  -2519927.61546  23078391.941    23078400.806
 03  4 22 20 47  0.0000000  0 10G 2G26G15G21G 6G17G29G18G23G16
                  -5311227.34548  -4119562.55744
  21782804.561   -14774580.90749 -11490916.98246  21782804.618    21782813.128
  21753040.307   -12304706.20849  -9574370.01147  21753039.664    21753048.780
  20636316.616   -10937387.28949  -8513377.82448  20636316.176    20636322.577
  21010593.079     -182343.55949   -137529.13047  21010592.949    21010601.495
  20763625.679    -8493579.48349  -6609948.33348  20763625.141    20763633.410
  23184280.843    -6222081.74149  -4835944.19746  23184280.707    23184288.907
  21041318.271   -18878373.47749 -14689964.00347  21041317.919    21041325.577
  21302388.883   -14573137.33249 -11343983.14147  21302388.364    21302397.789
  23077265.303    -3260044.04349  -2524542.73346  23077264.972    23077273.738
 03  4 22 20 47 30.0000000  0 10G 2G26G15G21G 6G17G29G18G23G16
                  -5352631.80448  -4151825.66243
  21782256.311   -14777460.97449 -11493161.18346  21782256.498    21782265.101
  21742217.187   -12361582.15749  -9618688.88247  21742216.537    21742225.611
  20633971.578   -10949710.83649  -8522980.57948  20633971.109    20633977.537
  21021733.677     -123799.08049    -91910.11047  21021733.597    21021742.206
  20762747.282    -8498195.27349  -6613545.04348  20762746.740    20762755.098
  23190850.783    -6187554.89349  -4809040.20846  23190850.778    23190859.358
  21030733.982   -18933994.38349 -14733304.91047  21030733.596    21030741.243
  21292702.728   -14624038.16549 -11383646.06447  21292702.239    21292711.631
  23076243.105    -3265414.82449  -2528727.79446  23076242.829    23076251.794
 03  4 22 20 48  0.0000000  0 10G 2G26G15G21G 6G17G29G18G23G16
                  -5393626.74948  -1117318.85143
  21781832.235   -14779689.88049 -11494897.97746  21781832.411    21781840.847
  21731422.304   -12418309.15949  -9662891.69247  21731421.640    21731430.763
  20631667.249   -10961820.27949  -8532416.49648  20631666.754    20631673.178
  21032957.811      -64816.63049    -45949.81647  21032957.696    21032966.242
  20761904.523    -8502623.69249  -6616995.76048  20761904.003    20761912.459
  23197520.291    -6152506.65649  -4781729.90246  23197520.321    23197528.897
  21020229.908   -18989193.61349 -14776317.24247  21020229.508    21020237.151
  21283095.522   -14674524.40749 -11422985.92947  21283095.000    21283104.386
  23075325.941    -3270234.72349  -2532483.59846  23075325.624    23075334.653
 03  4 22 20 48 30.0000000  0 10G 2G26G15G21G 6G17G29G18G23G16
                  -5434212.13848  -1148935.52743
  21781532.252   -14781267.80149 -11496127.48846  21781532.339    21781540.473
  21720655.679   -12474887.51849  -9706978.66647  21720655.053    21720664.185
  20629403.562   -10973715.95849  -8541685.84948  20629403.061    20629409.466
  21044264.905       -5397.89249       350.44047  21044264.789    21044273.324
  20761097.477    -8506865.08349  -6620300.73548  20761096.942    20761105.330
  23204288.806    -6116938.66549  -4754014.59746  23204288.795    23204297.197
  21009805.950   -19043971.36249 -14819001.15047  21009805.584    21009813.261
  21273567.051   -14724596.38549 -11462002.99447  21273566.537    21273575.977
  23074513.348    -3274504.83349  -2535810.99646  23074513.077    23074522.081
 03  4 22 20 49  0.0000000  0 10G 2G26G15G21G 6G17G29G18G23G16
                  -5474386.95648  -1180231.97343
  21781355.970   -14782193.98949 -11496849.17746  21781356.001    21781364.228
  21709917.582   -12531316.76249  -9750949.45447  21709916.927    21709925.994
  20627180.542   -10985397.69649  -8550788.50048  20627180.070    20627186.467
  21055654.750       54456.22549     46989.95447  21055654.624    21055663.237
  20760325.867    -8510919.73149  -6623460.19748  20760325.346    20760333.693
  23211155.917    -6080851.90849  -4725895.07046  23211155.842    23211164.269
  20999462.366   -19098326.98149 -14861356.11947  20999462.055    20999469.722
  21264117.551   -14774253.60849 -11500696.87747  21264117.058    21264126.453
  23073805.489    -3278225.48449  -2538710.24946  23073805.207    23073814.139
 03  4 22 20 49 30.0000000  0 10G 2G26G15G21G 6G17G29G18G23G16
                  -5514149.42448  -1108233.30843
  21781303.771   -14782467.15049 -11497062.02346  21781303.887    21781312.305
  21699207.987   -12587596.02849  -9794803.39347  21699207.302    21699216.349
  20624998.574   -10996864.32149  -8559723.52648  20624998.091    20625004.470
  21067127.433      114745.71549     93968.71347  21067127.341    21067135.970
  20759590.060    -8514786.67149  -6626473.39748  20759589.535    20759597.819
  23218121.598    -6044246.28349  -4697371.22646  23218121.549    23218130.087
  20989199.468   -19152258.83249 -14903380.88147  20989199.090    20989206.736
  21254747.198   -14823494.82649 -11539066.59847  21254746.695    21254756.073
  23073202.240    -3281396.29649  -2541181.04646  23073201.945    23073210.669
 03  4 22 20 50  0.0000000  0 10G 2G26G15G21G 6G17G29G18G23G16
                  -5553498.27548  -1138819.10543
  21781376.140   -14782086.30749 -11496765.25547  21781376.347    21781384.828
  21688527.084   -12643724.30349  -9838539.68147  21688526.436    21688535.436
  20622857.575   -11008115.25549  -8568490.48148  20622857.073    20622863.490
  21078682.880      175470.08149    141286.34347  21078682.831    21078691.500
  20758890.112    -8518464.92349  -6629339.56248  20758889.560    20758897.846
  23225185.874    -6007122.67849  -4668443.77346  23225185.928    23225194.595
  20979017.232   -19205765.94349 -14945074.68247  20979016.929    20979024.524
  21245456.071   -14872319.27649 -11577111.56547  21245455.657    21245465.042
  23072703.558    -3284017.11649  -2543223.25946  23072703.240    23072711.997
 03  4 22 20 50 30.0000000  0 10G 2G26G15G21G 6G17G29G18G23G16
                  -5592433.74448  -1169072.85843
  21781573.032   -14781051.99449 -11495959.28347  21781573.141    21781581.652
  21677874.832   -12699702.51349  -9882159.01147  21677874.130    21677883.066
  20620757.457   -11019151.24049  -8577089.94048  20620757.017    20620763.391
  21090320.889      236627.30049    188941.26147  21090320.804    21090329.388
  20758225.719    -8521955.79049  -6632059.70648  20758225.220    20758233.561
  23232348.795    -5969482.99749  -4639114.15746  23232348.719    23232357.439
  20968915.953   -19258848.82849 -14986437.90247  20968915.582    20968923.111
  21236244.232   -14920727.91349 -11614832.51147  21236243.794    21236253.109
  23072309.115    -3286089.70949  -2544838.29946  23072308.843    23072317.689
 03  4 22 20 51  0.0000000  0 10G 2G26G15G21G 6G17G29G18G23G16
                  -5630955.48648  -1099235.94043
  21781894.092   -14779364.47749 -11494644.32946  21781894.238    21781902.636
  21667251.077   -12755530.74149  -9925661.48847  21667250.355    21667259.258
  20618698.296   -11029972.47449  -8585522.07248  20618697.842    20618704.165
  21102040.912      298215.77249    236932.21447  21102040.791    21102049.303
  20757597.145    -8525258.93949  -6634633.59148  20757596.665    20757605.011
  23239609.488    -5931328.79949  -4609383.62646  23239609.373    23239617.990
  20958895.302   -19311507.36849 -15027470.47947  20958894.929    20958902.507
  21227111.451   -14968720.96549 -11652229.63547  21227110.957    21227120.280
  23072018.921    -3287614.83149  -2546026.74946  23072018.584    23072027.476
 03  4 22 20 51 30.0000000  0 10G 2G26G15G21G 6G17G29G18G23G16
                  -5669062.07558  -1128874.02243
  21782339.793   -14777022.48649 -11492819.38746  21782339.980    21782348.173
  21656655.935   -12811208.19449  -9969046.46447  21656655.250    21656664.219
  20616680.201   -11040577.94349  -8593786.06248  20616679.750    20616686.042
  21113842.783      360235.27849    285259.05347  21113842.701    21113851.230
  20757004.432    -8528373.77349  -6637060.73248  20757003.945    20757012.324
  23246967.889    -5892660.37049  -4579252.38946  23246967.779    23246976.237
  20948955.674   -19363740.27849 -15068171.39048  20948955.320    20948962.929
  21218057.899   -15016297.23449 -11689301.98747  21218057.445    21218066.712
  23071832.888    -3288592.52649  -2546788.62746  23071832.592    23071841.488
 03  4 22 20 52  0.0000000  0 10G 2G26G15G21G 6G17G29G18G23G16
                  -5706752.13358  -1158173.75643
  21782910.113   -14774025.29749 -11490483.91346  21782910.245    21782918.563
  21646089.687   -12866733.93549 -10012313.23147  21646089.044    21646098.063
  20614703.214   -11050967.08249  -8601881.48548  20614702.738    20614709.030
  21125726.707      422685.32449    333921.36847  21125726.604    21125735.128
  20756447.655    -8531299.67049  -6639340.64548  20756447.151    20756455.568
  23254423.922    -5853478.37449  -4548721.00746  23254423.787    23254432.331
  20939097.209   -19415546.52049 -15108539.83248  20939096.865    20939104.498
  21209083.864   -15063455.97649 -11726048.99247  21209083.427    21209092.612
  23071751.022    -3289022.80049  -2547123.94446  23071750.729    23071759.765
 03  4 22 20 52 30.0000000  0 10G 2G26G15G21G 6G17G29G18G23G16
                  -5744025.17458  -1090357.10843
  21783605.215   -14770372.85649 -11487637.84847  21783605.383    21783613.696
  21635552.398   -12922107.87549 -10055461.71147  21635551.719    21635560.677
  20612767.399   -11061139.81749  -8609808.29348  20612766.938    20612773.162
  21137692.300      485564.50849    382918.07747  21137692.140    21137700.671
  20755926.825    -8534036.44249  -6641473.19848  20755926.311    20755934.724
  23261977.397    -5813784.49649  -4517790.72646  23261977.338    23261985.758
  20929320.028   -19466925.87749 -15148575.63848  20929319.703    20929327.321
  21200189.249   -15110197.41249 -11762470.82447  21200188.795    21200197.998
  23071773.217    -3288906.57649  -2547033.43846  23071772.934    23071781.841
 03  4 22 20 53  0.0000000  0 10G 2G26G15G21G 6G17G29G18G23G16
                  -5780880.76348  -1119051.76243
  21784425.106   -14766064.86649 -11484280.96547  21784425.186    21784433.481
  21625043.796   -12977330.01749 -10098491.91447  21625043.175    21625052.099
  20610872.758   -11071096.07549  -8617566.40848  20610872.290    20610878.545
  21149739.149      548871.40349    432248.07547  21149739.040    21149747.549
  20755441.941    -8536584.34249  -6643458.57548  20755441.427    20755449.857
  23269628.132    -5773579.86149  -4486462.44746  23269627.992    23269636.372
  20919624.174   -19517878.06349 -15188278.58248  20919623.816    20919631.337
  21191374.001   -15156521.48349 -11798567.44047  21191373.518    21191382.765
  23071899.151    -3288244.78749  -2546517.78646  23071898.866    23071907.828
 03  4 22 20 53 30.0000000  0 10G 2G26G15G21G 6G17G29G18G23G16
                  -5817317.89248  -1147410.79143
  21785369.686   -14761101.24349 -11480413.20747  21785369.762    21785378.063
  21614564.283   -13032399.94749 -10141403.49547  21614563.709    21614572.557
  20609019.337   -11080835.69249  -8625155.71548  20609018.913    20609025.201
  21161867.286      612605.05649    481910.59747  21161867.234    21161875.709
  20754993.080    -8538943.22549  -6645296.66048  20754992.597    20755001.020
  23277375.763    -5732865.64549  -4454737.11946  23277375.628    23277384.132
  20910009.636   -19568402.68949 -15227648.37048  20910009.312    20910016.819
  21182638.175   -15202427.95049 -11834338.65247  21182637.735    21182647.028
  23072128.869    -3287037.72449  -2545577.26546  23072128.578    23072137.529
 03  4 22 20 54  0.0000000  0 10G 2G26G15G21G 6G17G29G18G23G16
                  -5853336.14548  -1081553.26043
  21786438.968   -14755481.70749 -11476034.34646  21786439.042    21786447.349
  21604113.935   -13087317.36649 -10184196.23747  21604113.284    21604122.152
  20607207.264   -11090358.28049  -8632575.90748  20607206.818    20607213.134
  21174076.606      676764.55149    531904.93847  21174076.502    21174084.953
  20754580.367    -8541112.49449  -6646987.00148  20754579.863    20754588.160
  23285220.184    -5691642.87949  -4422615.49546  23285220.127    23285228.557
  20900476.599   -19618499.12649 -15266684.50048  20900476.222    20900483.733
  21173981.939   -15247916.72849 -11869784.38747  21173981.478    21173990.821
  23072462.254    -3285286.12649  -2544212.45646  23072461.947    23072470.763
 03  4 22 20 54 30.0000000  0 10G 2G26G15G21G 6G17G29G18G23G16
                  -5888934.18649  -1109227.67843
  21787633.201   -14749205.53349 -11471143.80946  21787633.335    21787641.573
  21593692.622   -13142081.36849 -10226869.43847  21593691.988    21593700.893
  20605436.574   -11099663.02349  -8639826.34948  20605436.153    20605442.448
  21186366.749      741349.16549    582230.54747  21186366.594    21186375.122
  20754203.804    -8543091.33049  -6648528.95148  20754203.274    20754211.483
  23293161.569    -5649912.41649  -4390098.26246  23293161.300    23293169.527
  20891024.974   -19668166.75549 -15305386.49148  20891024.675    20891032.196
  21165405.259   -15292987.04749 -11904904.05547  21165404.805    21165414.181
  23072899.113    -3282990.21249  -2542423.48646  23072898.874    23072907.747
 03  4 22 20 55  0.0000000  0 10G 2G26G15G21G 6G17G29G18G23G16
                  -5924112.27448  -1136537.63943
  21788952.370   -14742273.61249 -11465742.29346  21788952.462    21788960.584
  21583300.373   -13196692.73249 -10269423.70247  21583299.703    21583308.642
  20603707.270   -11108750.70249  -8646907.65148  20603706.811    20603713.137
  21198737.122      806356.70049    632885.71247  21198737.060    21198745.688
  20753863.189    -8544880.92049  -6649923.43648  20753862.700    20753870.926
  23301198.724    -5607676.61449  -4357187.27446  23301198.536    23301206.799
  20881655.132   -19717405.75949 -15343754.48448  20881654.821    20881662.329
  21156908.084   -15337639.95849 -11939698.46247  21156907.618    21156916.915
  23073439.352    -3280151.76149  -2540211.75446  23073439.040    23073447.942
 03  4 22 20 55 30.0000000  0 10G 2G26G15G21G 6G17G29G18G23G16
                  -5958869.49148  -1072853.32343
  21790396.209   -14734685.47949 -11459829.47046  21790396.353    21790404.623
  21572937.226   -13251150.96949 -10311858.65347  21572936.627    21572945.493
  20602019.294   -11117620.81549  -8653819.41848  20602018.859    20602025.229
  21211188.054      871786.40449    683869.82847  21211187.970    21211196.620
  20753558.838    -8546480.59849  -6651169.93548  20753558.331    20753566.652
  23309332.131    -5564936.39349  -4323883.21646  23309331.856    23309340.051
  20872366.885   -19766215.61549 -15381788.08048  20872366.551    20872374.095
  21148490.375   -15381875.02349 -11974167.27747  21148489.895    21148499.102
  23074082.779    -3276771.15749  -2537577.56746  23074082.475    23074091.332
 03  4 22 20 56  0.0000000  0 10G 2G26G15G21G 6G17G29G18G23G16
                  -5993203.88648  -1099675.98243
  21791965.281   -14726439.74649 -11453404.21546  21791965.416    21791973.762
  21562603.740   -13305454.11349 -10354172.73847  21562603.091    21562611.874
  20600373.061   -11126271.76049  -8660560.40148  20600372.639    20600378.986
  21223719.223      937638.45349    735183.05647  21223719.175    21223727.981
  20753290.775    -8547889.04149  -6652267.41948  20753290.286    20753298.639
  23317561.161    -5521691.64249  -4290186.02346  23317560.939    23317569.238
  20863160.625   -19814594.62849 -15419485.95648  20863160.295    20863167.811
  21140152.520   -15425690.62549 -12008309.23747  21140152.047    21140161.156
  23074829.321    -3272847.94049  -2534520.56346  23074829.058    23074837.989
 03  4 22 20 56 30.0000000  0 10G 2G26G15G21G 6G17G29G18G23G16
                  -6027115.57349  -1126225.23343
  21793659.382   -14717536.96149 -11446466.97646  21793659.584    21793667.930
  21552299.570   -13359602.53649 -10396366.28147  21552298.944    21552307.710
  20598768.576   -11134703.45649  -8667130.55048  20598768.159    20598774.447
  21236330.383     1003910.96849    786823.91447  21236330.424    21236339.324
  20753059.112    -8549106.23849  -6653215.88748  20753058.637    20753066.972
  23325885.719    -5477944.13949  -4256097.07446  23325885.625    23325894.166
  20854036.250   -19862542.96049 -15456848.24548  20854035.971    20854043.508
  21131894.405   -15469087.25949 -12042124.72847  21131893.895    21131902.978
  23075678.931    -3268383.54049  -2531041.85846  23075678.670    23075687.564
 03  4 22 20 57  0.0000000  0 10G 2G26G15G21G 6G17G29G18G23G16
                  -6060604.37849  -1064206.42643
  21795478.394   -14707977.72249 -11439018.21146  21795478.624    21795486.995
  21542024.796   -13413596.55449 -10438439.50047  21542024.177    21542032.998
  20597205.692   -11142916.72549  -8673530.49348  20597205.232    20597211.478
  21249021.436     1070602.10049    838790.96347  21249021.378    21249030.274
  20752863.761    -8550132.56149  -6654015.61548  20752863.312    20752871.652
  23334306.004    -5433695.95549  -4221617.99346  23334305.896    23334314.513
  20844993.889   -19910060.82549 -15493875.08948  20844993.581    20845001.095
  21123715.797   -15512065.55549 -12075614.24547  21123715.356    21123724.446
  23076631.229    -3263379.37749  -2527142.57746  23076630.911    23076639.787
 03  4 22 20 57 30.0000000  0 10G 2G26G15G21G 6G17G29G18G23G16
                  -6093670.18448  -1090034.09743
  21797422.394   -14697762.30449 -11431058.13746  21797422.599    21797430.920
  21531779.426   -13467436.06049 -10480392.31147  21531778.790    21531787.708
  20595684.308   -11150911.53249  -8679760.19948  20595683.835    20595690.137
  21261791.789     1137710.28649    891082.99247  21261791.758    21261800.573
  20752704.767    -8550968.36449  -6654666.89448  20752704.292    20752712.677
  23342821.171    -5388948.72549  -4186750.04846  23342821.011    23342829.790
  20836033.447   -19957148.13849 -15530566.44748  20836033.135    20836040.680
  21115616.882   -15554625.74149 -12108777.95847  21115616.383    21115625.418
  23077685.997    -3257836.35049  -2522823.39046  23077685.690    23077694.606
 03  4 22 20 58  0.0000000  0 10G 2G26G15G21G 6G17G29G18G23G16
                  -6126311.46148  -1115601.89643
  21799491.328   -14686889.95749 -11422586.17346  21799491.536    21799499.798
  21521563.587   -13521119.94349 -10522223.86447  21521562.972    21521572.072
  20594204.678   -11158686.64549  -8685818.72348  20594204.239    20594210.598
  21274641.617     1205235.52249    943699.99047  21274641.492    21274650.242
  20752582.336    -8551612.09449  -6655168.50448  20752581.827    20752590.234
  23351431.160    -5343702.94249  -4151493.61346  23351431.031    23351439.835
  20827155.018   -20003803.79549 -15566921.45348  20827154.721    20827162.379
  21107597.558   -15596766.90049 -12141615.16747  21107597.105    21107606.179
  23078843.466    -3251754.72849  -2518084.52246  23078843.149    23078852.021
 03  4 22 20 58 30.0000000  0 10G 2G26G15G21G 6G17G29G18G23G16
                  -6158527.62148  -1055628.55443
  21801685.195   -14675360.67649 -11413602.30846  21801685.447    21801693.597
  21511377.420   -13574648.14349 -10563934.09847  21511376.844    21511385.998
  20592767.002   -11166241.73449  -8691705.79448  20592766.544    20592772.954
  21287570.418     1273176.23949    996640.74947  21287570.242    21287579.016
  20752496.303    -8552064.12549  -6655520.72548  20752495.786    20752504.227
  23360135.512    -5297960.13349  -4115849.89246  23360135.385    23360144.320
  20818358.890   -20050027.51449 -15602939.87648  20818358.580    20818366.247
  21099658.103   -15638489.19449 -12174125.97547  21099657.621    21099666.693
  23080103.148    -3245135.43149  -2512926.68746  23080102.817    23080111.785
 03  4 22 20 59  0.0000000  0 10G 2G26G15G21G 6G17G29G18G23G16
                  -6190318.34148  -1080383.00643
  21804004.126   -14663174.95349 -11404106.92646  21804004.342    21804012.366
  21501221.068   -13628020.35949 -10605522.79547  21501220.455    21501229.491
  20591371.163   -11173576.78049  -8697421.40948  20591370.701    20591377.103
  21300577.882     1341530.99349   1049904.12647  21300577.757    21300586.551
  20752446.846    -8552323.85249  -6655723.11248  20752446.380    20752454.762
  23368934.157    -5251721.69449  -4079819.95946  23368934.153    23368943.196
  20809644.950   -20095819.21449 -15638621.66648  20809644.633    20809652.277
  21091798.264   -15679792.67649 -12206310.44447  21091797.763    21091806.834
  23081464.804    -3237979.28749  -2507350.53446  23081464.535    23081473.579
 03  4 22 20 59 30.0000000  0 10G 2G26G15G21G 6G17G29G18G23G16
                  -6221682.67048  -1104777.12143
  21806448.171   -14650332.09849 -11394099.50346  21806448.370    21806456.348
  21491094.451   -13681235.69549 -10646989.25547  21491093.825    21491102.853
  20590017.374   -11180690.85949  -8702964.84048  20590016.918    20590023.286
  21313664.131     1410299.17449   1103489.65447  21313663.987    21313672.722
  20752434.253    -8552390.40449  -6655774.97648  20752433.729    20752442.083
  23377827.123    -5204988.82449  -4043404.75946  23377827.117    23377836.251
  20801013.436   -20141178.05849 -15673966.16848  20801013.158    20801020.711
  21084018.222   -15720676.82249 -12238168.16147  21084017.708    21084026.740
  23082928.703    -3230286.90949  -2501356.52846  23082928.361    23082937.427
 03  4 22 21  0  0.0000000  0 10G 2G26G15G21G 6G17G29G18G23G16
                  -6252620.93348  -1047109.78443
  21809017.038   -14636833.25349 -11383580.91246  21809017.151    21809025.056
  21480997.659   -13734294.35649 -10688333.63647  21480997.075    21481006.086
  20588705.508   -11187584.60549  -8708336.58248  20588705.036    20588711.468
  21326828.609     1479478.59149   1157395.62247  21326828.464    21326837.202
  20752458.061    -8552264.66249  -6655676.98648  20752457.563    20752465.979
  23386813.845    -5157763.38049  -4006605.72946  23386813.905    23386823.069
  20792464.326   -20186104.41149 -15708973.66548  20792463.957    20792471.417
  21076317.772   -15761142.49849 -12269699.79747  21076317.239    21076326.237
  23084494.185    -3222060.13949  -2494946.12446  23084493.887    23084503.020
 03  4 22 21  0 30.0000000  0 10G 2G26G15G21G 6G17G29G18G23G16
                  -6283132.47958  -1070879.26343
  21811710.600   -14622678.52349 -11372551.24246  21811710.687    21811718.593
  21470930.801   -13787196.07949 -10729555.71547  21470930.244    21470939.170
  20587435.630   -11194257.75549  -8713536.42448  20587435.185    20587441.629
  21340071.049     1549068.00049   1211621.07247  21340070.926    21340079.733
  20752518.623    -8551946.17049  -6655428.80448  20752518.171    20752526.567
  23395894.288    -5110046.80749  -3969423.99246  23395894.229    23395903.333
  20783997.371   -20230598.23149 -15743644.12048  20783997.018    20784004.474
  21068696.956   -15801189.66849 -12300905.32847  21068696.455    21068705.445
  23086161.245    -3213300.07649  -2488120.15546  23086160.913    23086170.003
 03  4 22 21  1  0.0000000  0 10G 2G26G15G21G 6G17G29G18G23G16
                  -6313205.05248  -1094293.33743
  21814528.764   -14607869.45549 -11361011.69846  21814528.836    21814536.617
  21460893.702   -13839941.72949 -10770656.18047  21460893.103    21460901.932
  20586207.659   -11200711.15149  -8718565.03148  20586207.195    20586213.593
  21353391.101     1619064.81149   1266163.97147  21353390.945    21353399.817
  20752615.750    -8551435.87449  -6655031.16948  20752615.293    20752623.648
  23405067.250    -5061842.17249  -3931861.96546  23405067.190    23405076.411
  20775612.516   -20274660.48549 -15777978.29148  20775612.203    20775619.668
  21061155.541   -15840819.78449 -12331785.88047  21061155.026    21061163.997
  23087929.489    -3204008.86649  -2480880.31546  23087929.099    23087938.098
 03  4 22 21  1 30.0000000  0 10G 2G26G15G21G 6G17G29G18G23G16
                  -6342860.63348  -1038694.75343
  21817472.069   -14592402.58649 -11348959.58246  21817472.099    21817479.924
  21450886.992   -13892527.21349 -10811631.84247  21450886.370    21450895.201
  20585022.224   -11206940.70449  -8723419.22348  20585021.746    20585028.125
  21366789.051     1689471.41149   1321026.18747  21366788.890    21366797.801
  20752750.069    -8550730.12449  -6654481.23348  20752749.580    20752757.915
  23414333.408    -5013147.14549  -3893917.80246  23414333.524    23414342.642
  20767310.558   -20318287.28349 -15811973.14648  20767310.220    20767317.698
  21053694.182   -15880029.15949 -12362338.58347  21053693.711    21053702.655
  23089799.187    -3194183.63149  -2473224.33646  23089798.874    23089807.963
 03  4 22 21  2  0.0000000  0 10G 2G26G15G21G 6G17G29G18G23G16
                  -6372086.80748  -1061479.73143
  21820539.988   -14576279.25649 -11336395.96146  21820540.105    21820548.179
  21440910.605   -13944953.31949 -10852483.30647  21440909.987    21440918.815
  20583879.149   -11212947.33349  -8728099.70348  20583878.687    20583885.084
  21380264.468     1760285.31249   1376205.78247  21380264.351    21380273.171
  20752921.392    -8549829.84149  -6653779.70548  20752920.922    20752929.227
  23423692.668    -4963964.07949  -3855593.35046  23423692.715    23423701.832
  20759091.332   -20361479.34549 -15845629.24548  20759091.010    20759098.469
  21046312.589   -15918818.99849 -12392564.37447  21046312.122    21046321.085
  23091770.179    -3183826.65549  -2465154.03046  23091769.850    23091778.872
 03  4 22 21  2 30.0000000  0 10G 2G26G15G21G 6G17G29G18G23G16
                  -6400883.94249  -1083971.77343
  21823732.758   -14559500.71649 -11323321.75446  21823732.954    21823741.088
  21430964.474   -13997220.47549 -10893210.92647  21430963.852    21430972.636
  20582778.472   -11218731.44049  -8732606.79048  20582778.039    20582784.347
  21393817.050     1831504.39749   1431701.09247  21393816.959    21393825.747
  20753129.802    -8548734.88649  -6652926.49148  20753129.317    20753137.604
  23433144.212    -4914295.58349  -3816890.65046  23433144.321    23433153.497
  20750954.724   -20404237.38849 -15878947.14948  20750954.393    20750961.825
  21039010.716   -15957190.24249 -12422463.99547  21039010.306    21039019.259
  23093841.946    -3172939.84349  -2456670.87746  23093841.616    23093850.607
 03  4 22 21  3  0.0000000  0 10G 2G26G15G21G 6G17G29G18G23G16
                  -6429251.838 9   1105029.495 1
  21827050.297   -14542067.21049 -11309737.19946  21827050.448    21827058.504
  21421048.714   -14049328.12649 -10933814.26247  21421048.097    21421056.777
  20581720.331   -11224292.60749  -8736940.16248  20581719.872    20581726.111
  21407446.502     1903127.31549   1487511.08547  21407446.413    21407455.245
  20753375.196    -8547445.36749  -6651921.66948  20753374.728    20753383.018
  23442688.322    -4864143.11649  -3777810.80946  23442688.315    23442697.262
  20742900.670   -20446561.27949 -15911926.76048  20742900.349    20742907.777
  21031788.692   -15995142.94549 -12452037.47648  21031788.166    21031797.093
  23096014.235    -3161524.43749  -2447775.82246  23096013.862    23096022.985
 03  4 22 21  3 30.0000000  0 10G 2G26G15G21G 6G17G29G18G23G16
                  -6457190.01548  -1052153.66043
  21830492.332   -14523979.19449 -11295642.64446  21830492.444    21830500.464
  21411163.361   -14101276.03549 -10974293.10747  21411162.741    21411171.418
  20580704.559   -11229630.59349  -8741099.62448  20580704.105    20580710.348
  21421152.566     1975152.64549   1543634.64447  21421152.435    21421161.272
  20753657.762    -8545960.82449  -6650764.88048  20753657.272    20753665.569
  23452323.873    -4813508.13949  -3738355.00646  23452323.804    23452332.852
  20734929.339   -20488450.71349 -15944567.83148  20734929.037    20734936.422
  21024646.144   -16032677.15149 -12481284.85948  21024645.621    21024654.537
  23098286.832    -3149581.46149  -2438469.68746  23098286.549    23098295.697
 03  4 22 21  4  0.0000000  0 10G 2G26G15G21G 6G17G29G18G23G16
                  -6484697.49249  -1073579.45243
  21834059.049   -14505236.32549 -11281037.80146  21834059.165    21834067.128
  21401308.473   -14153063.08649 -11014646.62047  21401307.873    21401316.678
  20579731.438   -11234744.43249  -8745084.43048  20579730.979    20579737.178
  21434934.939     2047579.71049   1600071.25147  21434934.883    21434943.714
  20753977.557    -8544280.05749  -6649455.19048  20753977.081    20753985.379
  23462050.891    -4762391.53649  -3698523.91446  23462050.860    23462059.948
  20727040.906   -20529904.78849 -15976869.66348  20727040.549    20727047.936
  21017583.264   -16069792.33649 -12510205.73448  21017582.770    21017591.707
  23100659.796    -3137111.19149  -2428752.67246  23100659.527    23100668.788
 03  4 22 21  4 30.0000000  0 10G 2G26G15G21G 6G17G29G18G23G16
                  -6511774.83449  -1094670.04643
  21837750.006   -14485839.89549 -11265923.70646  21837750.031    21837758.166
  21391484.161   -14204689.66949 -11054875.08447  21391483.604    21391492.397
  20578800.840   -11239634.54949  -8748894.91248  20578800.383    20578806.557
  21448793.494     2120406.23749   1656819.12347  21448793.399    21448802.204
  20754334.590    -8542403.75649  -6647993.14048  20754334.094    20754342.407
  23471869.189    -4710795.84049  -3658319.49346  23471869.273    23471878.219
  20719235.080   -20570924.06349 -16008832.69548  20719234.762    20719242.185
  21010599.955   -16106489.57449 -12538800.93148  21010599.535    21010608.430
  23103132.746    -3124115.87849  -2418626.51046  23103132.533    23103141.757
 03  4 22 21  5  0.0000000  0 10G 2G26G15G21G 6G17G29G18G23G16
                  -6538421.57249  -1043302.89843
  21841565.110   -14465790.33949 -11250300.67646  21841565.289    21841573.440
  21381690.587   -14256155.34149 -11094978.16347  21381690.034    21381698.741
  20577912.839   -11244300.55449  -8752530.75748  20577912.408    20577918.669
  21462727.789     2193630.87849   1713877.21247  21462727.693    21462736.474
  20754728.790    -8540332.04249  -6646378.81748  20754728.301    20754736.722
  23481778.505    -4658722.68049  -3617743.03746  23481778.483    23481787.313
  20711511.956   -20611508.98849 -16040457.26748  20711511.669    20711519.021
  21003696.240   -16142769.04149 -12567070.59648  21003695.744    21003704.628
  23105705.592    -3110596.58449  -2408092.05546  23105705.273    23105714.545
 03  4 22 21  5 30.0000000  0 10G 2G26G15G21G 6G17G29G18G23G16
                  -6564637.36049  -1063730.85743
  21845504.734   -14445088.25849 -11234169.17246  21845504.861    21845512.828
  21371927.643   -14307459.88949 -11134955.69547  21371927.053    21371935.786
  20577067.541   -11248742.27349  -8755991.82248  20577067.133    20577073.460
  21476737.482     2267251.94749   1771244.21547  21476737.374    21476746.252
  20755160.381    -8538064.28449  -6644611.72848  20755159.902    20755168.305
  23491778.347    -4606173.72449  -3576795.80346  23491778.349    23491787.149
  20703871.654   -20651659.39349 -16071743.24448  20703871.318    20703878.600
  20996871.909   -16178630.95849 -12595014.89348  20996871.458    20996880.303
  23108377.738    -3096554.66349  -2397150.36646  23108377.443    23108386.593
 03  4 22 21  6  0.0000000  0 10G 2G26G15G21G 6G17G29G18G23G16
                  -6590421.66049  -1083822.63144                  24791284.326
  21849568.375   -14423734.05749 -11217529.53946  21849568.478    21849576.401
  21362195.428   -14358602.49649 -11174807.05047  21362194.890    21362203.661
  20576265.257   -11252959.09949  -8759277.66948  20576264.798    20576271.017
  21490822.306     2341268.39349   1828919.29847  21490822.194    21490831.187
  20755629.403    -8535599.92849  -6642691.45548  20755628.877    20755637.224
  23501868.378    -4553150.28249  -3535478.87345  23501868.316    23501877.203
  20696314.031   -20691374.64049 -16102690.15048  20696313.710    20696321.002
  20990127.058   -16214075.27149 -12622633.79448  20990126.578    20990135.443
  23111149.270    -3081991.12049  -2385802.21346  23111148.874    23111157.956
 03  4 22 21  6 30.0000000  0 10G 2G26G15G21G 6G17G29G18G23G16
  24786437.772    -6615773.79149  -1103577.50944  24786438.416    24786457.945
  21853755.952   -14401727.43049 -11200381.51646  21853756.100    21853764.222
  21352494.380   -14409582.32849 -11214531.55247  21352493.796    21352502.489
  20575505.750   -11256950.13649  -8762387.56548  20575505.284    20575511.560
  21504982.177     2415679.26349   1886901.72747  21504982.101    21504991.144
  20756135.937    -8532938.03949  -6640617.25448  20756135.416    20756143.713
  23512048.399    -4499653.40549  -3493793.04046  23512048.407    23512057.314
  20688839.379   -20730654.36649 -16133297.68048  20688839.055    20688846.298
  20983461.706   -16249101.76049 -12649927.11348  20983461.222    20983470.089
  23114019.610    -3066906.59749  -2374048.06546  23114019.347    23114028.656
 03  4 22 21  7  0.0000000  0 10G 2G26G15G21G 6G17G29G18G23G16
  24781695.681    -6640693.57348  -1122995.51644  24781694.200    24781704.175
  21858067.548   -14379069.35449 -11182725.88146  21858067.705    21858075.914
  21342824.326   -14460398.98249 -11254128.91447  21342823.721    21342832.407
  20574789.216   -11260715.17849  -8765321.35648  20574788.770    20574795.139
  21519216.869     2490482.89349   1945190.19847  21519216.826    21519225.870
  20756680.076    -8530078.46249  -6638389.01148  20756679.560    20756687.857
  23522318.349    -4445685.05349  -3451739.79646  23522318.298    23522327.045
  20681447.557   -20769498.28149 -16163565.62548  20681447.192    20681454.509
  20976875.827   -16283710.77549 -12676895.12848  20976875.321    20976884.125
  23116988.922    -3051302.64549  -2361889.20746  23116988.712    23116997.949
 03  4 22 21  7 30.0000000  0 10G 2G26G15G21G 6G17G29G18G23G16
  24777035.851    -6665181.42148  -1142076.99844  24777035.716    24777045.151
  21862502.920   -14355761.28449 -11164563.75946  21862503.114    21862511.224
  21333185.145   -14511052.85249 -11293599.42647  21333184.564    21333193.288
  20574115.628   -11264254.62449  -8768079.36248  20574115.206    20574121.571
  21533526.002     2565676.94449   2003782.89247  21533525.910    21533534.883
  20757261.772    -8527021.73949  -6636007.15048  20757261.267    20757269.549
  23532677.486    -4391247.77449  -3409321.17746  23532677.446    23532686.045
  20674138.403   -20807907.29249 -16193494.68348  20674138.112    20674145.467
  20970369.136   -16317903.27649 -12703538.58348  20970368.666    20970377.381
  23120056.857    -3035181.19449  -2349327.11546  23120056.557    23120065.763
 03  4 22 21  8  0.0000000  0 10G 2G26G15G21G 6G17G29G18G23G16
  24772458.008    -6689236.94048  -1160821.57544  24772456.536    24772468.733
  21867062.026   -14331803.38349 -11145895.25746  21867062.168    21867070.145
  21323577.160   -14561542.94349 -11332942.30147  21323576.566    21323585.296
  20573485.206   -11267567.66449  -8770660.95148  20573484.753    20573491.104
  21547909.168     2641260.44949   2062679.05947  21547909.033    21547917.952
  20757881.220    -8523766.66749  -6633470.72948  20757880.698    20757888.963
  23543125.651    -4336342.75749  -3366538.07946  23543125.474    23543134.036
  20666912.249   -20845881.17249 -16223084.67048  20666911.915    20666919.204
  20963941.732   -16351679.11349 -12729857.36248  20963941.286    20963949.989
  23123222.943    -3018543.10149  -2336362.44146  23123222.726    23123232.041
 03  4 22 21  8 30.0000000  0 10G 2G26G15G21G 6G17G29G18G23G16
  24767962.885    -6712859.19449  -1179228.49844  24767961.165    24767973.605
  21871744.718   -14307195.71349 -11126720.44946  21871744.866    21871752.897
  21314000.506   -14611868.16349 -11372156.72447  21313999.905    21314008.706
  20572897.961   -11270653.34649  -8773065.37348  20572897.559    20572903.970
  21562366.195     2717232.39749   2121877.89547  21562366.075    21562374.997
  20758538.395    -8520312.93549  -6630779.51648  20758537.883    20758546.175
  23553662.341    -4280971.06949  -3323391.34445  23553662.170    23553670.963
  20659768.984   -20883419.09349 -16252334.95448  20659768.650    20659775.945
  20957593.785   -16385037.96349 -12755851.21948  20957593.290    20957602.033
  23126487.235    -3001389.41649  -2322996.01746  23126487.056    23126496.332
 03  4 22 21  9  0.0000000  0 10G 2G26G15G21G 6G17G29G18G23G16
  24763550.196    -6736048.36949  -1197298.00744  24763548.803    24763560.559
  21876550.725   -14281939.36549 -11107040.19946  21876550.959    21876559.120
  21304455.229   -14662028.48249 -11411242.65747  21304454.683    21304463.461
  20572354.082   -11273511.65149  -8775292.61648  20572353.666    20572360.116
  21576896.684     2793590.87449   2181377.93047  21576896.625    21576905.601
  20759233.465    -8516660.00049  -6627933.07648  20759232.992    20759241.287
  23564287.504    -4225134.87749  -3279882.64745  23564287.433    23564296.347
  20652708.662   -20920521.49549 -16281245.86848  20652708.338    20652715.625
  20951324.924   -16417980.50149 -12781520.68048  20951324.440    20951333.262
  23129849.366    -2983721.88949  -2309229.19346  23129849.149    23129858.369
 03  4 22 21  9 30.0000000  0 10G 2G26G15G21G 6G17G29G18G23G16
  24759219.833    -6758804.22949  -1215029.86844  24759218.400    24759230.593
  21881480.150   -14256035.22349 -11086855.15646  21881480.356    21881488.542
  21294941.557   -14712023.66649 -11450199.92047  21294940.969    21294949.623
  20571853.556   -11276142.13849  -8777342.33948  20571853.112    20571859.546
  21591500.628     2870334.33749   2241177.94847  21591500.515    21591509.553
  20759966.576    -8512807.97649  -6624931.49648  20759966.074    20759974.372
  23575001.090    -4168835.82849  -3236013.26346  23575000.975    23575009.649
  20645731.192   -20957188.15049 -16309817.24548  20645730.848    20645738.187
  20945135.213   -16450507.04349 -12806865.98048  20945134.795    20945143.605
  23133309.005    -2965541.74249  -2295062.91746  23133308.743    23133318.012
 03  4 22 21 10  0.0000000  0 10G 2G26G15G21G 6G17G29G18G23G16
  24754971.938    -6781126.32149  -1232423.69544  24754970.840    24754982.768
  21886532.741   -14229483.62149 -11066165.60446  21886532.948    21886541.108
  21285459.391   -14761852.72449 -11489027.72847  21285458.784    21285467.394
  20571396.455   -11278544.26749  -8779214.13048  20571396.019    20571402.359
  21606177.433     2947461.49749   2301276.95147  21606177.355    21606186.534
  20760737.750    -8508755.76849  -6621773.93848  20760737.211    20760745.449
  23585802.336    -4112075.70149  -3191784.63046  23585802.199    23585810.722
  20638836.582   -20993419.00949 -16338049.03448  20638836.281    20638843.631
  20939024.757   -16482617.68049 -12831887.20548  20939024.305    20939033.066
  23136865.786    -2946850.18149  -2280498.12646  23136865.591    23136875.027
 03  4 22 21 10 30.0000000  0 10G 2G26G15G21G 6G17G29G18G23G16
  24750806.651    -6803014.60749  -1249479.49444  24750805.792    24750817.493
  21891708.494   -14202285.27649 -11044972.09546  21891708.686    21891716.749
  21276008.854   -14811515.26749 -11527725.77247  21276008.246    21276016.928
  20570982.866   -11280717.62049  -8780907.64548  20570982.395    20570988.746
  21620926.880     3024970.72049   2361673.66347  21620926.864    21620936.149
  20761547.043    -8504502.81049  -6618459.94548  20761546.511    20761554.697
  23596690.920    -4054855.82149  -3147197.74146  23596690.761    23596699.327
  20632024.961   -21029214.14649 -16365941.30148  20632024.637    20632032.014
  20932993.367   -16514312.64049 -12856584.52248  20932992.931    20933001.673
  23140519.825    -2927648.34949  -2265535.71146  23140519.611    23140529.115
 03  4 22 21 11  0.0000000  0 10G 2G26G15G21G 6G17G29G18G23G16
  24746723.949    -6824469.35749  -1266197.50344  24746723.200    24746734.878
  21897007.006   -14174441.63249 -11023275.75546  21897007.197    21897015.370
  21266589.960   -14861011.31349 -11566294.08047  21266589.377    21266598.144
  20570612.795   -11282662.01149  -8782422.75048  20570612.351    20570618.787
  21635748.867     3102860.15849   2422366.64047  21635748.823    21635758.154
  20762394.459    -8500049.41449  -6614989.76648  20762393.944    20762402.113
  23607666.517    -3997178.69649  -3102254.57045  23607666.443    23607674.840
  20625296.148   -21064573.97049 -16393494.36548  20625295.835    20625303.179
  20927041.018   -16545592.66549 -12880958.51448  20927040.531    20927049.224
  23144270.425    -2907938.44149  -2250177.40246  23144270.215    23144279.877
 03  4 22 21 11 30.0000000  0 10G 2G26G15G21G 6G17G29G18G23G16
  24742724.056    -6845490.23749  -1282577.41144  24742723.328    24742734.809
  21902428.108   -14145953.03949 -11001076.86846  21902428.354    21902436.589
  21257202.929   -14910340.09349 -11604732.06047  21257202.395    21257211.090
  20570286.415   -11284377.01549  -8783759.10748  20570285.997    20570292.527
  21650642.821     3181128.48549   2483354.86547  21650642.822    21650652.192
  20763280.136    -8495395.34449  -6611363.21748  20763279.591    20763287.761
  23618729.026    -3939045.87549  -3056956.28745  23618728.934    23618737.065
  20618650.244   -21099498.30649 -16420708.08948  20618649.906    20618657.161
  20921167.501   -16576457.82849 -12905009.24148  20921167.057    20921175.687
  23148117.599    -2887721.65249  -2234424.14146  23148117.491    23148127.119
 03  4 22 21 12  0.0000000  0 10G 2G26G15G21G 6G17G29G18G23G16
  24738806.555    -6866077.37149  -1298619.35144  24738805.980    24738817.047
  21907971.655   -14116820.81949 -10978376.44446  21907971.947    21907980.129
  21247847.962   -14959501.22649 -11643039.40947  21247847.371    21247856.012
  20570003.726   -11285862.40749  -8784916.54148  20570003.343    20570009.840
  21665608.475     3259773.89549   2544636.91247  21665608.561    21665618.015
  20764203.974    -8490540.31349  -6607580.07248  20764203.441    20764211.681
  23629877.959    -3880459.39349  -3011304.49545  23629877.766    23629885.644
  20612087.106   -21133987.49649 -16447582.74748  20612086.769    20612094.033
  20915372.867   -16606908.89549 -12928737.29148  20915372.379    20915381.016
  23152060.972    -2866999.61749  -2218277.16046  23152060.771    23152070.438
 03  4 22 21 12 30.0000000  0 10G 2G26G15G21G 6G17G29G18G23G16
  24734971.528    -6886230.49649  -1314323.11744  24734970.955    24734982.256
  21913637.582   -14087045.88949 -10955175.19746  21913637.834    21913646.101
  21238524.850   -15008494.38949 -11681215.86747  21238524.256    21238532.921
  20569764.975   -11287117.79349  -8785894.76448  20569764.528    20569770.858
  21680645.800     3338794.73249   2606211.50147  21680645.861    21680655.305
  20765166.257    -8485483.48749  -6603639.68848  20765165.755    20765174.025
  23641112.655    -3821420.97949  -2965300.55445  23641112.349    23641120.293
  20605606.777   -21168041.51949 -16474118.30248  20605606.475    20605613.719
  20909656.829   -16636946.28949 -12952143.00648  20909656.356    20909665.023
  23156100.463    -2845773.72749  -2201737.58346  23156100.156    23156109.522
 03  4 22 21 13  0.0000000  0 10G 2G26G15G21G 6G17G29G18G23G16
  24731219.056    -6905949.28549  -1329688.42044  24731218.495    24731230.014
  21919425.763   -14056628.80249 -10931473.57946  21919426.047    21919434.352
  21229233.860   -15057318.61449 -11719260.68647  21229233.278    21229241.987
  20569569.957   -11288142.38649  -8786693.14248  20569569.513    20569575.833
  21695754.185     3418189.66349   2668077.58747  21695754.222    21695763.737
  20766167.091    -8480224.45149  -6599541.73248  20766166.592    20766174.836
  23652432.974    -3761932.13349  -2918945.62345  23652432.801    23652440.731
  20599209.360   -21201660.03149 -16500314.50348  20599209.074    20599216.335
  20904019.575   -16666569.89049 -12975226.27748  20904019.129    20904027.860
  23160235.253    -2824045.27749  -2184806.37246  23160234.893    23160244.292
 03  4 22 21 13 30.0000000  0 10G 2G26G15G21G 6G17G29G18G23G16
  24727549.409    -6925233.77049  -1344715.33944  24727548.594    24727560.322
  21925336.108   -14025570.50949 -10907272.31246  21925336.355    21925344.625
  21219975.140   -15105973.30149 -11757173.38847  21219974.577    21219983.278
  20569418.927   -11288935.85849  -8787311.42248  20569418.508    20569424.847
  21710933.470     3497956.99149   2730233.85247  21710933.523    21710943.055
  20767206.420    -8474762.72749  -6595285.84548  20767205.903    20767214.127
  23663838.763    -3701994.81849  -2872241.24946  23663838.546    23663846.544
  20592894.781   -21234843.43549 -16526171.65448  20592894.486    20592901.624
  20898460.979   -16695780.22049 -12997987.52048  20898460.507    20898469.255
  23164465.395    -2801815.88749  -2167484.84546  23164465.124    23164474.508
 03  4 22 21 14  0.0000000  0 10G 2G26G15G21G 6G17G29G18G23G16
  24723962.236    -6944084.17549  -1359403.96544  24723961.736    24723973.553
  21931368.268   -13993872.25049 -10882572.36846  21931368.390    21931376.534
  21210748.766   -15154458.20549 -11794953.80147  21210748.205    21210756.896
  20569312.042   -11289497.90849  -8787749.37948  20569311.592    20569317.961
  21726183.395     3578094.86649   2792678.85147  21726183.396    21726192.907
  20768284.328    -8469097.95749  -6590871.73048  20768283.826    20768292.125
  23675329.348    -3641611.02749  -2825188.96145  23675329.221    23675337.281
  20586662.896   -21267591.99449 -16551689.96648  20586662.600    20586669.732
  20892980.889   -16724577.91249 -13020427.23148  20892980.421    20892989.134
  23168790.610    -2779087.42049  -2149774.43846  23168790.270    23168799.579
 03  4 22 21 14 30.0000000  0 10G 2G26G15G21G 6G17G29G18G23G16
  24720458.164    -6962500.34749  -1373754.27345  24720457.753    24720469.154
  21937521.804   -13961534.84349 -10857374.39446  21937521.999    21937530.167
  21201554.761   -15202772.61749 -11832601.35947  21201554.220    21201562.922
  20569249.281   -11289827.95849  -8788006.56148  20569248.805    20569255.167
  21741503.345     3658601.73749   2855411.39047  21741503.380    21741512.962
  20769400.960    -8463229.74349  -6586299.08848  20769400.483    20769408.874
  23686904.687    -3580782.64549  -2777790.24745  23686904.558    23686912.500
  20580513.784   -21299905.53449 -16576869.30448  20580513.507    20580520.634
  20887579.321   -16752963.25049 -13042545.62948  20887578.870    20887587.525
  23173210.451    -2755861.32349  -2131676.26946  23173210.180    23173219.349
 03  4 22 21 15  0.0000000  0 10G 2G26G15G21G 6G17G29G18G23G16
  24717036.229    -6980482.27949  -1387766.18444  24717035.543    24717047.372
  21943796.950   -13928559.17149 -10831679.06446  21943797.085    21943805.326
  21192393.345   -15250915.65149 -11870115.37147  21192392.822    21192401.596
  20569230.658   -11289925.30549  -8788082.41148  20569230.228    20569236.558
  21756893.217     3739476.14749   2918430.31447  21756893.286    21756902.897
  20770556.529    -8457157.33249  -6581567.33748  20770556.043    20770564.397
  23698564.141    -3519511.28849  -2730046.36145  23698563.966    23698571.998
  20574447.528   -21331784.12349 -16601709.72348  20574447.227    20574454.344
  20882256.197   -16780936.44049 -13064342.86948  20882255.735    20882264.325
  23177724.666    -2732138.98349  -2113191.43046  23177724.435    23177733.612
 03  4 22 21 15 30.0000000  0 10G 2G26G15G21G 6G17G29G18G23G16
  24713697.032    -6998029.41849  -1401439.30644  24713696.204    24713708.117
  21950193.371   -13894945.92349 -10805486.92546  21950193.557    21950201.806
  21183264.893   -15298886.27449 -11907495.04147  21183264.351    21183273.077
  20569256.540   -11289789.18949  -8787976.34048  20569256.120    20569262.435
  21772353.021     3820716.96049   2981734.73947  21772352.993    21772362.577
  20771751.062    -8450880.11749  -6576675.99948  20771750.546    20771758.894
  23710307.537    -3457798.38849  -2681958.38845  23710307.446    23710315.704
  20568464.053   -21363227.47949 -16626210.99848  20568463.739    20568470.882
  20877011.456   -16808497.59449 -13085819.04048  20877010.996    20877019.591
  23182333.057    -2707921.68849  -2094320.88746  23182332.845    23182342.103
 03  4 22 21 16  0.0000000  0 10G 2G26G15G21G 6G17G29G18G23G16
  24710440.581    -7015142.55049  -1414774.25145  24710439.828    24710451.469
  21956710.779   -13860697.02049 -10778799.46746  21956710.925    21956719.112
  21174169.182   -15346684.95249 -11944740.73947  21174168.608    21174177.234
  20569326.762   -11289420.08849  -8787688.72648  20569326.382    20569332.646
  21787882.052     3902321.60249   3045322.67047  21787881.963    21787891.430
  20772984.499    -8444398.04649  -6571625.03348  20772983.992    20772992.384
  23722134.604    -3395646.69049  -2633528.51345  23722134.468    23722142.858
  20562563.149   -21394236.63849 -16650373.94748  20562562.844    20562569.987
  20871844.869   -16835648.04449 -13106975.18948  20871844.373    20871852.973
  23187035.322    -2683211.83049  -2075066.52946  23187035.069    23187044.443
 03  4 22 21 16 30.0000000  0 10G 2G26G15G21G 6G17G29G18G23G16
  24707266.643    -7031821.61049  -1427770.95645  24707266.045    24707277.607
  21963348.992   -13825813.40749 -10751617.41646  21963349.169    21963357.165
  21165106.245   -15394311.03849 -11981851.94047  21165105.652    21165114.255
  20569441.586   -11288817.08749  -8787218.86348  20569441.162    20569447.347
  21803479.943     3984288.43949   3109192.83147  21803479.845    21803489.199
  20774257.084    -8437710.67149  -6566414.09448  20774256.581    20774264.962
  23734044.758    -3333058.07749  -2584758.18945  23734044.653    23734053.138
  20556744.929   -21424811.65849 -16674198.59948  20556744.612    20556751.718
  20866756.379   -16862388.12549 -13127811.57248  20866755.896    20866764.501
  23191830.938    -2658010.85549  -2055429.47946  23191830.720    23191840.109
 03  4 22 21 17  0.0000000  0 10G 2G26G15G21G 6G17G29G18G23G16
  24704175.599    -7048066.41049  -1440429.31345  24704174.815    24704186.321
  21970107.799   -13790295.88049 -10723941.41346  21970107.891    21970115.928
  21156076.220   -15441763.60249 -12018827.91847  21156075.624    21156084.273
  20569600.931   -11287979.80349  -8786566.43248  20569600.502    20569606.674
  21819146.461     4066616.17449   3173344.19747  21819146.369    21819155.651
  20775568.781    -8430817.48449  -6561042.77548  20775568.293    20775576.662
  23746037.870    -3270034.04949  -2535648.55745  23746037.710    23746046.174
  20551009.289   -21454952.42149 -16697684.87048  20551008.963    20551016.083
  20861745.899   -16888717.85649 -13148328.20948  20861745.424    20861754.030
  23196719.788    -2632320.09549  -2035410.77346  23196719.555    23196729.070
 03  4 22 21 17 30.0000000  0 10G 2G26G15G21G 6G17G29G18G23G16
  24701166.852    -7063877.64749  -1452749.78945  24701166.089    24701177.875
  21976986.695   -13754146.08249 -10695772.72846  21976986.888    21976994.838
  21147079.243   -15489042.43549 -12055668.53247  21147078.662    21147087.405
  20569804.820   -11286908.14249  -8785731.36248  20569804.351    20569810.684
  21834881.350     4149302.78449   3237775.21347  21834881.236    21834890.478
  20776919.712    -8423718.40549  -6555511.02948  20776919.228    20776927.543
  23758113.374    -3206577.03249  -2486201.55045  23758113.161    23758121.598
  20545356.189   -21484659.35849 -16720833.09648  20545355.866    20545363.014
  20856813.311   -16914638.29649 -13168525.91148  20856812.859    20856821.501
  23201701.358    -2606141.79849  -2015012.17846  23201701.127    23201710.705
 03  4 22 21 18  0.0000000  0 10G 2G26G15G21G 6G17G29G18G23G16
  24698240.404    -7079254.79449  -1464732.02545  24698239.714    24698251.499
  21983986.025   -13717364.81749 -10667111.98246  21983986.213    21983994.137
  21138115.677   -15536146.47549 -12092372.95847  21138115.107    21138123.821
  20570053.482   -11285600.97949  -8784712.78248  20570053.059    20570059.459
  21850684.221     4232346.86949   3302484.78047  21850684.066    21850693.342
  20778310.069    -8416412.23349  -6549817.90748  20778309.576    20778317.898
  23770270.891    -3142688.64449  -2436418.39345  23770270.744    23770279.317
  20539785.707   -21513932.46149 -16743643.27348  20539785.372    20539792.524
  20851958.654   -16940149.39749 -13188404.65548  20851958.220    20851966.893
  23206775.521    -2579477.04649  -1994234.52646  23206775.294    23206785.032
 03  4 22 21 18 30.0000000  0 10G 2G26G15G21G 6G17G29G18G23G16
  24695396.973    -7094198.19349  -1476376.24645  24695396.232    24695407.789
  21991105.263   -13679953.59349 -10637960.35646  21991105.414    21991113.211
  21129185.425   -15583075.70849 -12128941.16447  21129184.810    21129193.396
  20570347.076   -11284058.35949  -8783510.74548  20570346.635    20570352.941
  21866554.628     4315746.30749   3367471.26047  21866554.459    21866563.893
  20779739.784    -8408898.90249  -6543963.36048  20779739.306    20779747.633
  23782510.135    -3078371.03749  -2386300.80245  23782509.990    23782518.710
  20534297.615   -21542772.46649 -16766115.96648  20534297.312    20534304.419
  20847181.744   -16965252.23149 -13207965.25848  20847181.287    20847189.912
  23211941.907    -2552328.32649  -1973079.78046  23211941.627    23211951.271
 03  4 22 21 19  0.0000000  0 10G 2G26G15G21G 6G17G29G18G23G16
  24692635.862    -7108708.11849  -1487682.71445  24692635.284    24692646.458
  21998344.068   -13641913.65049 -10608318.82946  21998344.203    21998352.010
  21120288.495   -15629829.13049 -12165372.37047  21120287.899    21120296.395
  20570685.606   -11282279.54449  -8782124.66348  20570685.131    20570691.428
  21882492.513     4399499.60949   3432733.46847  21882492.345    21882501.719
  20781209.108    -8401177.94849  -6537947.04248  20781208.589    20781216.793
  23794830.752    -3013626.17249  -2335850.28045  23794830.631    23794839.381
  20528891.968   -21571179.30749 -16788251.13448  20528891.654    20528898.750
  20842482.478   -16989946.93949 -13227207.84848  20842482.070    20842490.698
  23217199.964    -2524696.87049  -1951548.86546  23217199.787    23217209.462
 03  4 22 21 19 30.0000000  0 10G 2G26G15G21G 6G17G29G18G23G16
  24689957.203    -7122785.14949  -1498651.86645  24689956.509    24689968.028
  22005702.179   -13603246.61749 -10578188.67146  22005702.299    22005710.263
  21111425.066   -15676406.77149 -12201666.60647  21111424.475    21111432.972
  20571068.854   -11280264.67149  -8780554.61748  20571068.426    20571074.832
  21898497.258     4483604.45449   3498269.59247  21898497.076    21898506.448
  20782717.868    -8393249.03449  -6531768.66648  20782717.404    20782725.574
  23807232.246    -2948456.56449  -2285068.76645  23807232.106    23807240.799
  20523568.607   -21599153.47249 -16810049.14948  20523568.280    20523575.414
  20837860.726   -17014234.65949 -13246133.30548  20837860.270    20837868.890
  23222549.726    -2496585.00849  -1929643.62246  23222549.453    23222559.067
 03  4 22 21 20  0.0000000  0 10G 2G26G15G21G 6G17G29G18G23G16
  24687360.966    -7136428.75349  -1509283.26945  24687360.366    24687371.638
  22013179.462   -13563953.31149 -10547570.49746  22013179.593    22013187.451
  21102595.337   -15722807.40649 -12237822.90947  21102594.738    21102603.231
  20571497.388   -11278012.66549  -8778799.81048  20571497.009    20571503.362
  21914568.404     4568059.60149   3564078.69547  21914568.300    21914577.874
  20784266.406    -8385111.52749  -6525427.75148  20784265.922    20784274.130
  23819714.181    -2882863.57849  -2233957.36945  23819714.045    23819722.904
  20518327.549   -21626694.92649 -16831509.98648  20518327.258    20518334.431
  20833316.373   -17038115.33949 -13264741.58748  20833315.915    20833324.470
  23227990.340    -2467994.17549  -1907365.13446  23227990.087    23227999.872
 03  4 22 21 20 30.0000000  0 10G 2G26G15G21G 6G17G29G18G23G16
  24684847.411    -7149638.59349  -1519576.71845  24684846.816    24684857.773
  22020775.831   -13524034.40449 -10516464.83346  22020775.924    22020783.716
  21093799.474   -15769029.72149 -12273840.26847  21093798.847    21093807.365
  20571971.400   -11275522.21149  -8776859.19348  20571970.971    20571977.297
  21930706.062     4652863.95549   3630159.91047  21930706.048    21930715.758
  20785854.856    -8376764.19949  -6518923.35148  20785854.362    20785862.587
  23832276.219    -2816848.44849  -2182517.04145  23832276.119    23832285.291
  20513168.956   -21653803.25649 -16852633.32748  20513168.679    20513175.828
  20828849.472   -17061588.98149 -13283032.69248  20828849.038    20828857.482
  23233521.789    -2438925.52649  -1884714.32346  23233521.617    23233531.532
 03  4 22 21 21  0.0000000  0 10G 2G26G15G21G 6G17G29G18G23G16
  24682415.784    -7162415.71749  -1529532.95245  24682415.310    24682426.015
  22028490.629   -13483491.94649 -10484873.30646  22028490.753    22028498.589
  21085037.449   -15815073.86749 -12309718.80147  21085036.843    21085045.432
  20572490.600   -11272793.73449  -8774733.09748  20572490.151    20572496.526
  21946909.996     4738014.93149   3696511.19747  21946909.930    21946919.580
  20787483.113    -8368207.37049  -6512255.69348  20787482.645    20787490.946
  23844917.893    -2750414.23949  -2130750.17545  23844917.917    23844927.204
  20508092.631   -21680479.57749 -16873420.03348  20508092.353    20508099.434
  20824459.760   -17084656.95349 -13301007.69048  20824459.317    20824467.718
  23239144.102    -2409381.49449  -1861693.10346  23239143.845    23239153.669
 03  4 22 21 21 30.0000000  0 10G 2G26G15G21G 6G17G29G18G23G16
  24680066.765    -7174760.44949  -1539152.25145  24680066.236    24680077.177
  22036323.845   -13442327.82649 -10452797.37146  22036323.960    22036331.767
  21076309.493   -15860939.40849 -12345458.16347  21076308.905    21076317.520
  20573055.122   -11269827.00749  -8772421.35848  20573054.700    20573061.071
  21963179.475     4823510.51449   3763131.01947  21963179.327    21963188.874
  20789151.396    -8359440.54649  -6505424.40048  20789150.950    20789159.219
  23857639.407    -2683563.12549  -2078658.39545  23857639.330    23857648.414
  20503098.330   -21706724.51049 -16893870.59448  20503098.061    20503105.155
  20820147.006   -17107320.21149 -13318667.32748  20820146.553    20820155.027
  23244856.261    -2379364.25149  -1838303.14446  23244856.030    23244865.684
 03  4 22 21 22  0.0000000  0 10G 2G26G15G21G 6G17G29G18G23G16
  24677800.037    -7186673.14349  -1548434.89745  24677799.524    24677810.309
  22044275.203   -13400543.17249 -10420237.88146  22044275.376    22044283.222
  21067615.716   -15906625.78849 -12381057.91047  21067615.114    21067623.708
  20573665.174   -11266621.43349  -8769923.50748  20573664.748    20573671.045
  21979513.978     4909348.73249   3830017.83047  21979513.849    21979523.370
  20790859.781    -8350463.33249  -6498429.17848  20790859.278    20790867.430
  23870439.761    -2616297.13449  -2026243.35845  23870439.649    23870448.614
  20498186.057   -21732538.38849 -16913985.27248  20498185.771    20498192.895
  20815911.121   -17129579.36949 -13336012.08448  20815910.695    20815919.199
  23250658.099    -2348875.56549  -1814545.83846  23250657.934    23250667.593
 03  4 22 21 22 30.0000000  0 10G 2G26G15G21G 6G17G29G18G23G16
  24675615.352    -7198153.70849  -1557380.81544  24675614.968    24675625.373
  22052344.425   -13358139.25949 -10387195.86446  22052344.550    22052352.514
  21058956.069   -15952132.17649 -12416517.40047  21058955.479    21058964.079
  20574320.732   -11263176.33349  -8767239.00448  20574320.295    20574326.589
  21995913.275     4995528.17149   3897170.54047  21995913.246    21995922.794
  20792608.251    -8341275.16349  -6491269.55647  20792607.737    20792615.916
  23883318.723    -2548618.13649  -1973506.47245  23883318.623    23883327.412
  20493355.858   -21757921.19649 -16933764.04348  20493355.565    20493362.601
  20811752.160   -17151434.71149 -13353042.18048  20811751.714    20811760.221
  23256549.375    -2317917.20449  -1790422.51346  23256549.117    23256558.814
 03  4 22 21 23  0.0000000  0 10G 2G26G15G21G 6G17G29G18G23G16
  24673512.786    -7209202.19149  -1565990.03744  24673512.393    24673522.887
  22060531.073   -13315117.35049 -10353672.30046  22060531.272    22060539.385
  21050330.854   -15997457.83049 -12451836.06047  21050330.280    21050338.853
  20575021.961   -11259491.25649  -8764367.50548  20575021.549    20575027.856
  22012377.392     5082047.15749   3964587.81647  22012377.318    22012386.877
  20794396.859    -8331875.46949  -6483945.11747  20794396.379    20794404.639
  23896275.895    -2480528.05149  -1920449.28345  23896275.753    23896284.563
  20488607.626   -21782873.24449 -16953207.15648  20488607.312    20488614.367
  20807669.893   -17172886.76449 -13369758.02948  20807669.490    20807678.007
  23262529.550    -2286491.03349  -1765934.66546  23262529.376    23262539.159
 03  4 22 21 23 30.0000000  0 10G 2G26G15G21G 6G17G29G18G23G16
  24671492.617    -7219819.64349  -1574263.42844  24671492.202    24671502.433
  22068835.113   -13271479.65949 -10319668.90246  22068835.204    22068843.388
  21041740.060   -16042602.60449 -12487013.77947  21041739.477    21041748.053
  20575768.950   -11255566.16549  -8761308.98548  20575768.512    20575774.826
  22028905.667     5168903.22349   4032267.75347  22028905.526    22028915.232
  20796225.911    -8322263.83249  -6476455.53448  20796225.453    20796233.701
  23909310.530    -2412029.24149  -1867073.61545  23909310.479    23909319.524
  20483941.157   -21807395.20849 -16972315.14748  20483940.913    20483947.975
  20803664.238   -17193936.65949 -13386160.50248  20803663.803    20803672.271
  23268598.552    -2254599.34849  -1741084.08846  23268598.344    23268608.203
 03  4 22 21 24  0.0000000  0 10G 2G26G15G21G 6G17G29G18G23G16
  24669554.043    -7230005.94849  -1582200.85045  24669553.455    24669564.288
  22077255.895   -13227227.38649 -10285186.60446  22077256.104    22077264.352
  21033183.927   -16087565.35149 -12522049.65547  21033183.330    21033191.882
  20576561.705   -11251399.98449  -8758062.60248  20576561.273    20576567.610
  22045497.717     5256094.77049   4100209.11447  22045497.599    22045507.388
  20798095.462    -8312439.19649  -6468799.97547  20798094.979    20798103.269
  23922422.756    -2343123.91349  -1813381.15145  23922422.761    23922431.776
  20479356.637   -21831487.39049 -16991088.23448  20479356.317    20479363.350
  20799735.012   -17214584.84449 -13402249.95148  20799734.554    20799742.950
  23274755.720    -2222243.77049  -1715872.04446  23274755.512    23274765.382
 03  4 22 21 24 30.0000000  0 10G 2G26G15G21G 6G17G29G18G23G16
  24667697.633    -7239761.09949  -1589802.30945  24667696.989    24667708.321
  22085793.618   -13182361.46949 -10250226.14746  22085793.843    22085802.157
  21024662.632   -16132344.86749 -12556942.75647  21024662.059    21024670.585
  20577400.463   -11246991.89849  -8754627.72848  20577400.092    20577406.392
  22062153.260     5343620.43249   4168410.81547  22062153.229    22062163.146
  20800005.762    -8302400.57949  -6460977.67647  20800005.286    20800013.569
  23935612.086    -2273813.46349  -1759373.03245  23935612.051    23935621.010
  20474853.765   -21855149.68849 -17009526.35848  20474853.464    20474860.520
  20795882.159   -17234831.46549 -13418026.50348  20795881.731    20795890.136
  23281000.893    -2189425.97949  -1690299.85046  23281000.588    23281010.509
 03  4 22 21 25  0.0000000  0 10G 2G26G15G21G 6G17G29G18G23G16
  24665923.073    -7249086.33849  -1597068.81045  24665922.577    24665933.484
  22094447.627   -13136884.62349 -10214789.64046  22094447.812    22094456.138
  21016176.228   -16176941.57049 -12591693.40147  21016175.634    21016184.141
  20578285.253   -11242342.33249  -8751004.67648  20578284.860    20578291.142
  22078871.965     5431477.51749   4236870.76246  22078871.954    22078881.947
  20801956.539    -8292149.42649  -6452989.76647  20801956.045    20801964.285
  23948877.885    -2204101.19249  -1705051.80645  23948877.737    23948886.990
  20470432.529   -21878383.46349 -17027630.56248  20470432.225    20470439.257
  20792105.471   -17254678.10249 -13433491.37248  20792105.005    20792113.419
  23287333.495    -2156148.71649  -1664369.61146  23287333.155    23287343.032
 03  4 22 21 25 30.0000000  0 10G 2G26G15G21G 6G17G29G18G23G16
  24664230.505    -7257981.60449  -1604000.26845  24664229.918    24664240.896
  22103217.657   -13090797.82949 -10178877.86746  22103217.840    22103226.168
  21007724.723   -16221354.36549 -12626300.74347  21007724.125    21007732.626
  20579216.195   -11237450.32249  -8747192.71448  20579215.805    20579222.073
  22095653.566     5519664.51249   4305587.78346  22095653.497    22095663.444
  20803948.045    -8281683.81649  -6444834.73947  20803947.557    20803955.734
  23962219.935    -2133988.66949  -1650418.69045  23962219.890    23962229.173
  20466092.853   -21901188.50249 -17045400.68848  20466092.559    20466099.595
  20788404.788   -17274125.13649 -13448644.87148  20788404.387    20788412.738
  23293753.078    -2122413.53449  -1638082.55846  23293752.750    23293762.711
 03  4 22 21 26  0.0000000  0 10G 2G26G15G21G 6G17G29G18G23G16
  24662619.670    -7266447.23949  -1610596.92145  24662619.143    24662630.218
  22112103.496   -13044102.58949 -10142491.96146  22112103.679    22112111.957
  20999308.375   -16265582.39449 -12660764.10847  20999307.792    20999316.217
  20580193.429   -11232315.33049  -8743191.41448  20580193.029    20580199.216
  22112497.490     5608179.64549   4374560.48546  22112497.417    22112507.379
  20805980.400    -8271003.38149  -6436512.31947  20805979.930    20805988.121
  23975637.940    -2063477.89149  -1595475.23945  23975637.801    23975646.869
  20461834.676   -21923565.38549 -17062837.18548  20461834.357    20461841.452
  20784780.093   -17293173.20349 -13463487.48148  20784779.656    20784787.968
  23300259.371    -2088222.42849  -1611440.23746  23300259.097    23300268.931
 03  4 22 21 26 30.0000000  0 10G 2G26G15G21G 6G17G29G18G23G16
  24661090.211    -7274483.90949  -1616859.30845  24661089.953    24661101.091
  22121104.685   -12996800.90049 -10105633.50046  22121104.838    22121113.088
  20990927.320   -16309625.22949 -12695083.17647  20990926.694    20990935.097
  20581216.818   -11226937.04449  -8739000.53648  20581216.390    20581222.613
  22129403.378     5697020.78349   4443787.23346  22129403.383    22129413.422
  20808053.715    -8260108.03849  -6428022.43247  20808053.254    20808061.487
  23989131.180    -1992571.21349  -1540223.30845  23989131.030    23989140.009
  20457657.806   -21945514.69049 -17079940.51148  20457657.518    20457664.576
  20781231.139   -17311823.16949 -13478019.88848  20781230.683    20781238.984
  23306852.061    -2053577.88549  -1584444.57946  23306851.822    23306861.734
 03  4 22 21 27  0.0000000  0 10G 2G26G15G21G 6G17G29G18G23G16
  24659642.618    -7282091.69549  -1622787.52045  24659642.265    24659653.415
  22130221.061   -12948894.12749 -10068303.54846  22130221.207    22130229.483
  20982581.551   -16353481.96549 -12729257.22747  20982580.952    20982589.394
  20582286.703   -11221314.69149  -8734619.48148  20582286.310    20582292.510
  22146371.044     5786186.19649   4513266.65346  22146371.056    22146381.140
  20810168.163    -8248997.10749  -6419364.56947  20810167.671    20810175.791
  24002699.428    -1921270.70149  -1484664.50445  24002699.257    24002708.120
  20453562.283   -21967036.77349 -17096710.92948  20453561.964    20453568.991
  20777757.757   -17330075.64549 -13492242.56248  20777757.298    20777765.562
  23313530.662    -2018481.60849  -1557096.93746  23313530.359    23313540.324
 03  4 22 21 27 30.0000000  0 10G 2G26G15G21G 6G17G29G18G23G16
  24658276.289    -7289271.27649  -1628382.05745  24658275.931    24658287.175
  22139452.220   -12900384.13549 -10030503.56746  22139452.366    22139460.618
  20974271.381   -16397151.97149 -12763285.77147  20974270.794    20974279.236
  20583403.159   -11215448.02449  -8730048.04148  20583402.727    20583408.943
  22163400.156     5875673.95049   4582997.25746  22163400.147    22163410.193
  20812323.622    -8237669.99249  -6410538.25147  20812323.109    20812331.202
  24016341.955    -1849578.61649  -1428800.56945  24016341.833    24016350.745
  20449547.902   -21988131.97949 -17113148.72148  20449547.623    20449554.717
  20774359.855   -17347931.50549 -13506156.17948  20774359.400    20774367.696
  23320294.807    -1982935.73149  -1529398.95346  23320294.555    23320304.551
 03  4 22 21 28  0.0000000  0 10G 2G26G15G21G 6G17G29G18G23G16
  24656991.436    -7296023.27549  -1633643.40745  24656991.140    24657002.430
  22148797.920   -12851272.66849  -9992234.89146  22148798.026    22148806.094
  20965996.865   -16440634.67349 -12797168.36047  20965996.283    20966004.729
  20584566.097   -11209336.49749  -8725285.80248  20584565.662    20584571.975
  22180490.261     5965481.86849   4652977.32046  22180490.176    22180500.191
  20814520.264    -8226126.13349  -6401543.03847  20814519.788    20814527.933
  24030058.324    -1777497.17049  -1372633.26145  24030058.177    24030067.318
  20445614.678   -22008801.07349 -17129254.47248  20445614.426    20445621.475
  20771037.290   -17365391.57249 -13519761.38548  20771036.821    20771045.154
  23327144.270    -1946942.46749  -1501352.38246  23327144.024    23327154.170
 03  4 22 21 28 30.0000000  0 10G 2G26G15G21G 6G17G29G18G23G16
  24655787.878    -7302348.24549  -1638572.02045  24655787.603    24655798.921
  22158257.524   -12801561.75049  -9953499.11846  22158257.688    22158265.668
  20957758.077   -16483929.65749 -12830904.68447  20957757.526    20957765.936
  20585775.748   -11202979.64849  -8720332.40748  20585775.314    20585781.626
  22197640.781     6055607.80449   4723205.20946  22197640.663    22197650.764
  20816758.310    -8214365.06949  -6392378.55947  20816757.838    20816766.051
  24043848.379    -1705028.77749  -1316164.38945  24043848.340    24043857.417
  20441762.397   -22029044.73449 -17145028.72548  20441762.162    20441769.171
  20767789.788   -17382456.87049 -13533058.98348  20767789.329    20767797.689
  23334078.574    -1910504.03249  -1472958.89346  23334078.243    23334088.315
 03  4 22 21 29  0.0000000  0 10G 2G26G15G21G 6G17G29G18G23G16
  24654665.491    -7308246.36549  -1643168.03145  24654665.201    24654676.555
  22167830.945   -12751252.62449  -9914297.20446  22167831.110    22167839.004
  20949555.319   -16527035.58849 -12864493.69747  20949554.755    20949563.145
  20587032.258   -11196376.66549  -8715187.22948  20587031.795    20587038.075
  22214851.465     6146050.30549   4793679.76046  22214851.378    22214861.592
  20819038.018    -8202385.59949  -6383043.91047  20819037.530    20819045.703
  24057712.073    -1632175.05749  -1259395.28745  24057712.013    24057720.985
  20437991.154   -22048862.98949 -17160471.48848  20437990.873    20437997.787
  20764617.509   -17399127.56149 -13546049.09348  20764617.075    20764625.395
  23341096.957    -1873622.05449  -1444219.81645  23341096.675    23341106.816
 03  4 22 21 29 30.0000000  0 10G 2G26G15G21G 6G17G29G18G23G16
  24653624.365    -7313717.91349  -1647431.65345  24653624.031    24653635.207
  22177517.796   -12700347.11249  -9874630.57746  22177517.984    22177525.839
  20941388.570   -16569951.88049 -12897934.93047  20941388.019    20941396.445
  20588335.708   -11189526.59649  -8709849.49748  20588335.252    20588341.619
  22232121.905     6236807.49749   4864399.53046  22232121.952    22232132.239
  20821359.335    -8190187.45449  -6373538.86347  20821358.823    20821366.903
  24071648.591    -1558938.23849  -1202327.67645  24071648.534    24071657.421
  20434300.667   -22068256.31849 -17175583.14348  20434300.388    20434307.321
  20761520.167   -17415404.33049 -13558732.25248  20761519.689    20761527.985
  23348199.425    -1836298.76849  -1415136.83245  23348199.128    23348209.296
 03  4 22 21 30  0.0000000  0 10G 2G26G15G21G 6G17G29G18G23G16
  24652664.425    -7318763.84149  -1651363.62045  24652663.906    24652675.226
  22187317.877   -12648847.24949  -9834500.81846  22187318.059    22187325.937
  20933257.995   -16612678.14049 -12931228.09447  20933257.418    20933265.875
  20589686.231   -11182429.68549  -8704319.42948  20589685.817    20589692.197
  22249452.021     6327876.95049   4935362.61146  22249452.055    22249462.265
  20823722.188    -8177770.36149  -6363863.20547  20823721.668    20823729.828
  24085657.567    -1485321.14149  -1144963.73945  24085657.566    24085666.383
  20430690.827   -22087225.65949 -17190364.42448  20430690.577    20430697.496
  20758497.451   -17431288.49449 -13571109.48948  20758496.962    20758505.307
  23355385.425    -1798536.77349  -1385712.01645  23355385.053    23355395.222
 03  4 22 21 30 30.0000000  0 10G 2G26G15G21G 6G17G29G18G23G16
  24651784.994    -7323385.04849  -1654964.60645  24651784.495    24651795.716
  22197230.684   -12596755.39649  -9793909.75146  22197230.877    22197238.708
  20925163.689   -16655214.00549 -12964372.90147  20925163.131    20925171.534
  20591083.783   -11175085.67749  -8698596.82748  20591083.320    20591089.705
  22266841.152     6419256.39949   5006567.24446  22266841.126    22266851.295
  20826126.537    -8165134.64849  -6354017.19247  20826126.063    20826134.291
  24099738.499    -1411326.04549  -1087305.25945  24099738.409    24099747.255
  20427161.608   -22105771.99149 -17204816.08548  20427161.311    20427168.243
  20755549.200   -17446781.30349 -13583181.77348  20755548.753    20755557.113
  23362654.382    -1760338.44049  -1355947.20445  23362654.021    23362664.115
 03  4 22 21 31  0.0000000  0 10G 2G26G15G21G 6G17G29G18G23G16
  24650986.368    -7327581.60249  -1658234.69645  24650985.817    24650997.171
  22207255.981   -12544072.53349  -9752858.16946  22207256.117    22207264.060
  20917105.916   -16697557.93049 -12997368.13847  20917105.339    20917113.690
  20592528.407   -11167493.37549  -8692680.74048  20592528.000    20592534.426
  22284288.823     6510944.57149   5078012.45046  22284288.848    22284299.062
  20828573.062    -8152278.37849  -6343999.32447  20828572.589    20828580.746
  24113890.680    -1336954.61849  -1029353.55545  24113890.790    24113899.690
  20423712.911   -22123894.98549 -17218937.87248  20423712.648    20423719.583
  20752675.475   -17461882.82549 -13594949.15748  20752674.982    20752683.310
  23370005.898    -1721705.25449  -1325843.53445  23370005.581    23370015.777
 03  4 22 21 31 30.0000000  0 10G 2G26G15G21G 6G17G29G18G23G16
  24650268.629    -7331354.00149  -1661174.27544  24650267.925    24650279.247
  22217393.210   -12490800.68549  -9711347.64546  22217393.338    22217401.380
  20909084.702   -16739709.11749 -13030213.18747  20909084.122    20909092.582
  20594020.621   -11159652.16249  -8686570.70948  20594020.246    20594026.526
  22301794.986     6602939.36249   5149696.57546  22301794.998    22301805.202
  20831061.614    -8139201.10849  -6333809.23947  20831061.097    20831069.250
  24128114.282    -1262209.17849   -971110.40345  24128114.404    24128123.307
  20420344.662   -22141595.35749 -17232730.34148  20420344.360    20420351.304
  20749876.001   -17476593.92949 -13606412.32448  20749875.520    20749883.873
  23377440.006    -1682639.57249  -1295402.87345  23377439.695    23377449.860
 03  4 22 21 32  0.0000000  0 10G 2G26G15G21G 6G17G29G18G23G16
  24649631.325    -7334703.45549  -1663784.29044  24649630.615    24649642.030
  22227642.072   -12436942.36849  -9669380.13546  22227642.234    22227650.314
  20901100.166   -16781667.69949 -13062908.15147  20901099.650    20901108.141
  20595560.253   -11151562.19249  -8680266.82848  20595559.771    20595566.031
  22319359.217     6695238.27349   5221617.67046  22319359.079    22319369.213
  20833592.173    -8125903.05749  -6323447.11947  20833591.664    20833599.805
  24142408.520    -1187092.49349   -912577.97645  24142408.678    24142417.575
  20417056.612   -22158874.05049 -17246194.23148  20417056.306    20417063.268
  20747150.579   -17490916.20749 -13617572.50248  20747150.097    20747158.387
  23384956.127    -1643144.05349  -1264627.26645  23384955.662    23384965.691
 03  4 22 21 32 30.0000000  0 10G 2G26G15G21G 6G17G29G18G23G16
  24649074.394    -7337630.67549  -1666065.27944  24649073.811    24649084.680
  22238002.169   -12382499.70149  -9626957.27646  22238002.362    22238010.370
  20893152.539   -16823432.95049 -13095452.47247  20893151.992    20893160.420
  20597147.062   -11143223.05449  -8673768.79148  20597146.622    20597152.983
  22336980.659     6787839.16149   5293774.06846  22336980.550    22336990.680
  20836164.967    -8112383.49049  -6312912.39847  20836164.434    20836172.508
  24156773.172    -1111606.88149   -853758.05545  24156773.253    24156781.909
  20413848.572   -22175732.12349 -17259330.36448  20413848.287    20413855.197
  20744498.937   -17504850.60449 -13628430.44248  20744498.423    20744506.669
  23392553.352    -1603221.10549  -1233518.58145  23392552.853    23392563.177
 03  4 22 21 33  0.0000000  0 10G 2G26G15G21G 6G17G29G18G23G16
  24648597.561    -7340135.98649  -1668017.49944  24648597.172    24648606.979
  22248473.160   -12327473.98149  -9584080.09546  22248473.332    22248481.325
  20885241.991   -16865003.46749 -13127845.05547  20885241.418    20885249.744
  20598781.565   -11134633.48849  -8667075.61948  20598781.121    20598787.470
  22354659.217     6880740.59649   5366164.67746  22354659.171    22354669.438
  20838780.027    -8098641.11549  -6302204.05347  20838779.483    20838787.568
  24171207.687    -1035754.33349   -794652.19845  24171207.730    24171216.265
  20410720.640   -22192169.51649 -17272138.69248  20410720.342    20410727.198
  20741920.977   -17518397.45449 -13638986.39548  20741920.547    20741928.780
  23400231.562    -1562872.35149  -1202078.11545  23400231.207    23400241.409
 03  4 22 21 33 30.0000000  0 10G 2G26G15G21G 6G17G29G18G23G16
  24648200.898    -7342220.22849  -1669641.59444  24648200.495    24648209.985
  22259054.720   -12271867.53649  -9540750.41146  22259054.897    22259062.936
  20877368.536   -16906378.66349 -13160085.44647  20877367.969    20877376.220
  20600463.768   -11125793.26449  -8660187.13448  20600463.336    20600469.627
  22372394.676     6973940.26049   5438787.64546  22372394.573    22372404.931
  20841437.414    -8084676.19649  -6291322.29347  20841436.913    20841445.052
  24185711.572     -959537.13849   -735262.20445  24185711.530    24185719.878
  20407672.535   -22208187.22049 -17284619.99148  20407672.272    20407679.087
  20739416.679   -17531557.75949 -13649241.13948  20739416.181    20739424.428
  23407990.227    -1522100.60649  -1170308.05945  23407989.875    23407999.775
 03  4 22 21 34  0.0000000  0 10G 2G26G15G21G 6G17G29G18G23G16
  24647884.733    -7343883.81249  -1670937.92344  24647884.275    24647893.402
  22269746.546   -12215682.11849  -9496969.57646  22269746.645    22269754.647
  20869532.479   -16947557.52149 -13192172.84747  20869531.884    20869540.123
  20602193.800   -11116701.74449  -8653102.82348  20602193.378    20602199.648
  22390186.612     7067436.26849   5511641.55046  22390186.416    22390196.723
  20844137.411    -8070487.80849  -6280266.40547  20844136.904    20844145.076
  24200284.294     -882957.45249   -675589.76845  24200284.182    24200292.448
  20404704.257   -22223785.47649 -17296774.44048  20404703.968    20404710.793
  20736985.698   -17544332.40049 -13659195.36748  20736985.244    20736993.444
  23415829.031    -1480907.94849  -1138210.05045  23415828.669    23415838.398
 03  4 22 21 34 30.0000000  0 10G 2G26G15G21G 6G17G29G18G23G16
  24647647.934    -7345127.42949  -1671907.08344  24647647.668    24647656.776
  22280548.118   -12158919.47549  -9452738.95346  22280548.247    22280556.202
  20861733.897   -16988539.12649 -13224106.54347  20861733.323    20861741.555
  20603971.882   -11107358.28949  -8645822.21348  20603971.467    20603977.645
  22408034.287     7161226.54149   5584724.73646  22408034.161    22408044.440
  20846879.989    -8056075.28249  -6269035.86747  20846879.506    20846887.676
  24214925.320     -806017.43849   -615636.56745  24214925.087    24214933.689
  20401815.638   -22238964.84049 -17308602.48748  20401815.367    20401822.194
  20734628.014   -17556722.11549 -13668849.65648  20734627.546    20734635.697
  23423747.255    -1439296.39449  -1105785.58745  23423747.007    23423757.000
 03  4 22 21 35  0.0000000  0 10G 2G26G15G21G 6G17G29G18G23G16
  24647491.031    -7345951.19549  -1672549.04144  24647490.766    24647500.623
  22291459.216   -12101581.42249  -9408059.96046  22291459.284    22291467.320
  20853973.030   -17029322.46449 -13255885.74247  20853972.445    20853980.730
  20605798.090   -11097761.94449  -8638344.54948  20605797.643    20605803.746
  22425937.862     7255309.51149   5658035.99546  22425937.716    22425947.966
  20849665.455    -8041437.28549  -6257629.63047  20849664.967    20849673.085
  24229634.502     -728719.08249   -555404.12745  24229634.353    24229643.145
  20399006.763   -22253725.66649 -17320104.39848  20399006.492    20399013.310
  20732343.492   -17568727.41849 -13678204.40648  20732343.028    20732351.200
  23431745.156    -1397267.75749  -1073036.11745  23431744.911    23431755.172
 03  4 22 21 35 30.0000000  0 10G 2G26G15G21G 6G17G29G18G23G16
  24647414.249    -7346356.98749  -1672865.34844  24647414.159    24647424.059
  22302479.158   -12043671.04249  -9362935.01346  22302479.264    22302487.501
  20846249.825   -17069907.97549 -13287510.78147  20846249.252    20846257.586
  20607672.162   -11087913.08349  -8630670.10848  20607671.736    20607677.867
  22443896.494     7349682.12049   5731572.94446  22443896.364    22443906.614
  20852493.714    -8026574.69649  -6246048.39047  20852493.219    20852501.294
  24244411.258     -651065.64049   -494895.02845  24244411.133    24244420.182
  20396277.170   -22268069.88149 -17331281.67448  20396276.881    20396283.729
  20730131.684   -17580350.27549 -13687261.14448  20730131.209    20730139.384
  23439821.941    -1354825.50149  -1039964.34745  23439821.599    23439831.855
 03  4 22 21 36  0.0000000  0 10G 2G26G15G21G 6G17G29G18G23G16
  24647416.374    -7346345.39348  -1672856.40444  24647416.111    24647426.793
  22313607.794   -11985189.90349  -9317365.32046  22313607.920    22313616.195
  20838564.617   -17110294.18149 -13318980.52847  20838564.052    20838572.386
  20609594.514   -11077810.77049  -8622798.17048  20609594.105    20609600.337
  22461909.870     7444342.64149   5805334.24946  22461909.793    22461920.151
  20855364.942    -8011486.35149  -6234291.23247  20855364.442    20855372.533
  24259255.179     -573059.08249   -434110.76045  24259255.327    24259264.411
  20393626.830   -22281997.32049 -17342134.19148  20393626.566    20393633.443
  20727992.565   -17591591.18549 -13696020.25748  20727992.090    20728000.214
  23447976.779    -1311971.69049  -1006571.89845  23447976.503    23447986.818
 03  4 22 21 36 30.0000000  0 10G 2G26G15G21G 6G17G29G18G23G16
  24647497.640    -7345917.01749  -1672522.62544  24647497.234    24647508.581
  22324844.704   -11926140.17349  -9271352.56046  22324844.811    22324852.949
  20830917.481   -17150480.24349 -13350294.31847  20830916.906    20830925.183
  20611565.328   -11067454.31849  -8614728.21248  20611564.901    20611571.152
  22479977.676     7539289.10849   5879318.35346  22479977.545    22479988.030
  20858279.278    -7996171.29549  -6222357.42347  20858278.804    20858286.964
  24274166.151     -494701.65349   -373053.06845  24274166.284    24274175.279
  20391055.631   -22295508.80249 -17352662.59448  20391055.386    20391062.278
  20725925.883   -17602451.18449 -13704482.56848  20725925.420    20725933.623
  23456209.595    -1268708.54449   -972860.53245  23456209.234    23456219.696
 03  4 22 21 37  0.0000000  0 10G 2G26G15G21G 6G17G29G18G23G16
  24647658.683    -7345072.63349  -1671864.77044  24647658.431    24647669.174
  22336189.211   -11866524.22049  -9224898.56946  22336189.318    22336197.387
  20823308.471   -17190465.67549 -13381451.77047  20823307.874    20823316.102
  20613584.473   -11056843.59649  -8606460.11248  20613584.033    20613590.254
  22498099.392     7634519.18649   5953523.46646  22498099.280    22498109.788
  20861236.941    -7980629.02149  -6210246.56047  20861236.427    20861244.599
  24289143.372     -415996.05449   -311724.08545  24289143.536    24289152.343
  20388563.479   -22308605.31549 -17362867.63748  20388563.202    20388570.096
  20723931.615   -17612931.30749 -13712648.86548  20723931.141    20723939.274
  23464519.815    -1225038.46849   -938832.02345  23464519.471    23464530.221
 03  4 22 21 37 30.0000000  0 10G 2G26G15G21G 6G17G29G18G23G16
  24647898.403    -7343812.80249  -1670883.15144  24647897.816    24647909.229
  22347641.039   -11806343.62249  -9178004.61946  22347641.250    22347649.397
  20815737.800   -17230249.29149 -13412451.97047  20815737.245    20815745.444
  20615652.187   -11045977.55749  -8597993.07148  20615651.781    20615657.864
  22516274.755     7730031.12849   6027948.19846  22516274.717    22516285.182
  20864237.740    -7964859.31949  -6197958.48247  20864237.249    20864245.477
  24304186.776     -336944.02849   -250125.14345  24304186.871    24304195.456
  20386150.180   -22321287.07749 -17372749.50248  20386149.932    20386156.777
  20722009.467   -17623032.13849 -13720519.61648  20722008.982    20722017.087
  23472906.921    -1180963.87549   -904488.31345  23472906.764    23472917.501
 03  4 22 21 38  0.0000000  0 10G 2G26G15G21G 6G17G29G18G23G16
  24648216.822    -7342139.30749  -1669579.18244  24648216.325    24648227.656
  22359199.938   -11745601.51049  -9130673.12946  22359200.098    22359208.235
  20808205.632   -17269830.96249 -13443294.80447  20808205.040    20808213.306
  20617768.564   -11034856.31449  -8589327.17348  20617768.156    20617774.202
  22534503.415     7825822.09349   6102590.34246  22534503.338    22534513.821
  20867281.903    -7948862.18949  -6185493.18747  20867281.392    20867289.672
  24319295.580     -257548.56149   -188258.60045  24319295.441    24319304.021
  20383815.578   -22333555.55549 -17382309.32948  20383815.308    20383822.152
  20720159.118   -17632755.36549 -13728096.12848  20720158.663    20720166.837
  23481370.585    -1136487.61549   -869831.60245  23481370.365    23481381.304
 03  4 22 21 38 30.0000000  0 10G 2G26G15G21G 6G17G29G18G23G16
  24648614.155    -7340052.12949  -1667952.88645  24648613.479    24648624.950
  22370865.266   -11684299.21949  -9082905.11646  22370865.432    22370873.660
  20800712.134   -17309209.07649 -13473979.02547  20800711.537    20800719.892
  20619933.566   -11023478.80749  -8580461.57548  20619933.138    20619939.368
  22552784.800     7921890.61849   6177448.77646  22552784.692    22552795.300
  20870369.543    -7932636.24149  -6172849.59047  20870369.054    20870377.369
  24334468.938     -177811.55749   -126125.94645  24334468.859    24334477.539
  20381559.500   -22345411.03749 -17391547.34348  20381559.270    20381566.049
  20718380.635   -17642101.38749 -13735378.71048  20718380.154    20718388.296
  23489910.272    -1091611.52249   -834863.35845  23489910.074    23489920.997
 03  4 22 21 39  0.0000000  0 10G 2G26G15G21G 6G17G29G18G23G16
  24649089.977    -7337552.16349  -1666004.92445  24649089.391    24649100.741
  22382636.821   -11622438.87049  -9034702.26146  22382637.043    22382645.313
  20793257.611   -17348382.75049 -13504503.94447  20793257.078    20793265.392
  20622147.530   -11011844.14149  -8571395.60148  20622147.145    20622153.390
  22571118.453     8018234.82049   6252522.02846  22571118.440    22571129.167
  20873500.982    -7916180.46049  -6160026.91647  20873500.506    20873508.727
  24349706.766      -97735.12549    -63728.78845  24349706.819    24349715.535
  20379382.025   -22356854.02449 -17400463.92848  20379381.768    20379388.473
  20716673.791   -17651070.89249 -13742367.90448  20716673.286    20716681.385
  23498525.565    -1046337.72149   -799585.22345  23498525.399    23498536.060
 03  4 22 21 39 30.0000000  0 10G 2G26G15G21G 6G17G29G18G23G16
  24649643.994    -7334640.17849  -1663735.89945  24649643.107    24649655.157
  22394514.217   -11560022.89349  -8986066.46546  22394514.470    22394522.843
  20785842.190   -17387351.52349 -13534869.19147  20785841.621    20785849.827
  20624410.602   -10999952.12949  -8562129.10048  20624410.148    20624416.377
  22589504.222     8114852.41449   6327808.29246  22589504.221    22589514.990
  20876676.286    -7899494.43649  -6147024.82547  20876675.788    20876683.939
  24365008.999      -17321.92249     -1069.19345  24365008.965    24365017.780
  20377282.807   -22367885.36749 -17409059.75548  20377282.521    20377289.268
  20715038.305   -17659665.33049 -13749064.83948  20715037.798    20715045.934
  23507216.181    -1000668.91349   -763999.27945  23507215.894    23507226.616
 03  4 22 21 40  0.0000000  0 10G 2G26G15G21G 6G17G29G18G23G16
  24650276.336    -7331317.53749  -1661146.88645  24650275.588    24650288.018
  22406496.927   -11497053.91349  -8936999.73146  22406497.154    22406505.443
  20778465.789   -17426114.89149 -13565074.38247  20778465.188    20778473.402
  20626722.463   -10987802.46149  -8552661.82348  20626722.038    20626728.349
  22607941.675     8211740.88649   6403305.64846  22607941.558    22607952.337
  20879895.270    -7882578.45949  -6133843.54747  20879894.770    20879903.018
  24380374.635       63425.36849     61850.71445  24380374.557    24380383.446
  20375261.655   -22378506.30949 -17417335.79548  20375261.390    20375268.130
  20713473.945   -17667886.05449 -13755470.56748  20713473.431    20713481.554
  23515981.080     -954608.13049   -728107.86145  23515980.915    23515992.009
 03  4 22 21 40 30.0000000  0 10G 2G26G15G21G 6G17G29G18G23G16
  24650986.728    -7327585.42549  -1658238.82745  24650985.908    24650997.837
  22418584.278   -11433534.31049  -8887503.96846  22418584.437    22418592.833
  20771128.571   -17464671.99249 -13595118.84847  20771127.997    20771136.231
  20629083.435   -10975394.82349  -8542993.52548  20629083.053    20629089.474
  22626430.236     8308897.82449   6479012.18746  22626430.058    22626440.745
  20883158.229    -7865431.49949  -6120482.27947  20883157.731    20883166.049
  24395803.563      144504.08949    125028.87345  24395803.437    24395812.565
  20373318.474   -22388717.85749 -17425292.82548  20373318.195    20373324.891
  20711980.405   -17675734.30249 -13761586.05848  20711979.895    20711987.973
  23524820.481     -908157.92449   -691913.03345  23524820.295    23524831.275
 03  4 22 21 41  0.0000000  0 10G 2G26G15G21G 6G17G29G18G23G16
  24651774.485    -7323444.64049  -1655012.32145  24651773.881    24651785.671
  22430775.850   -11369466.23849  -8837580.81546  22430776.117    22430784.601
  20763830.876   -17503021.70249 -13625001.70847  20763830.309    20763838.485
  20631493.842   -10962728.43449  -8533123.61148  20631493.454    20631499.853
  22644969.458     8406321.20749   6554926.34946  22644969.293    22644979.928
  20886465.241    -7848053.24049  -6106940.78247  20886464.731    20886473.013
  24411295.193      225912.12149    188463.64445  24411295.120    24411304.172
  20371453.013   -22398520.62049 -17432931.31948  20371452.727    20371459.472
  20710557.630   -17683210.97749 -13767412.01248  20710557.130    20710565.169
  23533733.592     -861320.62549   -655416.59045  23533733.345    23533744.302
 03  4 22 21 41 30.0000000  0 10G 2G26G15G21G 6G17G29G18G23G16
  24652640.424    -7318896.18649  -1651468.20445  24652639.743    24652651.325
  22443071.526   -11304852.07549  -8787232.14046  22443071.745    22443080.210
  20756572.715   -17541163.36949 -13654722.46247  20756572.144    20756580.291
  20633953.553   -10949802.84549  -8523051.72548  20633953.122    20633959.478
  22663559.115     8504008.86349   6631046.42446  22663558.904    22663569.396
  20889816.375    -7830442.68249  -6093218.27247  20889815.891    20889824.152
  24426849.153      307646.97549    252153.08445  24426849.094    24426857.911
  20369665.167   -22407915.47549 -17440251.96148  20369664.904    20369671.676
  20709205.291   -17690317.19249 -13772949.30148  20709204.816    20709212.837
  23542719.674     -814098.83149   -618620.53645  23542719.494    23542730.542
 03  4 22 21 42  0.0000000  0 10G 2G26G15G21G 6G17G29G18G23G16
  24653583.353    -7313941.10149  -1647607.15745  24653582.610    24653594.651
  22455470.788   -11239694.17649  -8736459.78546  22455471.020    22455479.356
  20749354.334   -17579096.14949 -13684280.45047  20749353.781    20749361.926
  20636462.544   -10936617.73649  -8512777.61248  20636462.115    20636468.500
  22682198.566     8601958.52149   6707370.65946  22682198.340    22682208.756
  20893211.779    -7812599.52149  -6079314.51347  20893211.291    20893219.654
  24442464.619      389706.15449    316095.23845  24442464.434    24442473.245
  20367954.883   -22416903.14249 -17447255.31248  20367954.599    20367961.351
  20707923.365   -17697053.95149 -13778198.68948  20707922.883    20707930.876
  23551778.531     -766495.08949   -581526.84245  23551778.252    23551789.404
